[[{"header":{"parameterUnit":"m.s-1","parameterCategory":1,"la1":31.0,"la2":29.5877,"lo1":-88.7671,"lo2":-86.6584,"dy":0.0162,"dx":0.0185,"nx":115,"ny":88,"refTime":"2026-04-21T00:00:00:Z","depth":0,"parameterNumber":2,"parameterNumberName":"U-component_of_WINDS"},"data":[0.0,0.0,0.0,0.0,0.0,0.0,0.0,0.0,0.0,0.0,0.0,0.0,0.0,0.0,0.0,0.0,0.0,0.0,0.0,0.0,0.0,0.0,0.0,0.0,0.0,0.0,0.0,0.0,0.0,0.0,0.0,0.0,0.0,0.0,0.0,0.0,0.0,0.0,0.0,0.0,0.0,0.0,0.0,0.0,0.0,0.0,0.0,0.0,0.0,0.0,0.0,0.0,0.0,0.0,0.0,0.0,0.0,0.0,0.0,0.0,0.0,0.0,0.0,0.0,0.0,0.0,0.0,0.0,0.0,0.0,0.0,0.0,0.0,0.0,0.0,0.0,0.0,0.0,0.0,0.0,0.0,0.0,0.0,0.0,0.0,0.0,0.0,0.0,0.0,0.0,0.0,0.0,0.0,0.0,0.0,0.0,0.0,0.0,0.0,0.0,0.0,0.0,0.0,0.0,0.0,0.0,0.0,0.0,0.0,0.0,0.0,0.0,0.0,0.0,0.0,0.0,0.0,0.0,0.0,0.0,0.0,0.0,0.0,0.0,0.0,0.0,0.0,0.0,0.0,0.0,0.0,0.0,0.0,0.0,0.0,0.0,0.0,0.0,0.0,0.0,0.0,0.0,0.0,0.0,0.0,0.0,0.0,0.0,0.0,0.0,0.0,0.0,0.0,0.0,0.0,0.0,0.0,0.0,0.0,0.0,0.0,0.0,0.0,0.0,0.0,0.0,0.0,0.0,0.0,0.0,0.0,0.0,0.0,0.0,0.0,0.0,0.0,0.0,0.0,0.0,0.0,0.0,0.0,0.0,0.0,0.0,0.0,0.0,0.0,0.0,0.0,0.0,0.0,0.0,0.0,0.0,0.0,0.0,0.0,0.0,0.0,0.0,0.0,0.0,0.0,0.0,0.0,0.0,0.0,0.0,0.0,0.0,0.0,0.0,0.0,0.0,0.0,0.0,0.0,0.0,0.0,0.0,0.0,0.0,0.0,0.0,0.0,0.0,0.0,0.0,0.0,0.0,0.0,0.0,0.0,0.0,0.0,0.0,0.0,0.0,0.0,0.0,0.0,0.0,0.0,0.0,0.0,0.0,0.0,0.0,0.0,0.0,0.0,0.0,0.0,0.0,0.0,0.0,0.0,0.0,0.0,0.0,0.0,0.0,0.0,0.0,0.0,0.0,0.0,0.0,0.0,0.0,0.0,0.0,0.0,0.0,0.0,0.0,0.0,0.0,0.0,0.0,0.0,0.0,0.0,0.0,0.0,0.0,0.0,0.0,0.0,0.0,0.0,0.0,0.0,0.0,0.0,0.0,0.0,0.0,0.0,0.0,0.0,0.0,0.0,0.0,0.0,0.0,0.0,0.0,0.0,0.0,0.0,0.0,0.0,0.0,0.0,0.0,0.0,0.0,0.0,0.0,0.0,0.0,0.0,0.0,0.0,0.0,0.0,0.0,0.0,0.0,0.0,0.0,0.0,0.0,0.0,0.0,0.0,0.0,0.0,0.0,0.0,0.0,0.0,0.0,0.0,0.0,0.0,0.0,0.0,0.0,0.0,0.0,0.0,0.0,0.0,0.0,0.0,0.0,0.0,0.0,0.0,0.0,0.0,0.0,0.0,0.0,0.0,0.0,0.0,0.0,0.0,0.0,0.0,0.0,0.0,0.0,0.0,0.0,0.0,0.0,0.0,0.0,0.0,0.0,0.0,0.0,0.0,0.0,0.0,0.0,0.0,0.0,0.0,0.0,0.0,0.0,0.0,0.0,0.0,0.0,0.0,0.0,0.0,0.0,0.0,0.0,0.0,0.0,0.0,0.0,0.0,0.0,0.0,0.0,0.0,0.0,0.0,0.0,0.0,0.0,0.0,0.0,0.0,0.0,0.0,0.0,0.0,0.0,0.0,0.0,0.0,0.0,0.0,0.0,0.0,0.0,0.0,0.0,0.0,0.0,0.0,0.0,0.0,0.0,0.0,0.0,0.0,0.0,0.0,0.0,0.0,0.0,0.0,0.0,0.0,0.0,0.0,0.0,0.0,0.0,0.0,0.0,0.0,0.0,0.0,0.0,0.0,0.0,0.0,0.0,0.0,0.0,0.0,0.0,0.0,0.0,0.0,0.0,0.0,0.0,0.0,0.0,0.0,0.0,0.0,0.0,0.0,0.0,0.0,0.0,0.0,0.0,0.0,0.0,0.0,0.0,0.0,0.0,0.0,0.0,0.0,0.0,0.0,0.0,0.0,0.0,0.0,0.0,0.0,0.0,0.0,0.0,0.0,0.0,0.0,0.0,0.0,0.0,0.0,0.0,0.0,0.0,0.0,0.0,0.0,0.0,0.0,0.0,0.0,0.0,0.0,0.0,0.0,0.0,0.0,0.0,0.0,0.0,0.0,0.0,0.0,0.0,0.0,0.0,0.0,0.0,0.0,0.0,0.0,0.0,0.0,0.0,0.0,0.0,0.0,0.0,0.0,0.0,0.0,0.0,0.0,0.0,0.0,0.0,0.0,0.0,0.0,0.0,0.0,0.0,0.0,0.0,0.0,0.0,0.0,0.0,0.0,0.0,0.0,0.0,0.0,0.0,0.0,0.0,0.0,0.0,0.0,0.0,0.0,0.0,0.0,0.0,0.0,0.0,0.0,0.0,0.0,0.0,0.0,0.0,0.0,0.0,0.0,0.0,0.0,0.0,0.0,0.0,0.0,0.0,0.0,0.0,0.0,0.0,0.0,0.0,0.0,0.0,0.0,0.0,0.0,0.0,0.0,0.0,0.0,0.0,0.0,0.0,0.0,0.0,0.0,0.0,0.0,0.0,0.0,0.0,0.0,0.0,0.0,0.0,0.0,0.0,0.0,0.0,0.0,0.0,0.0,0.0,0.0,0.0,0.0,0.0,0.0,0.0,0.0,0.0,0.0,0.0,0.0,0.0,0.0,0.0,0.0,0.0,0.0,0.0,0.0,0.0,0.0,0.0,0.0,0.0,0.0,0.0,0.0,0.0,0.0,0.0,0.0,0.0,0.0,0.0,0.0,0.0,0.0,0.0,0.0,0.0,0.0,0.0,0.0,0.0,0.0,0.0,0.0,0.0,0.0,0.0,0.0,0.0,0.0,0.0,0.0,0.0,0.0,0.0,0.0,0.0,0.0,0.0,0.0,0.0,0.0,0.0,0.0,0.0,0.0,0.0,0.0,0.0,0.0,0.0,0.0,0.0,0.0,0.0,0.0,0.0,0.0,0.0,0.0,0.0,0.0,0.0,0.0,0.0,0.0,0.0,0.0,0.0,0.0,0.0,0.0,0.0,0.0,0.0,0.0,0.0,0.0,0.0,0.0,0.0,0.0,0.0,0.0,0.0,0.0,0.0,0.0,0.0,0.0,0.0,0.0,0.0,0.0,0.0,0.0,0.0,0.0,0.0,0.0,0.0,0.0,0.0,0.0,0.0,0.0,0.0,0.0,0.0,0.0,0.0,0.0,0.0,0.0,0.0,0.0,0.0,0.0,0.0,0.0,0.0,0.0,0.0,0.0,0.0,0.0,0.0,0.0,0.0,0.0,0.0,0.0,0.0,0.0,0.0,0.0,0.0,0.0,0.0,0.0,0.0,0.0,0.0,0.0,0.0,0.0,0.0,0.0,0.0,0.0,0.0,0.0,0.0,0.0,0.0,0.0,0.0,0.0,0.0,0.0,0.0,0.0,0.0,0.0,0.0,0.0,0.0,0.0,0.0,0.0,0.0,0.0,0.0,0.0,0.0,0.0,0.0,0.0,0.0,0.0,0.0,0.0,0.0,0.0,0.0,0.0,0.0,0.0,0.0,0.0,0.0,0.0,0.0,0.0,0.0,0.0,0.0,0.0,0.0,0.0,0.0,0.0,0.0,0.0,0.0,0.0,0.0,0.0,0.0,0.0,0.0,0.0,0.0,0.0,0.0,0.0,0.0,0.0,0.0,0.0,0.0,0.0,0.0,0.0,0.0,0.0,0.0,0.0,0.0,0.0,0.0,0.0,0.0,0.0,0.0,0.0,0.0,0.0,0.0,0.0,0.0,0.0,0.0,0.0,0.0,0.0,0.0,0.0,0.0,0.0,0.0,0.0,0.0,0.0,0.0,0.0,0.0,0.0,0.0,0.0,0.0,0.0,0.0,0.0,0.0,0.0,0.0,0.0,0.0,0.0,0.0,0.0,0.0,0.0,0.0,0.0,0.0,0.0,0.0,0.0,0.0,0.0,0.0,0.0,0.0,0.0,0.0,0.0,0.0,0.0,0.0,0.0,0.0,-1.7667,0.0,0.0,0.0,0.0,0.0,0.0,0.0,0.0,0.0,0.0,0.0,0.0,0.0,0.0,0.0,0.0,0.0,0.0,0.0,0.0,0.0,0.0,0.0,0.0,0.0,0.0,0.0,0.0,0.0,0.0,0.0,0.0,0.0,0.0,0.0,0.0,0.0,0.0,0.0,0.0,0.0,0.0,0.0,0.0,0.0,0.0,0.0,0.0,0.0,0.0,0.0,0.0,0.0,0.0,0.0,0.0,0.0,0.0,0.0,0.0,0.0,0.0,0.0,0.0,0.0,0.0,0.0,0.0,0.0,0.0,0.0,0.0,0.0,0.0,0.0,0.0,0.0,0.0,0.0,0.0,0.0,0.0,0.0,0.0,0.0,0.0,0.0,0.0,0.0,0.0,0.0,0.0,0.0,0.0,0.0,0.0,0.0,0.0,0.0,0.0,0.0,0.0,0.0,0.0,0.0,0.0,0.0,0.0,0.0,0.0,-1.9217,-1.9446,-1.8644,-1.8218,-1.8238,0.0,0.0,0.0,0.0,0.0,0.0,0.0,0.0,0.0,0.0,0.0,0.0,0.0,0.0,0.0,0.0,0.0,0.0,0.0,0.0,0.0,0.0,0.0,0.0,0.0,0.0,0.0,0.0,0.0,0.0,0.0,0.0,0.0,0.0,0.0,0.0,0.0,0.0,0.0,0.0,0.0,0.0,0.0,0.0,0.0,0.0,0.0,0.0,0.0,0.0,0.0,0.0,0.0,0.0,0.0,0.0,0.0,0.0,0.0,0.0,0.0,0.0,0.0,0.0,0.0,0.0,0.0,0.0,0.0,0.0,0.0,0.0,0.0,0.0,0.0,0.0,0.0,0.0,0.0,0.0,0.0,0.0,0.0,0.0,0.0,0.0,0.0,0.0,0.0,0.0,0.0,0.0,0.0,0.0,0.0,0.0,0.0,0.0,0.0,0.0,0.0,0.0,0.0,0.0,0.0,0.0,0.0,0.0,0.0,0.0,0.0,0.0,-1.8972,-1.8553,-1.8267,0.0,0.0,0.0,0.0,0.0,0.0,0.0,0.0,0.0,0.0,0.0,0.0,0.0,0.0,0.0,0.0,0.0,0.0,0.0,0.0,0.0,0.0,0.0,0.0,0.0,0.0,0.0,0.0,0.0,0.0,0.0,0.0,0.0,0.0,0.0,0.0,0.0,0.0,0.0,0.0,0.0,0.0,0.0,0.0,0.0,0.0,0.0,0.0,0.0,0.0,0.0,0.0,0.0,0.0,0.0,0.0,0.0,0.0,0.0,0.0,0.0,0.0,0.0,0.0,0.0,0.0,0.0,0.0,0.0,0.0,0.0,0.0,0.0,0.0,0.0,0.0,0.0,0.0,0.0,0.0,0.0,0.0,0.0,0.0,0.0,0.0,0.0,0.0,0.0,0.0,0.0,0.0,0.0,0.0,0.0,0.0,0.0,0.0,0.0,0.0,0.0,0.0,0.0,0.0,0.0,0.0,0.0,0.0,0.0,0.0,-1.8634,-1.8775,-1.8732,0.0,-1.7025,0.0,0.0,0.0,0.0,0.0,0.0,0.0,0.0,0.0,0.0,0.0,0.0,0.0,0.0,0.0,0.0,0.0,0.0,0.0,0.0,0.0,0.0,0.0,0.0,0.0,0.0,0.0,0.0,0.0,0.0,0.0,0.0,0.0,0.0,0.0,0.0,0.0,0.0,0.0,0.0,0.0,0.0,0.0,0.0,0.0,0.0,0.0,0.0,0.0,0.0,0.0,0.0,0.0,0.0,0.0,0.0,0.0,0.0,0.0,0.0,0.0,0.0,0.0,0.0,0.0,0.0,0.0,0.0,0.0,0.0,0.0,0.0,0.0,0.0,0.0,0.0,0.0,0.0,0.0,0.0,0.0,0.0,0.0,0.0,0.0,0.0,0.0,0.0,0.0,0.0,0.0,0.0,0.0,0.0,0.0,0.0,0.0,0.0,0.0,0.0,0.0,0.0,0.0,0.0,0.0,0.0,0.0,0.0,0.0,0.0,-1.8493,-1.87,-1.9076,-1.8852,0.0,0.0,0.0,0.0,0.0,0.0,0.0,0.0,0.0,0.0,0.0,0.0,0.0,0.0,0.0,0.0,0.0,0.0,0.0,0.0,0.0,0.0,0.0,0.0,0.0,0.0,0.0,0.0,0.0,0.0,0.0,0.0,0.0,0.0,0.0,0.0,0.0,0.0,0.0,0.0,0.0,0.0,0.0,0.0,0.0,0.0,0.0,0.0,0.0,0.0,0.0,0.0,0.0,0.0,0.0,0.0,0.0,0.0,0.0,0.0,0.0,0.0,0.0,0.0,0.0,0.0,0.0,0.0,0.0,0.0,0.0,0.0,0.0,0.0,0.0,0.0,0.0,0.0,0.0,0.0,0.0,0.0,0.0,0.0,0.0,0.0,0.0,0.0,0.0,0.0,0.0,0.0,0.0,0.0,0.0,0.0,0.0,0.0,0.0,0.0,0.0,0.0,0.0,0.0,0.0,0.0,0.0,0.0,0.0,0.0,-1.8076,0.0,-1.9112,-1.9413,-1.926,-1.8582,0.0,0.0,0.0,0.0,0.0,0.0,0.0,0.0,0.0,0.0,0.0,0.0,0.0,0.0,0.0,0.0,0.0,0.0,0.0,0.0,0.0,0.0,0.0,0.0,0.0,0.0,0.0,0.0,0.0,0.0,0.0,0.0,0.0,0.0,0.0,0.0,0.0,0.0,0.0,0.0,0.0,0.0,0.0,0.0,0.0,0.0,0.0,0.0,0.0,0.0,0.0,0.0,0.0,0.0,0.0,0.0,0.0,0.0,0.0,0.0,0.0,0.0,0.0,0.0,0.0,0.0,0.0,0.0,0.0,0.0,0.0,0.0,0.0,0.0,0.0,0.0,0.0,0.0,0.0,0.0,0.0,0.0,0.0,0.0,0.0,0.0,0.0,0.0,0.0,0.0,0.0,0.0,0.0,0.0,0.0,0.0,0.0,0.0,0.0,0.0,0.0,0.0,0.0,0.0,0.0,0.0,0.0,0.0,0.0,-1.7857,-1.8722,-2.0131,-1.959,-1.8913,0.0,0.0,0.0,0.0,0.0,0.0,0.0,0.0,0.0,0.0,0.0,0.0,0.0,0.0,0.0,0.0,0.0,0.0,0.0,0.0,0.0,0.0,0.0,0.0,0.0,0.0,0.0,0.0,0.0,0.0,0.0,0.0,0.0,0.0,0.0,0.0,0.0,0.0,0.0,0.0,0.0,0.0,0.0,0.0,0.0,0.0,0.0,0.0,0.0,0.0,0.0,0.0,0.0,0.0,0.0,0.0,0.0,0.0,0.0,0.0,0.0,0.0,0.0,0.0,0.0,0.0,0.0,0.0,0.0,0.0,0.0,0.0,0.0,0.0,0.0,0.0,0.0,0.0,0.0,0.0,0.0,0.0,0.0,0.0,0.0,0.0,0.0,0.0,0.0,0.0,0.0,0.0,0.0,0.0,0.0,0.0,0.0,0.0,0.0,0.0,0.0,0.0,0.0,0.0,0.0,0.0,0.0,0.0,0.0,-1.8708,-1.9092,-1.9515,-2.0019,-1.9799,-1.9107,0.0,0.0,0.0,0.0,0.0,0.0,0.0,0.0,0.0,0.0,0.0,0.0,0.0,0.0,0.0,0.0,0.0,0.0,0.0,0.0,0.0,0.0,0.0,0.0,0.0,0.0,0.0,0.0,0.0,0.0,0.0,0.0,0.0,0.0,0.0,0.0,0.0,0.0,0.0,0.0,0.0,0.0,0.0,0.0,0.0,0.0,0.0,0.0,0.0,0.0,0.0,0.0,0.0,0.0,0.0,0.0,0.0,0.0,0.0,0.0,0.0,0.0,0.0,0.0,0.0,0.0,0.0,0.0,0.0,0.0,0.0,0.0,0.0,0.0,0.0,0.0,0.0,0.0,0.0,0.0,0.0,0.0,0.0,0.0,0.0,0.0,0.0,0.0,0.0,0.0,0.0,0.0,0.0,0.0,0.0,0.0,0.0,0.0,0.0,0.0,0.0,0.0,0.0,0.0,0.0,0.0,0.0,0.0,0.0,-1.9689,0.0,-2.0245,0.0,-1.9993,-1.927,0.0,0.0,0.0,0.0,0.0,0.0,0.0,0.0,0.0,0.0,0.0,0.0,0.0,0.0,0.0,0.0,0.0,0.0,0.0,0.0,0.0,0.0,0.0,0.0,0.0,0.0,0.0,0.0,0.0,0.0,0.0,0.0,0.0,0.0,0.0,0.0,0.0,0.0,0.0,0.0,0.0,0.0,0.0,0.0,0.0,0.0,0.0,0.0,0.0,0.0,0.0,0.0,0.0,0.0,0.0,0.0,0.0,0.0,0.0,0.0,0.0,0.0,0.0,0.0,0.0,0.0,0.0,0.0,0.0,0.0,0.0,0.0,0.0,0.0,0.0,0.0,0.0,0.0,0.0,0.0,0.0,0.0,0.0,0.0,0.0,0.0,0.0,0.0,0.0,0.0,0.0,0.0,0.0,0.0,0.0,0.0,0.0,0.0,0.0,0.0,0.0,0.0,0.0,0.0,0.0,0.0,0.0,0.0,-1.983,-2.0319,-2.0495,-2.0896,-2.1458,-2.0228,-1.9446,0.0,0.0,0.0,0.0,0.0,0.0,0.0,0.0,0.0,0.0,0.0,0.0,0.0,0.0,0.0,0.0,0.0,0.0,0.0,0.0,0.0,0.0,0.0,0.0,0.0,0.0,0.0,0.0,0.0,0.0,0.0,0.0,0.0,0.0,0.0,0.0,0.0,0.0,0.0,0.0,0.0,0.0,0.0,0.0,0.0,0.0,0.0,0.0,0.0,0.0,0.0,0.0,0.0,0.0,0.0,0.0,0.0,0.0,0.0,0.0,0.0,0.0,0.0,0.0,0.0,0.0,0.0,0.0,0.0,0.0,0.0,0.0,0.0,0.0,0.0,0.0,0.0,0.0,0.0,0.0,0.0,0.0,0.0,0.0,0.0,0.0,0.0,0.0,0.0,0.0,0.0,0.0,0.0,0.0,0.0,0.0,0.0,0.0,0.0,0.0,0.0,0.0,0.0,0.0,0.0,0.0,0.0,0.0,0.0,-2.2166,-2.2391,-2.2346,-2.2063,-2.1642,-2.0852,0.0,0.0,0.0,0.0,0.0,0.0,0.0,0.0,0.0,0.0,0.0,0.0,0.0,0.0,0.0,0.0,0.0,0.0,0.0,0.0,0.0,0.0,0.0,0.0,0.0,0.0,0.0,0.0,0.0,0.0,0.0,0.0,0.0,0.0,0.0,0.0,0.0,0.0,0.0,0.0,0.0,0.0,0.0,0.0,0.0,0.0,0.0,0.0,0.0,0.0,0.0,0.0,0.0,0.0,0.0,0.0,0.0,0.0,0.0,0.0,0.0,0.0,0.0,0.0,0.0,0.0,0.0,0.0,0.0,0.0,0.0,0.0,0.0,0.0,0.0,0.0,0.0,0.0,0.0,0.0,0.0,0.0,0.0,0.0,0.0,0.0,0.0,0.0,0.0,0.0,0.0,0.0,0.0,0.0,0.0,0.0,0.0,0.0,0.0,0.0,0.0,0.0,0.0,0.0,0.0,0.0,0.0,0.0,0.0,-2.434,-2.4025,-2.3596,-2.3137,-2.2584,-2.1784,-2.0696,0.0,0.0,0.0,0.0,0.0,0.0,0.0,0.0,0.0,0.0,0.0,0.0,0.0,0.0,0.0,0.0,0.0,0.0,0.0,0.0,0.0,0.0,0.0,0.0,0.0,0.0,0.0,0.0,0.0,0.0,0.0,0.0,0.0,0.0,0.0,0.0,0.0,0.0,0.0,0.0,0.0,0.0,0.0,0.0,0.0,0.0,0.0,0.0,0.0,0.0,0.0,0.0,0.0,0.0,0.0,0.0,0.0,0.0,0.0,0.0,0.0,0.0,0.0,0.0,0.0,0.0,0.0,0.0,0.0,0.0,0.0,0.0,0.0,0.0,0.0,0.0,0.0,0.0,0.0,0.0,0.0,0.0,0.0,0.0,0.0,0.0,0.0,0.0,0.0,0.0,0.0,0.0,0.0,0.0,0.0,0.0,0.0,0.0,0.0,0.0,0.0,0.0,0.0,0.0,0.0,0.0,0.0,0.0,-2.6742,-2.5489,-2.4778,-2.4609,-2.3207,-2.2341,0.0,0.0,0.0,0.0,0.0,0.0,0.0,0.0,0.0,0.0,0.0,0.0,0.0,0.0,0.0,0.0,0.0,0.0,0.0,0.0,0.0,0.0,0.0,0.0,0.0,0.0,0.0,0.0,0.0,0.0,0.0,0.0,0.0,0.0,0.0,0.0,0.0,0.0,0.0,0.0,0.0,0.0,0.0,0.0,0.0,0.0,0.0,0.0,0.0,0.0,0.0,0.0,0.0,0.0,0.0,0.0,0.0,0.0,0.0,0.0,0.0,0.0,0.0,0.0,0.0,0.0,0.0,0.0,0.0,0.0,0.0,0.0,0.0,0.0,0.0,0.0,0.0,0.0,0.0,0.0,0.0,0.0,0.0,0.0,0.0,0.0,0.0,0.0,0.0,0.0,0.0,0.0,0.0,0.0,0.0,0.0,0.0,0.0,0.0,0.0,0.0,0.0,0.0,0.0,0.0,0.0,0.0,0.0,0.0,-2.7486,-2.8247,-2.7824,-2.6183,-2.4694,-2.3604,0.0,0.0,0.0,0.0,0.0,0.0,0.0,0.0,0.0,0.0,0.0,0.0,0.0,0.0,0.0,0.0,0.0,0.0,0.0,0.0,0.0,0.0,0.0,0.0,0.0,0.0,0.0,0.0,0.0,0.0,0.0,0.0,0.0,0.0,0.0,0.0,0.0,0.0,0.0,0.0,0.0,0.0,0.0,0.0,0.0,0.0,0.0,0.0,0.0,0.0,0.0,0.0,0.0,0.0,0.0,0.0,0.0,0.0,0.0,0.0,0.0,0.0,0.0,0.0,0.0,0.0,0.0,0.0,0.0,0.0,0.0,0.0,0.0,0.0,0.0,0.0,0.0,0.0,0.0,0.0,0.0,0.0,0.0,0.0,0.0,0.0,0.0,0.0,0.0,0.0,0.0,0.0,0.0,0.0,0.0,0.0,0.0,0.0,0.0,0.0,0.0,0.0,0.0,0.0,0.0,0.0,0.0,0.0,-2.8315,-2.9668,-3.0866,-3.0717,-2.9094,-2.6691,-2.5037,0.0,0.0,0.0,0.0,0.0,0.0,0.0,0.0,0.0,0.0,0.0,0.0,0.0,0.0,0.0,0.0,0.0,0.0,0.0,0.0,0.0,0.0,0.0,0.0,0.0,0.0,0.0,0.0,0.0,0.0,0.0,0.0,0.0,0.0,0.0,0.0,0.0,0.0,0.0,0.0,0.0,0.0,0.0,0.0,0.0,0.0,0.0,0.0,0.0,0.0,0.0,0.0,0.0,0.0,0.0,0.0,0.0,0.0,0.0,0.0,0.0,0.0,0.0,0.0,0.0,0.0,0.0,0.0,0.0,0.0,0.0,0.0,0.0,0.0,0.0,0.0,0.0,0.0,0.0,0.0,0.0,0.0,0.0,0.0,0.0,0.0,0.0,0.0,0.0,0.0,0.0,0.0,0.0,0.0,0.0,0.0,0.0,0.0,0.0,0.0,0.0,0.0,0.0,0.0,0.0,0.0,0.0,0.0,-3.0296,-3.2479,-3.3322,-3.3389,-3.2581,-2.8856,-2.6438,0.0,0.0,0.0,0.0,0.0,0.0,0.0,0.0,0.0,0.0,0.0,0.0,0.0,0.0,0.0,0.0,0.0,0.0,0.0,0.0,0.0,0.0,0.0,0.0,0.0,0.0,0.0,0.0,0.0,0.0,0.0,0.0,0.0,0.0,0.0,0.0,0.0,0.0,0.0,0.0,0.0,0.0,0.0,0.0,0.0,0.0,0.0,0.0,0.0,0.0,0.0,0.0,0.0,0.0,0.0,0.0,0.0,0.0,0.0,0.0,0.0,0.0,0.0,0.0,0.0,0.0,0.0,0.0,0.0,0.0,0.0,0.0,0.0,0.0,0.0,0.0,0.0,0.0,0.0,0.0,0.0,0.0,0.0,0.0,0.0,0.0,0.0,0.0,0.0,0.0,0.0,0.0,0.0,0.0,0.0,0.0,0.0,0.0,0.0,0.0,0.0,0.0,0.0,0.0,0.0,0.0,0.0,0.0,-3.1799,-3.4003,-3.5368,-3.569,-3.489,-3.0123,-2.7232,0.0,0.0,0.0,0.0,0.0,0.0,0.0,0.0,0.0,0.0,0.0,0.0,0.0,0.0,0.0,0.0,0.0,0.0,0.0,0.0,0.0,0.0,0.0,0.0,0.0,0.0,0.0,0.0,0.0,0.0,0.0,0.0,0.0,0.0,0.0,0.0,0.0,0.0,0.0,0.0,0.0,0.0,0.0,0.0,0.0,0.0,0.0,0.0,-1.8745,0.0,0.0,0.0,0.0,0.0,0.0,0.0,0.0,0.0,0.0,0.0,0.0,0.0,0.0,0.0,0.0,0.0,0.0,0.0,0.0,0.0,0.0,0.0,0.0,0.0,0.0,0.0,0.0,0.0,0.0,0.0,0.0,0.0,0.0,0.0,0.0,0.0,0.0,0.0,0.0,0.0,0.0,0.0,0.0,0.0,0.0,0.0,0.0,0.0,0.0,0.0,0.0,0.0,0.0,0.0,0.0,0.0,0.0,0.0,-3.366,-3.556,-3.7066,-3.7466,-3.658,-3.2946,-2.9956,0.0,0.0,0.0,0.0,0.0,0.0,0.0,0.0,0.0,0.0,0.0,0.0,0.0,0.0,0.0,0.0,0.0,0.0,0.0,0.0,0.0,0.0,0.0,0.0,0.0,0.0,0.0,0.0,0.0,0.0,0.0,0.0,0.0,0.0,0.0,0.0,0.0,0.0,0.0,0.0,0.0,0.0,0.0,0.0,0.0,0.0,0.0,0.0,0.0,0.0,0.0,0.0,0.0,0.0,0.0,0.0,0.0,0.0,0.0,0.0,0.0,0.0,0.0,0.0,0.0,0.0,0.0,0.0,0.0,0.0,0.0,0.0,0.0,0.0,0.0,0.0,0.0,0.0,0.0,0.0,0.0,0.0,0.0,0.0,0.0,0.0,0.0,0.0,0.0,0.0,0.0,0.0,0.0,0.0,0.0,0.0,0.0,0.0,0.0,0.0,0.0,0.0,0.0,0.0,0.0,0.0,0.0,-3.2899,-3.547,-3.7117,-3.8464,-3.8751,-3.7905,-3.5808,-3.3,-2.9467,0.0,0.0,0.0,0.0,0.0,0.0,0.0,0.0,0.0,0.0,0.0,0.0,0.0,0.0,0.0,0.0,0.0,0.0,0.0,0.0,0.0,0.0,0.0,0.0,0.0,0.0,0.0,0.0,0.0,0.0,0.0,0.0,0.0,0.0,0.0,0.0,0.0,0.0,-2.0603,-2.1573,0.0,0.0,0.0,0.0,0.0,0.0,0.0,0.0,-2.0501,0.0,0.0,0.0,0.0,0.0,0.0,0.0,0.0,0.0,0.0,0.0,0.0,0.0,0.0,0.0,0.0,0.0,0.0,0.0,0.0,0.0,0.0,0.0,0.0,0.0,0.0,0.0,0.0,0.0,0.0,0.0,0.0,0.0,0.0,0.0,0.0,0.0,0.0,0.0,0.0,0.0,0.0,0.0,0.0,0.0,0.0,0.0,0.0,0.0,0.0,0.0,0.0,0.0,0.0,0.0,0.0,-3.1718,-3.4184,-3.6485,-3.8565,-3.9469,-3.9259,-3.7939,-3.6276,-3.3998,-3.0937,0.0,0.0,0.0,0.0,0.0,0.0,0.0,0.0,0.0,0.0,0.0,0.0,0.0,0.0,0.0,0.0,0.0,0.0,0.0,0.0,0.0,0.0,0.0,0.0,0.0,0.0,0.0,0.0,0.0,0.0,0.0,0.0,0.0,0.0,0.0,0.0,0.0,0.0,0.0,-2.2816,-2.3477,0.0,0.0,0.0,0.0,0.0,0.0,0.0,0.0,-2.1605,0.0,0.0,0.0,0.0,0.0,0.0,0.0,0.0,0.0,0.0,0.0,0.0,0.0,0.0,0.0,0.0,0.0,0.0,0.0,0.0,0.0,0.0,0.0,0.0,0.0,0.0,0.0,0.0,0.0,0.0,0.0,0.0,0.0,0.0,0.0,0.0,0.0,0.0,0.0,0.0,0.0,0.0,0.0,0.0,0.0,0.0,0.0,0.0,0.0,0.0,0.0,0.0,0.0,0.0,0.0,-3.2831,-3.5825,-3.7889,-3.8971,-3.9723,-3.9402,-3.7922,-3.6045,-3.366,0.0,0.0,0.0,0.0,0.0,0.0,0.0,0.0,0.0,0.0,0.0,0.0,0.0,0.0,0.0,0.0,0.0,0.0,0.0,0.0,0.0,0.0,0.0,0.0,0.0,0.0,0.0,0.0,0.0,0.0,0.0,0.0,0.0,0.0,0.0,0.0,0.0,0.0,0.0,0.0,-2.4268,-2.4875,-2.3487,0.0,0.0,0.0,0.0,0.0,0.0,-2.2521,-2.2378,0.0,0.0,0.0,0.0,0.0,0.0,0.0,0.0,0.0,0.0,0.0,0.0,0.0,0.0,0.0,0.0,0.0,0.0,0.0,0.0,0.0,0.0,0.0,0.0,0.0,0.0,0.0,0.0,0.0,0.0,0.0,0.0,0.0,0.0,0.0,0.0,0.0,0.0,0.0,0.0,0.0,0.0,0.0,0.0,0.0,0.0,0.0,0.0,0.0,0.0,0.0,0.0,0.0,0.0,0.0,-3.388,-3.7246,-3.9097,-3.9225,-3.9791,-3.9334,-3.7719,-3.5605,-3.3034,0.0,0.0,0.0,0.0,0.0,0.0,0.0,0.0,0.0,0.0,0.0,0.0,0.0,0.0,0.0,0.0,0.0,0.0,0.0,0.0,0.0,0.0,0.0,0.0,0.0,0.0,0.0,0.0,0.0,0.0,0.0,0.0,0.0,0.0,0.0,0.0,0.0,0.0,0.0,0.0,0.0,-2.624,-2.5166,-2.4899,0.0,0.0,0.0,0.0,-2.3748,-2.3826,0.0,0.0,0.0,0.0,0.0,0.0,0.0,0.0,0.0,0.0,0.0,0.0,0.0,0.0,0.0,0.0,0.0,0.0,0.0,0.0,0.0,0.0,0.0,0.0,0.0,0.0,0.0,0.0,0.0,0.0,0.0,0.0,0.0,0.0,0.0,0.0,0.0,0.0,0.0,0.0,0.0,0.0,0.0,0.0,0.0,0.0,0.0,0.0,0.0,0.0,0.0,0.0,0.0,0.0,0.0,0.0,-3.5261,-3.7753,-3.9292,-3.9943,-4.0062,-3.9097,-3.6981,-3.5357,-3.2835,0.0,0.0,0.0,0.0,0.0,0.0,0.0,0.0,0.0,0.0,0.0,0.0,0.0,0.0,0.0,0.0,0.0,0.0,0.0,0.0,0.0,0.0,0.0,0.0,0.0,0.0,0.0,0.0,0.0,0.0,0.0,0.0,0.0,0.0,0.0,0.0,0.0,0.0,0.0,0.0,0.0,-2.7754,-2.7666,-2.7093,-2.6651,0.0,0.0,-2.5586,-2.5586,-2.6129,0.0,0.0,0.0,0.0,0.0,0.0,0.0,0.0,0.0,0.0,0.0,0.0,0.0,0.0,0.0,0.0,0.0,0.0,0.0,0.0,0.0,0.0,0.0,0.0,0.0,0.0,0.0,0.0,0.0,0.0,0.0,0.0,0.0,0.0,0.0,0.0,0.0,0.0,0.0,0.0,0.0,0.0,0.0,0.0,0.0,0.0,0.0,0.0,0.0,0.0,0.0,0.0,0.0,0.0,0.0,-3.2337,-3.5549,-3.8244,-3.9774,-4.0096,-4.0113,-3.9046,-3.6863,-3.4895,-3.2341,0.0,0.0,0.0,0.0,0.0,0.0,0.0,0.0,0.0,0.0,0.0,0.0,0.0,0.0,0.0,0.0,0.0,0.0,0.0,0.0,0.0,0.0,0.0,0.0,0.0,0.0,0.0,0.0,0.0,0.0,0.0,0.0,0.0,0.0,0.0,0.0,0.0,0.0,0.0,0.0,0.0,0.0,-2.8672,-2.8688,0.0,0.0,0.0,-2.7267,-2.8137,0.0,0.0,0.0,0.0,0.0,0.0,0.0,0.0,0.0,0.0,0.0,0.0,0.0,0.0,0.0,0.0,0.0,0.0,0.0,0.0,0.0,0.0,0.0,0.0,0.0,0.0,0.0,0.0,0.0,0.0,0.0,0.0,0.0,0.0,0.0,0.0,0.0,0.0,0.0,0.0,0.0,0.0,0.0,0.0,0.0,0.0,0.0,0.0,0.0,0.0,0.0,0.0,0.0,0.0,0.0,0.0,0.0,-3.5295,-3.8464,-4.0113,-4.0096,-3.991,-3.886,-3.6846,-3.459,0.0,0.0,0.0,0.0,0.0,0.0,0.0,0.0,0.0,0.0,0.0,0.0,0.0,0.0,0.0,0.0,0.0,0.0,0.0,0.0,0.0,0.0,0.0,0.0,0.0,0.0,0.0,-1.4952,0.0,0.0,0.0,0.0,0.0,0.0,0.0,0.0,0.0,0.0,0.0,0.0,0.0,0.0,-3.0311,-3.0108,-3.0412,-3.0446,0.0,0.0,-2.9328,-3.0463,-3.1258,-3.1095,0.0,0.0,0.0,0.0,0.0,0.0,0.0,0.0,0.0,0.0,0.0,0.0,0.0,0.0,0.0,0.0,0.0,0.0,0.0,0.0,0.0,0.0,0.0,0.0,0.0,0.0,0.0,0.0,0.0,0.0,0.0,0.0,0.0,0.0,0.0,0.0,0.0,0.0,0.0,0.0,0.0,0.0,0.0,0.0,0.0,0.0,0.0,0.0,0.0,0.0,0.0,0.0,0.0,0.0,0.0,-3.4573,-3.8234,-4.0096,-4.0079,-3.9436,-3.8328,-3.6829,-3.459,-3.1661,0.0,0.0,0.0,0.0,0.0,0.0,0.0,0.0,0.0,0.0,0.0,0.0,0.0,0.0,0.0,0.0,0.0,0.0,0.0,0.0,0.0,0.0,0.0,0.0,0.0,0.0,0.0,0.0,0.0,0.0,0.0,0.0,0.0,0.0,0.0,0.0,0.0,0.0,0.0,0.0,0.0,-3.1613,-3.2933,-3.256,-3.2141,0.0,0.0,-3.2039,-3.2141,-3.2763,-3.2448,-3.0096,0.0,0.0,0.0,0.0,0.0,0.0,0.0,0.0,0.0,0.0,0.0,0.0,0.0,0.0,0.0,0.0,0.0,0.0,0.0,0.0,0.0,0.0,0.0,0.0,0.0,0.0,0.0,0.0,0.0,0.0,0.0,0.0,0.0,0.0,0.0,0.0,0.0,0.0,0.0,0.0,0.0,0.0,0.0,0.0,0.0,0.0,0.0,0.0,0.0,0.0,0.0,0.0,0.0,-3.1089,-3.4493,-3.776,-3.9436,-3.9436,-3.914,-3.8058,-3.6113,-3.4315,-3.1884,0.0,0.0,0.0,0.0,0.0,0.0,0.0,0.0,0.0,0.0,0.0,0.0,0.0,0.0,0.0,0.0,0.0,0.0,0.0,0.0,0.0,0.0,0.0,0.0,0.0,0.0,0.0,0.0,-1.6638,-1.6943,-1.7138,0.0,0.0,0.0,0.0,0.0,0.0,0.0,0.0,0.0,0.0,-3.344,-3.3998,-3.4235,0.0,0.0,-3.4336,-3.4167,-3.3732,-3.3897,-3.3107,-3.0208,-2.7886,0.0,0.0,0.0,0.0,0.0,0.0,0.0,0.0,0.0,0.0,0.0,0.0,0.0,0.0,0.0,0.0,0.0,0.0,0.0,0.0,0.0,0.0,0.0,0.0,0.0,0.0,0.0,0.0,0.0,0.0,0.0,0.0,0.0,0.0,0.0,0.0,0.0,0.0,0.0,0.0,0.0,0.0,0.0,0.0,0.0,0.0,0.0,0.0,0.0,0.0,0.0,0.0,-3.0719,-3.4134,-3.7567,-3.9225,-3.8988,-3.8785,-3.7702,-3.565,-3.4184,-3.2002,0.0,0.0,0.0,0.0,0.0,0.0,0.0,0.0,0.0,0.0,0.0,0.0,0.0,0.0,0.0,0.0,0.0,0.0,0.0,0.0,0.0,0.0,0.0,0.0,0.0,0.0,0.0,0.0,-1.7933,-1.7823,-1.7743,0.0,0.0,0.0,0.0,0.0,0.0,0.0,0.0,0.0,0.0,-3.4252,-3.4472,-3.5334,-3.5876,-3.5633,-3.5785,-3.5622,-3.4641,-3.4489,-3.3478,-3.0566,0.0,0.0,0.0,0.0,0.0,0.0,0.0,0.0,0.0,0.0,0.0,0.0,0.0,0.0,0.0,0.0,0.0,0.0,0.0,0.0,0.0,0.0,0.0,0.0,0.0,0.0,0.0,-2.233,0.0,0.0,-2.2276,0.0,0.0,0.0,0.0,0.0,0.0,0.0,0.0,0.0,0.0,0.0,0.0,0.0,0.0,0.0,0.0,0.0,0.0,0.0,0.0,0.0,0.0,-3.0463,-3.344,-3.777,-3.9706,-3.8988,-3.8294,-3.7195,-3.56,-3.4167,-3.2002,-2.8993,0.0,0.0,0.0,0.0,0.0,0.0,0.0,0.0,0.0,0.0,0.0,0.0,0.0,0.0,0.0,0.0,0.0,0.0,0.0,0.0,0.0,0.0,0.0,0.0,0.0,0.0,-1.9774,-1.927,-1.856,0.0,0.0,0.0,0.0,0.0,0.0,0.0,0.0,0.0,0.0,-3.1562,-3.3694,-3.4387,-3.5797,-3.6491,-3.5718,-3.6248,-3.6237,-3.473,-3.4438,-3.3706,0.0,0.0,0.0,0.0,0.0,0.0,0.0,0.0,0.0,0.0,0.0,0.0,0.0,0.0,0.0,0.0,0.0,0.0,0.0,0.0,0.0,0.0,0.0,0.0,0.0,0.0,0.0,-2.4494,-2.4408,0.0,0.0,0.0,0.0,0.0,0.0,0.0,0.0,0.0,0.0,0.0,-2.933,-2.982,0.0,0.0,0.0,0.0,0.0,0.0,0.0,0.0,0.0,0.0,0.0,0.0,-3.0702,-3.4083,-3.7094,-3.8514,-3.8261,-3.755,-3.6417,-3.4912,-3.3423,-3.0584,-2.6149,0.0,0.0,0.0,0.0,0.0,0.0,0.0,0.0,0.0,0.0,0.0,0.0,0.0,0.0,0.0,0.0,0.0,0.0,0.0,0.0,0.0,0.0,0.0,0.0,0.0,-1.9007,0.0,0.0,0.0,0.0,0.0,0.0,0.0,0.0,0.0,0.0,0.0,-2.8604,-2.96,-3.1427,-3.2916,-3.366,-3.5526,-3.6518,0.0,0.0,0.0,0.0,0.0,0.0,0.0,0.0,0.0,0.0,0.0,0.0,0.0,0.0,-2.5325,-2.4982,-2.4398,-2.3655,-2.2737,0.0,0.0,0.0,0.0,0.0,0.0,0.0,0.0,0.0,0.0,0.0,0.0,0.0,0.0,-2.7029,0.0,-2.5203,0.0,0.0,0.0,0.0,0.0,0.0,0.0,0.0,-3.0581,-3.1816,-3.273,-3.3,-3.3136,0.0,-3.4387,-3.3165,0.0,0.0,0.0,0.0,0.0,0.0,0.0,0.0,-3.0702,-3.4049,-3.662,-3.7787,-3.7516,-3.7066,-3.6084,-3.4523,-3.2835,-2.9941,-2.5778,-2.3968,-2.2023,0.0,0.0,0.0,0.0,0.0,0.0,0.0,0.0,0.0,0.0,0.0,0.0,0.0,0.0,0.0,0.0,0.0,0.0,0.0,0.0,0.0,0.0,0.0,-1.9582,0.0,0.0,0.0,0.0,0.0,0.0,0.0,0.0,0.0,-2.6691,-2.8264,-2.9567,-3.004,-3.136,-3.2564,-3.3305,0.0,0.0,0.0,0.0,0.0,0.0,0.0,-3.2171,-3.1715,-3.163,-3.1638,-3.1633,-3.1938,-3.2064,-3.1765,0.0,0.0,-2.7902,-2.7196,-2.633,-2.4806,-2.4261,-2.3903,-2.3428,-2.4044,-2.4837,0.0,0.0,0.0,0.0,0.0,0.0,0.0,0.0,-3.0548,-2.982,0.0,-2.7554,0.0,0.0,0.0,0.0,0.0,-2.6945,0.0,0.0,-3.4213,-3.5633,-3.5701,-3.64,-3.6812,-3.6897,-3.7516,-3.7036,-3.5363,-3.1275,0.0,0.0,0.0,0.0,0.0,0.0,-3.0482,-3.344,-3.6349,-3.7516,-3.6863,-3.6812,-3.6068,-3.4506,-3.2391,-3.0176,-2.7908,-2.5726,-2.3543,-2.136,-1.9853,0.0,0.0,0.0,0.0,0.0,0.0,0.0,0.0,0.0,0.0,0.0,0.0,0.0,0.0,0.0,0.0,0.0,0.0,0.0,0.0,-2.0754,0.0,0.0,0.0,0.0,0.0,0.0,0.0,0.0,0.0,0.0,-2.7114,-2.8822,-3.014,-3.0173,0.0,0.0,0.0,0.0,-3.6502,-3.5701,-3.6867,-3.7077,-3.4878,-3.4506,-3.4506,-3.4561,0.0,0.0,-3.5195,-3.5335,-3.5096,-3.4263,-3.3566,-3.258,-3.0672,-2.9794,-2.8606,-2.616,-2.5907,-2.5848,-2.5025,-2.5655,-2.6705,-3.7053,0.0,0.0,0.0,0.0,-3.3385,-3.4129,-3.4303,-3.3558,-3.2831,-3.2053,-3.0548,0.0,0.0,0.0,0.0,0.0,0.0,-3.1938,-3.3626,-3.5577,-3.6721,-3.7222,-3.7483,-3.7584,-3.7618,-3.8311,-3.7905,-3.64,-3.4607,-3.1952,-2.8484,0.0,0.0,0.0,0.0,-3.1241,-3.41,-3.6113,-3.7032,-3.6812,-3.6812,-3.6068,-3.4544,-3.2886,-3.0939,-2.8738,-2.6996,-2.5033,-2.2868,-2.1854,0.0,0.0,0.0,0.0,0.0,0.0,0.0,0.0,0.0,0.0,0.0,0.0,0.0,0.0,0.0,0.0,0.0,0.0,0.0,-2.075,-2.1532,-2.1684,0.0,0.0,0.0,0.0,0.0,0.0,0.0,0.0,0.0,-3.0668,-3.0784,-3.1072,0.0,0.0,-3.3355,-3.4083,-3.5695,-3.6502,-3.5718,-3.6468,0.0,-3.5464,-3.5301,-3.5487,-3.6051,-3.7015,-3.7915,-3.8544,-3.8265,-3.7691,-3.6902,-3.5753,-3.424,-3.2281,-3.0951,-2.9544,-2.7753,-2.7304,-2.7178,-2.675,-2.6862,-2.7185,-4.1226,-3.7572,-3.7278,-3.657,-3.5774,-3.7212,-3.8007,-3.821,-3.7466,-3.6755,-3.5955,-3.4506,-3.3034,-3.1546,-3.0478,0.0,0.0,0.0,-3.5131,-3.6332,-3.7821,-3.8616,-3.8768,-3.8768,-3.8768,-3.8785,-3.9233,-3.8826,-3.7652,-3.7178,-3.5368,-3.2219,0.0,0.0,-3.0245,-3.0482,-3.185,-3.4404,-3.569,-3.6491,-3.6812,-3.6812,-3.6084,-3.4539,-3.3359,-3.1701,-2.9534,-2.796,-2.6251,-2.4357,-2.3006,-2.1383,0.0,0.0,0.0,0.0,0.0,0.0,0.0,0.0,0.0,0.0,0.0,-1.7676,-1.7388,0.0,0.0,0.0,-2.0145,-2.1177,-2.2392,-2.2902,0.0,0.0,0.0,0.0,0.0,0.0,0.0,-3.0161,-3.1616,-3.2662,-3.3123,-3.3305,-3.3376,-3.3207,-3.3812,-3.4556,-3.5323,0.0,-3.706,-3.658,-3.7178,-3.7398,-3.6648,-3.6495,-3.6789,-3.7557,-3.8657,-3.9554,-3.9977,-3.9723,-3.9073,-3.8101,-3.7143,-3.5668,-3.3026,-3.1144,-2.9595,-2.837,-2.8291,-2.8273,-2.7893,-2.7867,-2.8015,-4.4507,-4.2999,-4.1715,-4.0414,-3.9383,-4.0756,-4.1739,-4.2298,-4.1637,-4.0934,-4.0155,-3.8834,-3.736,-3.5814,-3.4477,0.0,-3.596,-3.7466,-3.8481,-3.914,-4.0544,-4.0798,-4.013,-4.0096,-4.0079,-4.0011,-4.0011,-3.9639,-3.8903,-3.8802,-3.7753,-3.5616,-3.1495,-3.0431,-3.2242,-3.1667,-3.2341,-3.4477,-3.5301,-3.6113,-3.6965,-3.6863,-3.6101,-3.4624,-3.3812,-3.2408,-3.0294,-2.877,-2.7334,-2.588,-2.3816,-2.1924,-2.0386,0.0,0.0,0.0,0.0,0.0,0.0,0.0,0.0,0.0,0.0,0.0,0.0,0.0,0.0,0.0,-2.2327,0.0,-2.4609,-2.4728,0.0,0.0,0.0,-2.5405,-2.6809,-2.9567,-3.1667,-3.2395,0.0,0.0,-3.4675,-3.5983,-3.6406,-3.5052,-3.5504,-3.6231,-3.6965,-3.7652,-3.8075,-3.8075,-3.8633,-3.8819,-3.8176,-3.8075,-3.8278,-3.8928,-3.9656,-4.0045,-4.0096,-3.9977,-3.9436,-3.8159,-3.7896,-3.6781,-3.3319,-3.1001,-2.9217,-2.8935,-2.9197,-2.9361,-2.8826,-2.8987,-2.9187,-4.7758,-4.7345,-4.6398,-4.4226,-4.1457,-4.2343,-4.2799,-4.2953,-4.2782,-4.2309,-4.1611,-4.125,-4.0188,-3.862,-3.8162,-3.812,-3.8411,-3.9782,-4.0206,-3.991,-4.0764,-4.0815,-4.0113,-4.0113,-3.9808,-3.93,-3.9242,-3.887,-3.8159,-3.7584,-3.7049,-3.644,-3.429,-3.3169,-3.3102,-3.2412,-3.2852,-3.4489,-3.5825,-3.7168,-3.8403,-3.7388,-3.6355,-3.5368,-3.4083,-3.2628,-3.1004,-3.0057,-2.9144,-2.8214,-2.6573,-2.4729,-2.2699,-2.1363,0.0,0.0,0.0,0.0,0.0,0.0,0.0,0.0,0.0,-1.9896,-2.0876,0.0,-2.2009,0.0,-2.4425,-2.5389,-2.6116,-2.6691,0.0,0.0,-2.7131,-2.8299,-2.9211,-3.1427,-3.3169,-3.3901,-3.4793,-3.5571,-3.6186,-3.706,-3.7702,-3.7889,-3.8548,-3.9114,-3.9317,-3.9469,-3.9588,-3.9554,-3.969,-3.9791,-3.9571,-3.9563,-3.9605,-3.9825,-3.9994,-4.0096,-4.0113,-3.9639,-3.8954,-3.8108,-3.7898,-3.669,-3.3912,-3.2371,-3.1662,-3.1493,-3.1104,-3.0638,-3.037,-3.0519,-3.0557,-4.9234,-4.9162,-4.8371,-4.6843,-4.4929,-4.4714,-4.4628,-4.4628,-4.4628,-4.4384,-4.4012,-4.4006,-4.3463,-4.2489,-4.2223,-4.2018,-4.192,-4.2453,-4.2286,-4.161,-4.1982,-4.161,-4.0595,-4.0578,-4.002,-3.8988,-3.8328,-3.7811,-3.7364,-3.6637,-3.6265,-3.6248,-3.5757,-3.5148,-3.4366,-3.3643,-3.3846,-3.4979,-3.6502,-3.7838,-3.8903,-3.7855,-3.6738,-3.5616,-3.4184,-3.2713,-3.1241,-3.0497,-2.9753,-2.8993,-2.7537,-2.5693,-2.3528,-2.2352,-2.1074,0.0,0.0,0.0,0.0,0.0,0.0,0.0,0.0,0.0,0.0,0.0,-2.5017,-2.6843,-2.7368,-2.7909,-2.8619,-2.9381,-2.9516,-2.8789,-3.004,-3.1123,-3.1509,-3.2662,-3.3812,-3.4861,-3.5673,-3.6434,-3.7195,-3.821,-3.9022,-3.9453,-3.9842,-4.0113,-4.0113,-4.0113,-4.0113,-4.0113,-4.0113,-4.0113,-4.0113,-4.0113,-4.0113,-4.0113,-4.0113,-4.0113,-4.0079,-3.9486,-3.8768,-3.8075,-3.7719,-3.6757,-3.4316,-3.3373,-3.2994,-3.2938,-3.2728,-3.2287,-3.1684,-3.1475,-3.1306,-5.0141,-5.0091,-4.9279,-4.8955,-4.8838,-4.7548,-4.679,-4.6519,-4.6501,-4.6519,-4.6519,-4.6519,-4.6324,-4.6013,-4.5513,-4.5148,-4.4827,-4.433,-4.3722,-4.3068,-4.3108,-4.2431,-4.1111,-4.117,-4.0375,-3.8843,-3.7496,-3.6808,-3.6712,-3.5949,-3.5587,-3.5706,-3.635,-3.6344,-3.5667,-3.5006,-3.5108,-3.5887,-3.7222,-3.8311,-3.9089,-3.8328,-3.7229,-3.5769,-3.423,-3.2763,-3.1393,-3.0531,-2.9803,-2.9145,-2.7655,-2.5879,-2.3816,-2.3059,-2.2068,0.0,-2.0796,0.0,0.0,0.0,0.0,0.0,0.0,0.0,0.0,-2.6995,-2.8319,-3.0283,-3.0417,-3.0722,-3.143,-3.2158,-3.2327,-3.1752,-3.2848,-3.3672,-3.3694,-3.3609,-3.4083,-3.543,-3.6299,-3.7083,-3.7821,-3.9157,-4.0096,-4.0062,-4.0079,-4.0113,-4.0113,-4.0113,-4.0113,-4.0113,-4.0113,-4.0113,-4.0113,-4.0113,-4.0146,-4.0214,-4.0163,-4.0113,-4.0087,-3.9478,-3.8751,-3.8058,-3.7493,-3.6548,-3.4766,-3.4418,-3.4247,-3.4162,-3.4235,-3.3949,-3.2898,-3.2442,-3.2006,-5.2538,-5.2465,-5.1682,-5.1352,-5.124,-5.0352,-4.8883,-4.7133,-4.7151,-4.7111,-4.7133,-4.7129,-4.6619,-4.5711,-4.4747,-4.3804,-4.296,-4.1967,-4.1378,-4.1159,-4.1631,-4.1367,-4.0527,-4.0968,-4.0138,-3.8201,-3.7427,-3.6785,-3.6324,-3.5616,-3.5565,-3.6079,-3.6129,-3.6085,-3.5932,0.0,0.0,0.0,-3.777,-3.8548,-3.9791,-3.8582,-3.7483,-3.6552,-3.4506,0.0,-3.2107,-3.0801,-3.0057,-2.9854,-2.8433,0.0,0.0,0.0,0.0,0.0,0.0,0.0,0.0,0.0,0.0,0.0,-2.9971,-2.9972,-2.9571,-3.0931,-3.1931,-3.2248,-3.2186,-3.2412,-3.3077,-3.3723,-3.4015,-3.3931,-3.4675,-3.5177,-3.5182,-3.4658,-3.4641,-3.5481,-3.6315,-3.706,-3.7855,-3.9174,-4.0079,-4.0096,-4.0113,-4.0113,-4.0113,-4.0113,-4.0113,-4.0113,-4.0113,-4.0113,-4.0113,-4.0113,-4.0299,-4.073,-4.0443,-4.0146,-4.0054,-3.9478,-3.8768,-3.8075,-3.7472,-3.7172,-3.706,-3.7167,-3.6743,-3.6224,-3.5795,-3.5164,-3.3846,-3.3879,-3.3945,-5.3185,0.0,-5.2344,-5.2016,0.0,-5.1132,-5.0143,-4.8992,-4.8611,-4.8193,-4.779,-4.779,-4.7016,-4.5593,-4.4431,-4.3113,-4.1696,-4.0547,-4.0122,-4.0418,-4.1278,-4.1448,-4.0999,-4.1884,-4.1222,-3.9235,-3.8322,-3.7616,-3.7068,-3.6512,-3.6357,-3.6591,-3.6748,-3.6599,-3.6272,-3.6308,-3.696,-3.823,-3.8247,-3.8965,-4.0349,-3.9016,-3.7889,-3.7125,-3.4874,0.0,0.0,0.0,0.0,0.0,0.0,0.0,0.0,0.0,0.0,-2.4774,-2.5318,-2.6448,-2.8151,-2.9208,-3.0479,-3.2055,-3.3283,-3.3681,-3.3003,-3.462,-3.5588,-3.5431,-3.5215,-3.5318,-3.5899,-3.6101,-3.618,-3.6214,-3.684,-3.7026,-3.6265,-3.5504,-3.5194,-3.5532,-3.5938,-3.662,-3.777,-3.8836,-3.969,-4.0045,-4.0113,-4.0113,-4.0113,-4.0113,-4.0113,-4.0113,-4.0113,-4.0113,-4.0113,-4.0113,-4.0197,-4.0493,-4.035,-4.0121,-4.0087,-3.9478,-3.887,-3.8481,-3.787,-3.7477,-3.7564,-3.7469,-3.7199,-3.6867,-3.6321,-3.5631,-3.4651,-3.447,-3.4386,-5.3185,-5.313,-5.2491,-5.2215,-5.216,-5.1499,-5.1151,-5.0949,0.0,0.0,0.0,-4.8324,-4.7293,-4.5586,-4.426,-4.2685,-4.0867,-3.9549,-3.9338,-4.0114,-4.1285,-4.1843,-4.1904,-4.3011,-4.2542,-4.0645,-3.9552,-3.88,-3.8332,-3.7854,-3.7499,-3.7339,-3.7583,-3.7363,-3.6681,-3.6761,-3.7443,-3.8608,-3.8734,-3.9522,-4.0961,-3.9678,-3.8695,-3.8087,-3.5728,-3.4037,-3.3108,-3.1543,-3.0257,-2.9281,-2.8647,-2.7661,-2.6346,-2.6586,-2.6838,-2.7036,-2.7647,-2.9071,-3.1373,-3.2388,-3.3446,-3.4711,-3.6006,-3.6535,-3.5988,-3.7525,-3.8415,-3.8216,-3.7996,-3.8014,-3.8396,-3.8227,-3.8108,-3.8091,-3.8633,-3.843,-3.7144,-3.6146,-3.5583,-3.5616,-3.5633,-3.6107,-3.7499,-3.8464,-3.9191,-3.9757,-3.9994,-4.0113,-4.0113,-4.0113,-4.0113,-4.0113,-4.0113,-4.0113,-4.0113,-4.0113,-4.0146,-4.0358,-4.0248,-4.0113,-4.0003,-3.9597,-3.9191,-3.8954,-3.8409,-3.8069,-3.7711,-3.7352,-3.6896,-3.6918,-3.6355,-3.5765,-3.534,-3.4775,-3.444,-5.3185,-5.3185,-5.3075,-5.3041,-5.3002,-5.2913,-5.2472,-5.1701,-5.0253,-4.9114,-4.8324,-4.8324,-4.7368,-4.5681,-4.3979,-4.2232,-4.051,-3.8798,-3.8685,-3.9953,-4.1102,-4.1908,-4.2439,-4.3602,-4.316,-4.133,-4.0635,-4.0088,-3.9626,-3.9119,-3.8725,-3.8484,-3.8302,-3.7791,-3.7085,-3.7265,-3.7914,-3.8918,-3.9213,-4.0108,-4.159,-4.0838,-4.0365,-4.0167,-3.782,-3.6097,-3.502,-3.2918,-3.1045,-2.954,-2.8927,-2.8032,-2.6837,-2.7471,-2.7982,-2.8322,-3.0328,-3.2415,-3.4284,-3.6304,-3.8023,-3.9283,-3.9608,-3.9013,-3.745,-3.8258,-3.8813,-3.8581,-3.8825,-3.8794,-3.8634,-3.8775,-3.8836,-3.8836,-3.8937,-3.865,-3.7821,-3.6535,-3.5684,-3.5667,-3.5616,-3.591,-3.6907,-3.8115,-3.8945,-3.9233,-3.974,-4.0113,-4.0113,-4.0113,-4.0113,-4.0113,-4.0113,-4.0113,-4.0113,-4.0113,-4.0316,-4.095,-4.0468,-4.0113,-4.0104,-3.9969,-3.9665,-3.9123,-3.9101,-3.9046,-3.8679,-3.8253,-3.7486,-3.685,-3.6291,-3.5934,-3.5522,-3.5306,-3.5091,-5.3185,-5.3185,-5.3185,-5.3185,-5.3185,-5.3185,-5.2747,-5.1958,-5.1244,-5.0198,-4.904,-4.8985,-4.7828,-4.5792,-4.4528,-4.3048,-4.1407,-4.0173,-4.0127,-4.1088,-4.2251,-4.3088,-4.3762,-4.4876,-4.4841,-4.3718,-4.3202,-4.2723,-4.2224,-4.1724,-4.1142,-4.0456,-3.9372,-3.8149,-3.697,-3.7109,-3.7564,-3.818,-3.8869,-3.9753,-4.084,-4.0165,-3.9988,-4.0381,-3.8,-3.6604,-3.6355,-3.3792,-3.1968,-3.1113,-3.0217,-2.9473,-2.9029,-2.9417,-3.013,-3.1148,-3.2361,-3.4219,-3.6842,-3.8647,-3.9921,-4.0561,-4.0545,-4.0201,-3.9478,-4.0252,-4.0654,-4.0325,-4.0463,-4.042,-4.003,-3.9775,-3.958,-3.9588,-3.9622,-3.9276,-3.8548,-3.7567,-3.6705,-3.6265,-3.5504,-3.547,-3.666,-3.7388,-3.8176,-3.8836,-3.9614,-4.0096,-4.0113,-4.0113,-4.0113,-4.0113,-4.0113,-4.0113,-4.0113,-4.0113,-4.0265,-4.0603,-4.0333,-4.013,-4.0087,-4.0062,-3.9826,-3.9455,-3.9347,-3.9028,-3.8546,-3.7879,-3.7191,-3.66,-3.6134,-3.5799,-3.5572,-3.5489,-3.525,-5.3185,-5.3185,-5.3185,-5.3185,-5.3185,-5.3185,-5.2858,-5.2289,-5.2252,-5.1353,-4.9978,-4.9702,-4.8306,-4.6214,-4.5333,-4.4195,-4.2873,-4.1992,-4.1983,-4.2649,-4.3661,-4.4491,-4.5153,-4.6127,-4.6354,-4.5871,-4.5353,-4.482,-4.4288,-4.3777,-4.2879,-4.1665,-4.0091,-3.8449,-3.6808,-3.6951,-3.7119,-3.7283,-3.8181,-3.912,-4.0005,-3.9662,-3.9878,-4.0456,-3.8564,-3.756,-3.7769,-3.5313,-3.3641,-3.3114,-3.2092,-3.151,-3.1482,-3.1574,-3.2311,-3.3664,-3.4292,-3.6007,-3.9187,-4.0452,-4.1153,-4.1387,-4.1353,-4.1406,-4.1599,-4.2161,-4.2298,-4.1814,-4.1665,-4.1599,-4.1105,-4.0473,-4.0113,-4.0113,-4.0113,-3.9648,-3.8853,-3.8227,-3.7516,-3.6603,-3.5318,-3.5047,-3.6152,-3.6518,-3.7212,-3.87,-3.9656,-4.0079,-4.0113,-4.0113,-4.0113,-4.0113,-4.0113,-4.0113,-4.0113,-4.0113,-4.013,-4.0113,-4.0113,-4.0113,-4.0087,-3.9977,-3.9755,-3.9463,-3.9001,-3.8439,-3.7854,-3.7237,-3.6616,-3.6101,-3.5831,-3.5653,-3.5537,-3.5489,-3.5175,-5.3185,-5.3185,-5.3185,-5.3185,-5.3185,-5.3185,-5.313,-5.3078,-5.3078,-5.2197,-5.0655,-4.9941,-4.8636,-4.7021,-4.6159,-4.5333,-4.4488,-4.3644,-4.3702,-4.4401,-4.496,-4.5639,-4.6334,-4.6949,-4.6953,-4.6424,-4.5711,-4.5107,-4.4583,-4.3849,-4.2606,-4.092,-3.9973,-3.8702,-3.7198,-3.7161,-3.697,-3.6431,-3.7228,-3.8389,-3.9873,-4.0571,-4.1304,-4.2054,-4.0969,-4.0307,-3.9987,-3.8435,-3.6812,-3.5421,-3.4643,-3.4073,-3.3597,-3.3528,-3.395,-3.4866,-3.6325,-3.856,-4.1552,-4.2104,-4.2436,-4.315,-4.3133,-4.3151,-4.3185,-4.3296,-4.2919,-4.2049,-4.1792,-4.1617,-4.1214,-4.0549,-4.0096,-4.0113,-4.0113,-3.9546,-3.8379,-3.7956,-3.7364,-3.5853,-3.4928,-3.481,-3.5453,-3.5718,-3.6648,-3.8717,-3.9554,-4.0079,-4.0214,-4.013,-4.0113,-4.0113,-4.0113,-4.0113,-4.0113,-4.0113,-4.0113,-4.0113,-4.0113,-4.007,-4.002,-3.9816,-3.9566,-3.9011,-3.849,-3.7825,-3.7086,-3.6461,-3.6148,-3.5797,-3.5572,-3.5522,-3.5504,-3.5489,-3.507,-5.3185,-5.3185,-5.3185,-5.3185,-5.3185,-5.3185,-5.3185,-5.3167,-5.2692,-5.1848,-5.0784,-4.9978,-4.8912,-4.7791,-4.7462,-4.7131,-4.6801,-4.6471,-4.6489,-4.6781,-4.7016,-4.725,-4.7557,-4.7769,-4.7771,-4.7449,-4.6319,-4.5571,-4.5187,-4.4121,-4.2859,-4.1693,-4.0868,-3.9424,-3.7433,-3.6893,-3.6109,-3.4908,-3.6134,-3.711,-3.7826,-3.9019,-4.0286,-4.1352,-4.0685,-4.0589,-4.0997,-3.9344,-3.7911,-3.7189,-3.6149,-3.5444,-3.5293,-3.5293,-3.5862,-3.7151,-3.9184,-4.0891,-4.2213,-4.2727,-4.313,-4.3479,-4.3479,-4.3479,-4.3479,-4.3479,-4.3211,-4.2631,-4.2083,-4.1635,-4.1197,-4.0531,-4.0113,-4.0113,-4.0113,-3.969,-3.8684,-3.7753,-3.6789,-3.5667,-3.4184,-3.3491,-3.4247,-3.5076,-3.6512,-3.8447,-3.9334,-3.9749,-4.0493,-4.04,-4.0113,-4.0113,-4.0113,-4.0113,-4.0113,-4.0113,-4.0113,-4.007,-4.002,-3.9944,-3.9816,-3.9435,-3.9007,-3.8518,-3.7867,-3.7237,-3.6554,-3.6149,-3.5799,-3.5539,-3.5489,-3.5489,-3.5489,-3.5489,-3.5055,-5.3185,-5.3185,-5.3185,-5.3185,-5.3185,-5.3185,-5.3057,-5.2821,-5.2234,-5.1426,-5.0435,-4.9867,-4.9133,-4.8379,-4.8324,-4.8324,-4.8324,-4.8324,-4.8324,-4.8324,-4.8324,-4.8287,-4.8324,-4.8324,-4.8324,-4.8067,-4.6636,-4.5663,-4.5186,-4.4157,-4.3094,-4.2304,-4.1515,-3.99,-3.7694,-3.6886,-3.5789,-3.4468,-3.5771,-3.6725,-3.7147,-3.8303,-3.9698,-4.0893,-4.0496,-4.0835,-4.2193,-4.0493,-3.9453,-3.9369,-3.8149,-3.7509,-3.7606,-3.7624,-3.823,-3.9606,-4.1313,-4.2415,-4.2616,-4.3167,-4.3479,-4.3479,-4.3479,-4.3479,-4.3479,-4.3479,-4.3375,-4.3087,-4.2478,-4.1871,-4.1328,-4.0645,-4.0238,-4.0146,-4.0138,-3.9757,-3.8751,-3.754,-3.644,-3.5334,-3.3575,-3.2581,-3.344,-3.4912,-3.6705,-3.8261,-3.9056,-3.9563,-4.0561,-4.0434,-4.0113,-4.0113,-4.0113,-4.0113,-4.0113,-4.0113,-4.0113,-4.0045,-3.9961,-3.9738,-3.953,-3.8963,-3.8298,-3.7735,-3.7101,-3.6585,-3.6116,-3.5782,-3.5653,-3.5554,-3.5489,-3.5489,-3.5489,-3.5594,-3.5474,-5.3185,-5.3185,-5.3185,-5.3185,-5.3185,-5.3185,-5.2766,-5.2105,-5.1995,-5.1134,-4.9812,-4.9592,-4.9095,-4.8324,-4.8324,-4.8324,-4.8324,-4.8324,-4.8324,-4.8324,-4.8324,-4.8324,-4.8324,-4.8324,-4.8324,-4.8177,-4.6673,-4.5149,-4.3773,-4.357,-4.3075,-4.2323,-4.157,-3.9937,-3.7933,-3.7529,-3.6615,-3.5316,-3.6523,-3.7768,-3.8524,-3.935,-4.0212,-4.104,-4.1077,-4.1774,-4.3076,-4.2563,-4.2031,-4.2067,-4.1115,-4.0728,-4.0802,-4.0765,-4.1113,-4.1919,-4.2213,-4.2671,-4.3277,-4.3442,-4.3479,-4.3479,-4.3479,-4.3479,-4.3479,-4.3479,-4.341,-4.3196,-4.2845,-4.2338,-4.1679,-4.0931,-4.0444,-4.0313,-4.0188,-3.9486,-3.8142,-3.7246,-3.6135,-3.4709,-3.3152,-3.2564,-3.3288,-3.5374,-3.6738,-3.7956,-3.9123,-4.0096,-4.0248,-4.0214,-4.0113,-4.0113,-4.0113,-4.0113,-4.0113,-4.0113,-4.0113,-4.0062,-3.9867,-3.954,-3.8984,-3.8446,-3.769,-3.7041,-3.6569,-3.6101,-3.5701,-3.5522,-3.5522,-3.5489,-3.5489,-3.5489,-3.5489,-3.6058,-3.5953,-5.3185,-5.3185,-5.3185,-5.3185,-5.3185,-5.3185,-5.2747,-5.1958,-5.1444,-5.0637,-4.9647,-4.9022,-4.86,-4.8324,-4.8324,-4.8324,-4.8324,-4.8324,-4.8324,-4.8324,-4.8324,-4.8324,-4.8324,-4.8324,-4.8324,-4.8067,-4.6673,-4.5076,-4.3644,-4.3479,-4.3368,-4.3002,-4.2268,-4.0891,-3.9292,-3.8505,-3.7459,-3.6138,-3.696,-3.7881,-3.8726,-3.9478,-4.0506,-4.1772,-4.1882,-4.2378,-4.3442,-4.2727,-4.2304,-4.2304,-4.1534,-4.1113,-4.115,-4.1607,-4.1992,-4.2304,-4.2782,-4.3185,-4.3442,-4.3479,-4.3479,-4.3479,-4.3479,-4.3479,-4.3479,-4.3479,-4.3445,-4.3304,-4.3069,-4.2653,-4.2113,-4.1298,-4.0689,-4.0483,-4.0237,-3.9512,-3.8091,-3.6806,-3.5453,-3.3964,-3.2527,-3.1901,-3.2886,-3.4257,-3.5983,-3.7635,-3.8768,-3.9681,-4.0476,-4.0451,-4.0028,-4.0096,-4.0113,-4.0113,-4.0113,-4.0113,-4.0087,-3.9986,-3.9807,-3.9319,-3.8816,-3.8084,-3.7356,-3.6708,-3.6193,-3.5863,-3.5554,-3.5489,-3.5489,-3.5489,-3.5489,-3.5489,-3.5489,-3.6133,-3.6103,-5.3185,-5.3185,-5.3185,-5.3185,-5.3185,-5.3185,-5.2601,-5.1628,-5.1022,-5.0178,-4.9205,-4.8563,-4.8324,-4.8324,-4.8324,-4.8324,-4.8324,-4.8324,-4.8324,-4.8324,-4.8324,-4.8324,-4.8324,-4.8324,-4.8324,-4.8067,-4.6673,-4.5076,-4.3644,-4.3479,-4.3479,-4.3424,-4.2708,-4.1479,-4.0081,-3.935,-3.8303,-3.7129,-3.7459,-3.8395,-3.9368,-3.9992,-4.1056,-4.2415,-4.269,-4.2928,-4.3461,-4.2965,-4.269,-4.2598,-4.2158,-4.1882,-4.1956,-4.2396,-4.269,-4.2745,-4.3185,-4.3479,-4.3479,-4.3479,-4.3479,-4.3479,-4.3479,-4.3479,-4.3479,-4.3479,-4.348,-4.3393,-4.3286,-4.2995,-4.25,-4.1725,-4.1059,-4.0707,-4.0328,-3.952,-3.8041,-3.6529,-3.4805,-3.3051,-3.2121,-3.1968,-3.2666,-3.3998,-3.5588,-3.7347,-3.8193,-3.9157,-4.0087,-3.9884,-3.9512,-3.9673,-3.9436,-3.9428,-3.9512,-3.9605,-3.9926,-3.9935,-3.9661,-3.9175,-3.8613,-3.7865,-3.7091,-3.6457,-3.5997,-3.5681,-3.5539,-3.5489,-3.5489,-3.5489,-3.5489,-3.5489,-3.5804,-3.6267,-3.6148,-5.3167,-5.3185,-5.3185,-5.313,-5.3167,-5.3185,-5.2307,-5.1114,-5.0839,-4.9976,-4.871,-4.8361,-4.8324,-4.8324,-4.8324,-4.8324,-4.8324,-4.8324,-4.8324,-4.8324,-4.8324,-4.8324,-4.8324,-4.8324,-4.8159,-4.7994,-4.6617,-4.5057,-4.357,-4.3479,-4.3479,-4.3349,-4.2782,-4.1717,-3.9992,-3.9992,-3.92,-3.8135,-3.8432,-3.9499,-4.0875,-4.1058,-4.1827,-4.3222,-4.3406,-4.3406,-4.3479,-4.346,-4.3387,-4.3406,-4.3387,-4.3442,-4.3277,-4.3369,-4.3442,-4.3387,-4.3479,-4.3479,-4.3479,-4.3479,-4.3479,-4.3479,-4.3479,-4.3479,-4.3479,-4.3479,-4.3479,-4.3497,-4.3463,-4.3304,-4.2845,-4.22,-4.1503,-4.0879,-4.0402,-3.9503,-3.8058,-3.6518,-3.4506,-3.2222,-3.1921,-3.2594,-3.3457,-3.459,-3.5876,-3.6755,-3.7567,-3.8278,-3.8971,-3.865,-3.8396,-3.8599,-3.8616,-3.8582,-3.8785,-3.9039,-3.952,-3.9817,-3.9489,-3.9083,-3.8585,-3.7903,-3.7095,-3.6415,-3.5881,-3.5582,-3.5522,-3.5489,-3.5489,-3.5489,-3.5489,-3.5534,-3.5804,-3.6103,-3.6252,-5.2692,-5.3115,-5.2601,-5.2692,-5.3148,-5.3185,-5.2582,-5.1591,-5.1059,-5.0196,-4.9205,-4.8563,-4.8324,-4.8324,-4.8324,-4.8324,-4.8324,-4.8324,-4.8324,-4.8324,-4.8324,-4.8324,-4.8324,-4.8324,-4.7719,-4.6746,-4.6159,-4.5057,-4.3754,-4.3479,-4.3479,-4.3424,-4.3258,-4.2598,-4.1552,-4.1515,-4.0763,-3.9457,-3.9955,-4.0636,-4.1132,-4.1662,-4.2433,-4.3332,-4.3479,-4.3479,-4.3479,-4.3479,-4.3479,-4.3479,-4.3479,-4.3479,-4.3479,-4.3479,-4.3479,-4.3479,-4.3479,-4.3479,-4.3479,-4.3479,-4.3479,-4.3479,-4.3479,-4.3479,-4.3479,-4.3479,-4.3479,-4.3479,-4.3479,-4.3375,-4.2994,-4.2476,-4.1803,-4.1128,-4.0466,-3.952,-3.7939,-3.6129,-3.4134,-3.253,-3.2611,-3.3339,-3.4083,-3.5109,-3.5876,-3.6626,-3.7347,-3.7956,-3.8108,-3.7973,-3.7669,-3.755,-3.7584,-3.7753,-3.8041,-3.8599,-3.9309,-3.9817,-3.9723,-3.9506,-3.894,-3.8117,-3.7294,-3.6576,-3.6009,-3.5744,-3.5654,-3.5654,-3.5744,-3.5639,-3.5684,-3.5699,-3.5684,-3.6013,-3.6537,-5.2105,-5.227,-5.2087,-5.227,-5.2803,-5.3041,-5.2747,-5.1977,-5.1463,-5.0637,-4.9647,-4.906,-4.8581,-4.8361,-4.8324,-4.8324,-4.8324,-4.8324,-4.8324,-4.8324,-4.8324,-4.8324,-4.8324,-4.8324,-4.7462,-4.6159,-4.5902,-4.5057,-4.357,-4.3479,-4.3479,-4.3479,-4.3479,-4.3057,-4.2378,-4.2249,-4.1497,-4.0249,-4.0636,-4.1113,-4.126,-4.1882,-4.269,-4.3368,-4.3479,-4.3479,-4.3479,-4.3479,-4.3479,-4.3479,-4.3479,-4.3479,-4.3479,-4.3479,-4.3479,-4.3479,-4.3479,-4.3479,-4.3479,-4.3479,-4.3479,-4.3479,-4.3479,-4.3479,-4.3479,-4.3479,-4.3479,-4.3479,-4.3479,-4.341,-4.3123,-4.271,-4.2136,-4.1561,-4.0748,-3.9465,-3.775,-3.5994,-3.4573,-3.3558,-3.3541,-3.4134,-3.4827,-3.525,-3.5769,-3.6349,-3.6755,-3.7263,-3.7297,-3.7212,-3.6891,-3.6688,-3.6772,-3.7026,-3.733,-3.8125,-3.9089,-3.9665,-4.011,-4.0041,-3.9748,-3.8777,-3.7884,-3.7213,-3.6626,-3.6611,-3.6537,-3.6447,-3.6462,-3.6222,-3.6088,-3.6357,-3.6641,-3.715,-3.7509,-5.1465,-5.0912,-5.1555,-5.1811,-5.2013,-5.2656,-5.2491,-5.194,-5.1701,-5.0877,-4.9757,-4.9372,-4.8967,-4.8416,-4.8324,-4.8324,-4.8324,-4.8324,-4.8324,-4.8324,-4.8324,-4.8324,-4.8324,-4.8324,-4.7443,-4.6104,-4.5902,-4.5039,-4.3552,-4.3479,-4.3479,-4.3479,-4.3461,-4.3167,-4.258,-4.2359,-4.157,-4.0396,-4.0836,-4.1224,-4.1187,-4.2011,-4.2727,-4.3442,-4.3479,-4.3479,-4.3479,-4.3479,-4.3479,-4.3479,-4.3479,-4.3479,-4.3479,-4.3479,-4.3479,-4.3479,-4.3479,-4.3479,-4.3479,-4.3479,-4.3479,-4.3479,-4.3479,-4.3479,-4.3479,-4.3479,-4.3479,-4.3479,-4.3479,-4.341,-4.3196,-4.2901,-4.2478,-4.1931,-4.0874,-3.9334,-3.7265,-3.6248,-3.5537,-3.4861,-3.4675,-3.4844,-3.5447,-3.5498,-3.5464,-3.5537,-3.5616,-3.5977,-3.6265,-3.6231,-3.6079,-3.6011,-3.596,-3.6688,-3.7168,-3.8481,-3.9529,-4.0661,-4.095,-4.0861,-4.0423,-3.9377,-3.8331,-3.7682,-3.733,-3.736,-3.727,-3.7075,-3.703,-3.6956,-3.7045,-3.7345,-3.7569,-3.7853,-3.7943,-5.0576,-5.0829,-5.042,-5.0563,-5.1096,-5.1371,-5.1353,-5.1059,-5.0508,-5.0124,-4.9519,-4.8912,-4.86,-4.8324,-4.8324,-4.8324,-4.8324,-4.8324,-4.8324,-4.8324,-4.8324,-4.8324,-4.8324,-4.8288,-4.7462,-4.6122,-4.5883,-4.5076,-4.3589,-4.3515,-4.3479,-4.3479,-4.3479,-4.3406,-4.3147,-4.2598,-4.1809,-4.1038,-4.1589,-4.1662,-4.137,-4.2488,-4.3258,-4.3424,-4.3479,-4.3479,-4.3479,-4.3479,-4.3479,-4.3479,-4.3479,-4.3479,-4.3479,-4.3479,-4.3479,-4.3479,-4.3479,-4.3479,-4.3479,-4.3479,-4.3479,-4.3479,-4.3479,-4.3479,-4.3479,-4.3479,-4.3479,-4.3479,-4.3479,-4.3463,-4.3322,-4.3087,-4.2519,-4.1542,-4.0614,-3.9313,-3.8001,-3.7449,-3.7026,-3.6349,-3.618,-3.5977,-3.5656,-3.525,-3.4912,-3.4878,-3.4945,-3.5013,-3.5453,-3.5723,-3.5735,-3.5216,-3.525,-3.6271,-3.7337,-3.8717,-4.0096,-4.1574,-4.2009,-4.1943,-4.1137,-3.9925,-3.8816,-3.7828,-3.7788,-3.7778,-3.7554,-3.7295,-3.7385,-3.7704,-3.7594,-3.7714,-3.7704,-3.7868,-3.7988,-4.9954,-4.9971,-4.9706,-4.9867,-5.0325,-5.0637,-5.082,-5.0729,-5.0306,-4.9886,-4.9555,-4.9115,-4.8636,-4.8324,-4.8324,-4.8324,-4.8324,-4.8324,-4.8324,-4.8324,-4.8324,-4.8324,-4.8324,-4.8288,-4.7627,-4.6489,-4.6049,-4.5204,-4.414,-4.3681,-4.3497,-4.3479,-4.3479,-4.3479,-4.3441,-4.3057,-4.2213,-4.1515,-4.2121,-4.2286,-4.1315,-4.2671,-4.3369,-4.3479,-4.3479,-4.3479,-4.3479,-4.3479,-4.3479,-4.3479,-4.3479,-4.3479,-4.3479,-4.3479,-4.3479,-4.3479,-4.3479,-4.3479,-4.3479,-4.3479,-4.3479,-4.3479,-4.3479,-4.3479,-4.3479,-4.3479,-4.3479,-4.3479,-4.3479,-4.348,-4.3393,-4.316,-4.2501,-4.1668,-4.0716,-3.9697,-3.8485,-3.8345,-3.8159,-3.7719,-3.7185,-3.6677,-3.6113,-3.5419,-3.4895,-3.4709,-3.4928,-3.5013,-3.5182,-3.5363,-3.5566,-3.5301,-3.5605,-3.6829,-3.8048,-3.9394,-4.0629,-4.2064,-4.2572,-4.2634,-4.1736,-4.0527,-3.9751,-3.8895,-3.8486,-3.8197,-3.8093,-3.8093,-3.8377,-3.8497,-3.8272,-3.8192,-3.8317,-3.8212,-3.8272,-4.9536,-4.8822,-4.9306,-4.954,-4.9632,-5.0254,-5.0401,-5.051,-5.0325,-4.9976,-4.9482,-4.9427,-4.8875,-4.8324,-4.8324,-4.8324,-4.8306,-4.8122,-4.7995,-4.794,-4.7922,-4.7904,-4.7867,-4.8177,-4.7792,-4.7003,-4.6305,-4.5553,-4.469,-4.3956,-4.3608,-4.3534,-4.3479,-4.3479,-4.3406,-4.3314,-4.2506,-4.1589,-4.2213,-4.2249,-4.1517,-4.247,-4.324,-4.3479,-4.3479,-4.3479,-4.3479,-4.3479,-4.3479,-4.3479,-4.3479,-4.3479,-4.3479,-4.3479,-4.3479,-4.3479,-4.3479,-4.3479,-4.3479,-4.3479,-4.3479,-4.3479,-4.3479,-4.3479,-4.3479,-4.3479,-4.3479,-4.3479,-4.3479,-4.3479,-4.3427,-4.3142,-4.2635,-4.1881,-4.1367,-4.0429,-3.946,-3.908,-3.9073,-3.892,-3.7726,-3.7066,-3.6485,-3.5994,-3.5194,-3.4607,-3.4793,-3.4895,-3.5081,-3.5368,-3.5757,-3.6045,-3.6705,-3.7726,-3.8903,-4.0121,-4.1305,-4.2479,-4.2812,-4.2798,-4.2149,-4.1247,-4.0761,-4.0194,-3.9504,-3.9154,-3.9092,-3.9212,-3.917,-3.9185,-3.885,-3.9044,-3.9269,-3.9,-3.896,-4.9449,-4.916,-4.9076,-4.901,-4.8993,-4.9049,-4.9066,-4.9045,-4.895,-4.8857,-4.8618,-4.86,-4.8508,-4.8324,-4.825,-4.8324,-4.8141,-4.7645,-4.7114,-4.667,-4.6633,-4.667,-4.6929,-4.7666,-4.7792,-4.7131,-4.6929,-4.6049,-4.4929,-4.4415,-4.4085,-4.3552,-4.3496,-4.3496,-4.346,-4.2999,-4.2139,-4.135,-4.1589,-4.166,-4.1511,-4.2154,-4.3018,-4.344,-4.3513,-4.3496,-4.3496,-4.3479,-4.3479,-4.3479,-4.3496,-4.3531,-4.3496,-4.3479,-4.3479,-4.3479,-4.3479,-4.3479,-4.3479,-4.3479,-4.3479,-4.3479,-4.3479,-4.3479,-4.3479,-4.3479,-4.3479,-4.3479,-4.3479,-4.3479,-4.3462,-4.3251,-4.2714,-4.2058,-4.1153,-4.0217,-3.9538,-3.9534,-3.9427,-3.8911,-3.8125,-3.7212,-3.6062,-3.5368,-3.4844,-3.459,-3.4641,-3.4742,-3.503,-3.5368,-3.5808,-3.6299,-3.7144,-3.8058,-3.9394,-4.0527,-4.1559,-4.2405,-4.2715,-4.2842,-4.2182,-4.1723,-4.1135,-4.0709,-4.032,-3.999,-3.9441,-3.9206,-3.899,-3.9179,-3.9254,-3.9104,-3.9014,-3.9149,-3.9239,-4.9693,-4.9554,-4.9293,-4.9137,-4.9005,-4.8816,-4.8695,-4.8569,-4.8401,-4.8324,-4.8324,-4.8324,-4.8324,-4.8269,-4.792,-4.7718,-4.7572,-4.7004,-4.6557,-4.6362,-4.634,-4.6357,-4.6343,-4.6889,-4.704,-4.6526,-4.6085,-4.5406,-4.4837,-4.4342,-4.3846,-4.357,-4.3531,-4.36,-4.3634,-4.3225,-4.2721,-4.2234,-4.2274,-4.2163,-4.1628,-4.2514,-4.3215,-4.364,-4.3732,-4.3732,-4.3749,-4.3749,-4.3732,-4.3732,-4.3732,-4.3649,-4.3513,-4.3479,-4.3496,-4.3479,-4.3479,-4.3479,-4.3479,-4.3479,-4.3479,-4.3479,-4.3479,-4.3479,-4.3479,-4.3479,-4.3479,-4.3479,-4.3479,-4.3479,-4.3497,-4.3304,-4.281,-4.1833,-4.0788,-3.9701,-3.8858,-3.8843,-3.8994,-3.8437,-3.7753,-3.684,-3.5876,-3.5165,-3.4844,-3.4759,-3.5115,-3.5216,-3.525,-3.5566,-3.591,-3.6451,-3.7313,-3.8362,-3.9766,-4.0865,-4.1728,-4.2252,-4.2419,-4.2435,-4.2111,-4.1736,-4.1389,-4.0896,-4.032,-3.961,-3.9089,-3.8927,-3.8527,-3.8377,-3.8317,-3.8437,-3.8417,-3.8297,-3.8512,-5.0075,-4.9936,-4.9697,-4.9512,-4.9345,-4.9113,-4.8936,-4.8783,-4.8495,-4.8439,-4.8401,-4.8382,-4.8384,-4.807,-4.7574,-4.7151,-4.6709,-4.6406,-4.605,-4.5892,-4.5957,-4.5938,-4.5951,-4.592,-4.5814,-4.5551,-4.5369,-4.4984,-4.4617,-4.4066,-4.3828,-4.357,-4.36,-4.3699,-4.3798,-4.3873,-4.3497,-4.2899,-4.3208,-4.2969,-4.2019,-4.2861,-4.3457,-4.3774,-4.405,-4.4087,-4.4106,-4.4106,-4.4091,-4.4109,-4.4094,-4.3939,-4.3714,-4.3566,-4.3532,-4.3513,-4.3496,-4.3479,-4.3479,-4.3479,-4.3479,-4.3479,-4.3479,-4.3479,-4.3479,-4.3479,-4.3479,-4.3479,-4.3479,-4.3479,-4.3497,-4.3358,-4.2687,-4.1648,-4.0478,-3.9095,-3.7868,-3.7602,-3.7654,-3.7438,-3.6975,-3.6248,-3.5887,-3.543,-3.5182,-3.5064,-3.5436,-3.5701,-3.5752,-3.5684,-3.596,-3.6231,-3.6941,-3.8024,-3.9411,-4.04,-4.1365,-4.161,-4.183,-4.1767,-4.1671,-4.1276,-4.0861,-4.0649,-4.0071,-3.942,-3.853,-3.7801,-3.7503,-3.7334,-3.7524,-3.7853,-3.7734,-3.7449,-3.7749,-5.0306,-5.0224,-5.0076,-4.9895,-4.9688,-4.9491,-4.9327,-4.9158,-4.8906,-4.8821,-4.8803,-4.8784,-4.8358,-4.7913,-4.7709,-4.6839,-4.5848,-4.5578,-4.5398,-4.5087,-4.5124,-4.5143,-4.5092,-4.4965,-4.4612,-4.4544,-4.4887,-4.5148,-4.4745,-4.4526,-4.4008,-4.3658,-4.3701,-4.3846,-4.4011,-4.4106,-4.3957,-4.3474,-4.3557,-4.3106,-4.2415,-4.2396,-4.3074,-4.3606,-4.4202,-4.446,-4.4493,-4.4493,-4.4506,-4.4506,-4.4506,-4.4397,-4.4188,-4.3923,-4.3734,-4.3617,-4.3513,-4.3479,-4.3479,-4.3479,-4.3479,-4.3479,-4.3479,-4.3479,-4.3479,-4.3479,-4.3479,-4.3479,-4.3479,-4.3479,-4.3479,-4.341,-4.2849,-4.1814,-4.058,-3.9158,-3.7527,-3.6707,-3.6537,-3.6333,-3.5994,-3.5955,-3.596,-3.6045,-3.6113,-3.6011,-3.6129,-3.6417,-3.6552,-3.6163,-3.5842,-3.6096,-3.6417,-3.7618,-3.8903,-3.974,-4.0519,-4.0637,-4.0773,-4.079,-4.0645,-4.0451,-4.0194,-4.0217,-4.004,-3.9548,-3.8479,-3.719,-3.6872,-3.7041,-3.7211,-3.733,-3.7105,-3.6896,-3.718,-5.0542,-5.05,-5.0427,-5.0317,-5.0137,-4.991,-4.9735,-4.9583,-4.934,-4.9196,-4.9064,-4.8746,-4.8353,-4.781,-4.6971,-4.6012,-4.5246,-4.5054,-4.4977,-4.4807,-4.4912,-4.4924,-4.4763,-4.4578,-4.4246,-4.4185,-4.4621,-4.4784,-4.4277,-4.4237,-4.4103,-4.3943,-4.3955,-4.4117,-4.4289,-4.4484,-4.4461,-4.4201,-4.4142,-4.3592,-4.2462,-4.2348,-4.2924,-4.4035,-4.4547,-4.4831,-4.485,-4.485,-4.485,-4.485,-4.485,-4.477,-4.4576,-4.4283,-4.3955,-4.38,-4.36,-4.3479,-4.3479,-4.3479,-4.3479,-4.3479,-4.3479,-4.3479,-4.3479,-4.3479,-4.3479,-4.3479,-4.3479,-4.3479,-4.3479,-4.3463,-4.299,-4.2045,-4.0709,-3.9048,-3.7365,-3.6073,-3.5683,-3.5717,-3.6203,-3.6434,-3.6451,-3.6637,-3.6975,-3.7026,-3.6941,-3.7077,-3.7297,-3.6806,-3.6214,-3.6299,-3.6671,-3.7516,-3.8633,-3.9368,-4.0028,-4.0096,-4.0113,-4.0113,-4.0113,-4.0121,-4.012,-4.0127,-3.9865,-3.9618,-3.8424,-3.7142,-3.695,-3.6695,-3.6559,-3.6454,-3.642,-3.6447,-3.6686,-5.0683,-5.0683,-5.0683,-5.0633,-5.0481,-5.0268,-5.0106,-4.9949,-4.9711,-4.9632,-4.9495,-4.8744,-4.8272,-4.7686,-4.6496,-4.5305,-4.472,-4.485,-4.4992,-4.5105,-4.5186,-4.5197,-4.5082,-4.4879,-4.4565,-4.4221,-4.4322,-4.4079,-4.3987,-4.4035,-4.4055,-4.4147,-4.4318,-4.4484,-4.4643,-4.485,-4.503,-4.5162,-4.5156,-4.4355,-4.3248,-4.2924,-4.3458,-4.4832,-4.5099,-4.5205,-4.5205,-4.5205,-4.5205,-4.5205,-4.5184,-4.5106,-4.4895,-4.4557,-4.425,-4.3974,-4.3666,-4.3513,-4.3479,-4.3479,-4.3479,-4.3479,-4.3479,-4.3479,-4.3479,-4.3479,-4.3479,-4.3479,-4.3479,-4.3479,-4.3479,-4.3479,-4.2965,-4.1945,-4.0556,-3.8995,-3.7323,-3.619,-3.578,-3.6034,-3.6667,-3.7049,-3.7144,-3.7195,-3.7533,-3.777,-3.7702,-3.777,-3.7889,-3.7432,-3.6975,-3.6857,-3.711,-3.7686,-3.8464,-3.9165,-3.974,-4.0079,-4.0096,-4.0113,-4.0113,-4.0113,-4.0104,-4.0126,-3.9986,-3.9594,-3.8315,-3.7377,-3.7124,-3.6753,-3.6048,-3.5756,-3.5964,-3.5941,-3.6028,-5.0683,-5.0683,-5.0683,-5.0653,-5.0582,-5.0407,-5.0317,-5.0255,-5.0082,-5.0038,-4.9955,-4.9068,-4.8263,-4.7331,-4.5962,-4.5201,-4.5084,-4.5135,-4.5201,-4.5292,-4.5351,-4.5332,-4.5253,-4.5132,-4.4838,-4.4538,-4.4576,-4.4351,-4.4188,-4.4217,-4.436,-4.4519,-4.4663,-4.4825,-4.4966,-4.5126,-4.5361,-4.5505,-4.5485,-4.5004,-4.4227,-4.4016,-4.4161,-4.4592,-4.5101,-4.5505,-4.5486,-4.5486,-4.5495,-4.5505,-4.5523,-4.5438,-4.5205,-4.4795,-4.4452,-4.4132,-4.3793,-4.3479,-4.3496,-4.3479,-4.3479,-4.3479,-4.3479,-4.3479,-4.3479,-4.3479,-4.3479,-4.3479,-4.3479,-4.3406,-4.3369,-4.3406,-4.2671,-4.1728,-4.0609,-3.8815,-3.7109,-3.6876,-3.6446,-3.6626,-3.7337,-3.7753,-3.8024,-3.8024,-3.8034,-3.8294,-3.8481,-3.8548,-3.8464,-3.8075,-3.7499,-3.7313,-3.7297,-3.7838,-3.8413,-3.9056,-3.952,-3.9977,-4.0231,-4.0214,-4.0163,-4.018,-4.0163,-4.0138,-4.0027,-3.9804,-3.8936,-3.8165,-3.7519,-3.6921,-3.6445,-3.6053,-3.5748,-3.5666,-3.5579,-5.0683,-5.0683,-5.0683,-5.0692,-5.0643,-5.0603,-5.0553,-5.0521,-5.0478,-5.0446,-5.0158,-4.8971,-4.7726,-4.6529,-4.5581,-4.54,-4.539,-4.539,-4.5429,-4.5467,-4.5495,-4.5475,-4.5457,-4.5321,-4.5094,-4.4922,-4.4905,-4.4905,-4.4676,-4.4599,-4.4714,-4.4881,-4.4992,-4.5074,-4.5222,-4.5342,-4.5476,-4.5405,-4.5163,-4.4951,-4.4883,-4.4624,-4.4547,-4.4989,-4.5421,-4.5556,-4.5594,-4.5594,-4.5594,-4.5594,-4.5594,-4.5514,-4.53,-4.4957,-4.4585,-4.4318,-4.3926,-4.3634,-4.3515,-4.3496,-4.3479,-4.3479,-4.3479,-4.3479,-4.3479,-4.3479,-4.3479,-4.3479,-4.3479,-4.3332,-4.2983,-4.2818,-4.2176,-4.1342,-4.0482,-3.9175,-3.7766,-3.7632,-3.7478,-3.7741,-3.8007,-3.8464,-3.8853,-3.8971,-3.8988,-3.9123,-3.9276,-3.9343,-3.9208,-3.8886,-3.8261,-3.7601,-3.7669,-3.7872,-3.843,-3.9022,-3.9402,-3.9893,-4.0646,-4.0578,-4.0316,-4.0265,-4.0265,-4.0197,-4.0071,-3.9798,-3.9415,-3.9007,-3.8428,-3.7685,-3.6936,-3.6446,-3.6006,-3.5636,-3.5567,-5.0519,-5.0693,-5.0683,-5.0683,-5.0683,-5.0683,-5.0683,-5.0683,-5.0673,-5.0683,-5.0221,-4.8885,-4.7192,-4.5893,-4.5615,-4.5559,-4.5577,-4.5594,-4.5594,-4.5594,-4.5594,-4.5586,-4.5531,-4.5438,-4.5322,-4.5159,-4.5178,-4.5156,-4.5105,-4.5082,-4.5109,-4.5216,-4.5262,-4.5303,-4.5371,-4.5476,-4.5559,-4.5528,-4.5075,-4.5075,-4.5306,-4.4979,-4.5094,-4.5364,-4.5594,-4.5594,-4.5594,-4.5594,-4.5594,-4.5594,-4.5594,-4.5532,-4.5351,-4.5071,-4.4763,-4.4465,-4.4087,-4.3798,-4.3649,-4.3566,-4.3496,-4.3479,-4.3479,-4.3479,-4.3479,-4.3479,-4.3479,-4.3479,-4.3479,-4.3167,-4.2745,-4.2525,-4.1919,-4.1106,-4.0101,-3.914,-3.8351,-3.8137,-3.7975,-3.8001,-3.843,-3.9334,-3.9673,-3.991,-4.0011,-4.0045,-4.0096,-4.013,-3.9926,-3.9597,-3.9056,-3.8345,-3.7939,-3.799,-3.8227,-3.8768,-3.9199,-3.9766,-4.0544,-4.0747,-4.0341,-4.0316,-4.0367,-4.0265,-4.013,-4.0003,-3.9731,-3.9541,-3.9325,-3.8339,-3.7399,-3.6784,-3.6274,-3.5861,-3.5537,-4.9971,-5.0683,-5.0683,-5.0683,-5.0693,-5.0683,-5.0673,-5.0683,-5.0683,-5.0635,-5.0202,-4.8875,-4.7163,-4.5941,-4.5594,-4.5594,-4.5594,-4.5594,-4.571,-4.571,-4.5614,-4.5729,-4.5703,-4.5628,-4.5429,-4.5322,-4.5351,-4.5351,-4.5322,-4.5371,-4.5448,-4.554,-4.5495,-4.5531,-4.554,-4.5559,-4.5577,-4.5575,-4.5364,-4.5364,-4.5556,-4.5441,-4.5498,-4.5518,-4.5594,-4.5594,-4.5594,-4.5594,-4.5594,-4.5594,-4.5594,-4.5531,-4.5381,-4.5169,-4.4915,-4.4599,-4.4213,-4.3936,-4.3798,-4.3617,-4.3496,-4.3479,-4.3479,-4.3479,-4.3479,-4.3479,-4.3479,-4.3479,-4.3479,-4.3386,-4.3092,-4.2727,-4.1974,-4.0884,-3.9829,-3.8833,-3.8352,-3.8555,-3.8402,-3.8312,-3.8802,-3.9673,-3.996,-4.0079,-4.0113,-4.0113,-4.0434,-4.0443,-4.0468,-4.0214,-3.9825,-3.9174,-3.843,-3.8159,-3.7973,-3.8294,-3.8582,-3.9411,-4.0324,-4.0392,-4.018,-4.0282,-4.084,-4.0341,-4.0206,-4.0138,-4.018,-4.0208,-3.9889,-3.8786,-3.7854,-3.7071,-3.6337,-3.5797,-3.5554,-4.9586,-4.9942,-5.0481,-5.0683,-5.0664,-5.0106,-5.0202,-5.0654,-5.0693,-5.0019,-4.9125,-4.8336,-4.7163,-4.5998,-4.5594,-4.5594,-4.5691,-4.6201,-4.6278,-4.6394,-4.6413,-4.6394,-4.6269,-4.5818,-4.555,-4.5495,-4.5504,-4.5532,-4.5504,-4.5531,-4.5568,-4.5586,-4.5594,-4.5594,-4.5594,-4.5594,-4.5594,-4.5594,-4.5594,-4.5594,-4.5594,-4.5594,-4.5594,-4.5594,-4.5594,-4.5594,-4.5594,-4.5594,-4.5594,-4.5594,-4.5594,-4.5513,-4.54,-4.5231,-4.5011,-4.4701,-4.427,-4.4014,-4.3849,-4.3634,-4.3496,-4.3479,-4.3479,-4.3479,-4.3479,-4.3479,-4.3479,-4.3479,-4.3479,-4.3404,-4.2745,-4.2433,-4.1847,-4.0665,-3.9665,-3.8707,-3.8426,-3.874,-3.8684,-3.8523,-3.9146,-3.9977,-4.0079,-4.0096,-4.0113,-4.013,-4.0476,-4.0798,-4.0891,-4.0959,-4.0654,-4.024,-3.9529,-3.9073,-3.8903,-3.8531,-3.8091,-3.9039,-4.0121,-4.029,-4.0451,-4.1314,-4.1602,-4.0951,-4.0477,-4.0637,-4.0823,-4.104,-4.0525,-3.9468,-3.8293,-3.7161,-3.6461,-3.5853,-3.5797,-4.8952,-4.9413,-4.976,-5.0231,-5.0577,-5.0048,-5.0135,-5.0616,-5.0683,-4.9913,-4.8509,-4.8432,-4.7567,-4.6355,-4.599,-4.5768,-4.5825,-4.6105,-4.6374,-4.6394,-4.6355,-4.6509,-4.6297,-4.599,-4.5586,-4.5594,-4.5594,-4.5586,-4.5577,-4.5594,-4.5594,-4.5594,-4.5594,-4.5594,-4.5594,-4.5594,-4.5594,-4.5594,-4.5594,-4.5594,-4.5594,-4.5594,-4.5594,-4.5594,-4.5594,-4.5594,-4.5594,-4.5594,-4.5594,-4.5594,-4.5586,-4.5522,-4.539,-4.522,-4.4988,-4.4662,-4.4322,-4.3999,-4.3832,-4.3652,-4.3496,-4.3479,-4.3479,-4.3479,-4.3479,-4.3479,-4.3479,-4.3479,-4.3478,-4.3258,-4.2598,-4.247,-4.2139,-4.1174,-4.0406,-3.9535,-3.9109,-3.9159,-3.8906,-3.8741,-3.9625,-4.0587,-4.0722,-4.0807,-4.0798,-4.073,-4.0764,-4.1187,-4.1559,-4.1644,-4.1711,-4.1271,-4.0747,-4.0375,-4.0054,-3.9259,-3.8616,-3.9039,-4.002,-4.0612,-4.1035,-4.183,-4.2168,-4.1602,-4.1314,-4.1339,-4.1456,-4.1656,-4.106,-4.0221,-3.8998,-3.7731,-3.7053,-3.6528,-3.639,-4.7952,-4.9221,-4.8586,-4.924,-5.0616,-5.0673,-5.0635,-5.0693,-5.0673,-5.0144,-4.9279,-4.924,-4.8336,-4.7048,-4.6663,-4.6259,-4.5748,-4.5787,-4.5913,-4.6028,-4.6124,-4.5845,-4.5787,-4.5729,-4.5594,-4.5594,-4.5594,-4.5594,-4.5594,-4.5594,-4.5594,-4.5594,-4.5594,-4.5594,-4.5594,-4.5594,-4.5594,-4.5594,-4.5594,-4.5594,-4.5594,-4.5594,-4.5594,-4.5594,-4.5594,-4.5594,-4.5594,-4.5594,-4.5594,-4.5594,-4.5594,-4.5522,-4.541,-4.5231,-4.4992,-4.4707,-4.4299,-4.4026,-4.3897,-4.3632,-4.3513,-4.3496,-4.3479,-4.3479,-4.3479,-4.3479,-4.3479,-4.3479,-4.3479,-4.3479,-4.3149,-4.2892,-4.2525,-4.2017,-4.1282,-4.0854,-4.0478,-4.0002,-3.9887,-3.9645,-4.0487,-4.1367,-4.1502,-4.1593,-4.1627,-4.1525,-4.1271,-4.1542,-4.2134,-4.2523,-4.2692,-4.2286,-4.1796,-4.1153,-4.0612,-3.9648,-3.9191,-3.9512,-3.9901,-4.051,-4.117,-4.183,-4.2016,-4.1965,-4.2066,-4.2049,-4.2141,-4.2293,-4.1666,-4.1017,-3.9678,-3.8524,-3.7813,-3.7195,-3.6971,-4.7548,-4.8548,-4.8836,-4.9625,-5.0539,-5.0067,-5.0144,-5.0654,-5.0625,-5.0202,-4.9529,-4.9413,-4.8471,-4.7336,-4.6913,-4.6567,-4.5902,-4.6355,-4.6471,-4.6471,-4.6451,-4.6471,-4.6336,-4.5941,-4.5633,-4.5594,-4.5594,-4.5594,-4.5594,-4.5594,-4.5594,-4.5594,-4.5594,-4.5594,-4.5594,-4.5594,-4.5594,-4.5594,-4.5594,-4.5594,-4.5594,-4.5594,-4.5594,-4.5594,-4.5594,-4.5594,-4.5594,-4.5594,-4.5594,-4.5594,-4.5594,-4.5531,-4.54,-4.5231,-4.5034,-4.477,-4.4426,-4.4124,-4.3897,-4.3667,-4.3548,-4.3513,-4.3479,-4.3479,-4.3479,-4.3479,-4.3479,-4.3571,-4.3681,-4.3663,-4.3351,-4.3883,-4.3737,-4.3298,-4.2774,-4.2596,-4.2255,-4.1696,-4.1317,-4.0932,-4.1267,-4.1886,-4.2191,-4.2511,-4.2586,-4.2685,-4.2533,-4.254,-4.3014,-4.3521,-4.3836,-4.3284,-4.2726,-4.1965,-4.1187,-4.0426,-3.9749,-3.9791,-4.0062,-4.0409,-4.1085,-4.1863,-4.2185,-4.232,-4.254,-4.2733,-4.2909,-4.2953,-4.2551,-4.1774,-4.0341,-3.9013,-3.8035,-3.7524,-3.73,-4.7086,-4.8125,-4.8702,-4.9644,-5.0519,-5.0067,-5.0192,-5.0654,-5.0693,-5.0366,-4.9962,-4.9846,-4.9144,-4.8125,-4.7702,-4.7298,-4.6586,-4.699,-4.7308,-4.7317,-4.7308,-4.7105,-4.674,-4.6336,-4.5951,-4.5729,-4.5594,-4.5594,-4.5594,-4.5594,-4.5594,-4.5594,-4.5594,-4.5594,-4.5594,-4.5594,-4.5594,-4.5594,-4.5594,-4.5594,-4.5594,-4.5594,-4.5594,-4.5594,-4.5594,-4.5594,-4.5594,-4.5594,-4.5594,-4.5594,-4.5577,-4.5531,-4.54,-4.5231,-4.5045,-4.482,-4.4535,-4.4225,-4.3955,-4.3783,-4.3666,-4.3532,-4.3496,-4.3479,-4.3589,-4.3791,-4.3938,-4.4011,-4.4085,-4.425,-4.4378,-4.5002,-4.4856,-4.4416,-4.4382,-4.4216,-4.3989,-4.3412,-4.2907,-4.2482,-4.2361,-4.2806,-4.3106,-4.3323,-4.3576,-4.3715,-4.3819,-4.3819,-4.3758,-4.413,-4.4479,-4.4028,-4.3538,-4.2861,-4.2117,-4.1407,-4.0747,-4.0197,-4.0299,-4.0527,-4.1255,-4.2049,-4.2354,-4.276,-4.3217,-4.3578,-4.3687,-4.3571,-4.2947,-4.2102,-4.0926,-3.9581,-3.8316,-3.8003,-3.7913,-4.6567,-4.7971,-4.8105,-4.9106,-5.0462,-5.0558,-5.0673,-5.0683,-5.0683,-5.0673,-5.0644,-5.0577,-4.9952,-4.9413,-4.9298,-4.8702,-4.7952,-4.7952,-4.7952,-4.7981,-4.7865,-4.7509,-4.7105,-4.6778,-4.622,-4.5806,-4.5594,-4.5594,-4.5594,-4.5594,-4.5594,-4.5594,-4.5594,-4.5594,-4.5594,-4.5594,-4.5594,-4.5594,-4.5594,-4.5594,-4.5594,-4.5594,-4.5594,-4.5594,-4.5594,-4.5594,-4.5594,-4.5594,-4.5594,-4.5594,-4.5594,-4.5513,-4.5381,-4.5211,-4.5063,-4.4861,-4.4604,-4.436,-4.4114,-4.3983,-4.3783,-4.3635,-4.366,-4.357,-4.3663,-4.4048,-4.436,-4.469,-4.4929,-4.5388,-4.5773,-4.5847,-4.5902,-4.5828,-4.5883,-4.5752,-4.5617,-4.519,-4.4692,-4.4401,-4.4302,-4.4513,-4.4656,-4.4808,-4.4399,-4.4371,-4.4381,-4.4276,-4.4231,-4.4265,-4.4547,-4.453,-4.4062,-4.369,-4.298,-4.21,-4.1356,-4.0646,-4.0544,-4.0781,-4.1525,-4.2134,-4.2591,-4.3149,-4.3978,-4.4339,-4.4232,-4.376,-4.3117,-4.217,-4.1162,-4.0214,-3.8968,-3.8936,-3.888,-4.624,-4.7278,-4.7855,-4.8759,-4.9779,-5.0442,-5.0683,-5.0683,-5.0683,-5.0683,-5.0683,-5.0683,-5.024,-4.9433,-4.9394,-4.8875,-4.8432,-4.8096,-4.8077,-4.8135,-4.8279,-4.7625,-4.7182,-4.6874,-4.6355,-4.5874,-4.5594,-4.5594,-4.5594,-4.5594,-4.5594,-4.5594,-4.5594,-4.5594,-4.5594,-4.5594,-4.5633,-4.5652,-4.5671,-4.5594,-4.5594,-4.5594,-4.5594,-4.5594,-4.5594,-4.5594,-4.5594,-4.5594,-4.5594,-4.5594,-4.5594,-4.554,-4.5476,-4.5322,-4.518,-4.5034,-4.4833,-4.4655,-4.4383,-4.4202,-4.3983,-4.3915,-4.4111,-4.397,-4.3973,-4.4268,-4.4819,-4.526,-4.5773,-4.6214,-4.6471,-4.6562,-4.6691,-4.6764,-4.691,-4.7036,-4.6865,-4.6508,-4.6016,-4.5695,-4.5653,-4.5487,-4.5703,-4.5477,-4.5105,-4.501,-4.4886,-4.4748,-4.4598,-4.4626,-4.4598,-4.4598,-4.4462,-4.4012,-4.3352,-4.2523,-4.1813,-4.1187,-4.0832,-4.0679,-4.1187,-4.183,-4.2658,-4.3453,-4.4164,-4.4496,-4.4519,-4.396,-4.3246,-4.2348,-4.1317,-4.0519,-3.9809,-3.9553,-3.9388,-4.6105,-4.6923,-4.7432,-4.8125,-4.8894,-4.9433,-4.9663,-4.9779,-5.0375,-5.0683,-5.0683,-5.0683,-5.0423,-5.001,-4.9933,-4.9702,-4.926,-4.9298,-4.9298,-4.9221,-4.8644,-4.8125,-4.7625,-4.6971,-4.6374,-4.5883,-4.5594,-4.5594,-4.5594,-4.5594,-4.5594,-4.5594,-4.5594,-4.5594,-4.5594,-4.5633,-4.5864,-4.5874,-4.5855,-4.5652,-4.5633,-4.5633,-4.5594,-4.5594,-4.5594,-4.5594,-4.5594,-4.5594,-4.5594,-4.5594,-4.5594,-4.5577,-4.5541,-4.5457,-4.5429,-4.53,-4.5175,-4.4992,-4.4763,-4.4519,-4.4231,-4.4156,-4.4521,-4.448,-4.4725,-4.5076,-4.5553,-4.5993,-4.6526,-4.6948,-4.7113,-4.726,-4.7425,-4.7553,-4.7883,-4.8213,-4.7972,-4.7638,-4.7254,-4.6855,-4.6603,-4.6349,-4.6194,-4.5937,-4.5716,-4.5537,-4.5283,-4.5059,-4.4858,-4.4682,-4.4626,-4.4598,-4.4513,-4.4265,-4.3572,-4.2844,-4.2049,-4.1136,-4.0138,-4.0172,-4.0747,-4.1542,-4.2388,-4.3335,-4.4293,-4.4479,-4.4598,-4.4006,-4.3276,-4.238,-4.1477,-4.06,-3.9915,-3.9517,-3.9388,-4.6074,-4.6805,-4.6883,-4.745,-4.8057,-4.823,-4.8221,-4.8279,-4.9721,-5.0452,-5.0356,-5.0423,-5.0269,-4.9875,-4.9875,-4.9952,-4.9644,-4.9644,-4.9567,-5.0366,-4.926,-4.8432,-4.7682,-4.724,-4.6432,-4.5864,-4.5594,-4.5594,-4.5594,-4.5594,-4.5594,-4.5594,-4.5594,-4.5594,-4.5594,-4.5594,-4.5922,-4.6471,-4.6201,-4.5922,-4.5845,-4.5768,-4.5671,-4.5594,-4.5594,-4.5594,-4.5594,-4.5594,-4.5594,-4.5594,-4.5594,-4.5586,-4.5586,-4.5577,-4.5568,-4.5541,-4.54,-4.5262,-4.506,-4.4819,-4.4465,-4.4434,-4.4716,-4.4969,-4.5348,-4.592,-4.6397,-4.6672,-4.715,-4.7572,-4.7774,-4.781,-4.7921,-4.7957,-4.8159,-4.8324,-4.8176,-4.7971,-4.7817,-4.7504,-4.7379,-4.7151,-4.6928,-4.6717,-4.6412,-4.6084,-4.5776,-4.5494,-4.5239,-4.4988,-4.4803,-4.4692,-4.4547,-4.4378,-4.3809,-4.3064,-4.2202,-4.1204,-4.0087,-3.9732,-4.0383,-4.1221,-4.2134,-4.3301,-4.4462,-4.4513,-4.4468,-4.3948,-4.3336,-4.2426,-4.1526,-4.0684,-4.0056,-3.9625,-3.9424,-4.5865,-4.6128,-4.6727,-4.7447,-4.8146,-4.8169,-4.8114,-4.8125,-4.849,-4.8721,-4.874,-4.8759,-4.8817,-4.8933,-4.8952,-4.8952,-4.8894,-4.9106,-4.8779,-4.8817,-4.8529,-4.8105,-4.7355,-4.6913,-4.6336,-4.5864,-4.5594,-4.5633,-4.5748,-4.5691,-4.5652,-4.5671,-4.5768,-4.5864,-4.5864,-4.5864,-4.6259,-4.7115,-4.6971,-4.674,-4.6721,-4.6528,-4.6394,-4.5941,-4.5691,-4.5768,-4.5748,-4.5652,-4.5633,-4.5594,-4.5594,-4.5594,-4.5594,-4.5594,-4.5594,-4.5586,-4.5513,-4.541,-4.5262,-4.5057,-4.4695,-4.4819,-4.5124,-4.5554,-4.6065,-4.6728,-4.7168,-4.7388,-4.7663,-4.8067,-4.8324,-4.8324,-4.8324,-4.8324,-4.8324,-4.8324,-4.8324,-4.8286,-4.8228,-4.8151,-4.8072,-4.7893,-4.7648,-4.7396,-4.7115,-4.6763,-4.6401,-4.6088,-4.5843,-4.5554,-4.515,-4.4978,-4.4654,-4.4378,-4.391,-4.3217,-4.232,-4.1525,-4.0527,-4.0248,-4.0113,-4.1339,-4.2625,-4.3673,-4.4581,-4.4598,-4.4468,-4.4109,-4.3413,-4.2583,-4.1868,-4.1109,-4.037,-3.9839,-3.9589,-4.5844,-4.5891,-4.6326,-4.6749,-4.709,-4.7105,-4.705,-4.6999,-4.699,-4.699,-4.7163,-4.7702,-4.8077,-4.8077,-4.8096,-4.8009,-4.8029,-4.8115,-4.8269,-4.8144,-4.7644,-4.7375,-4.6932,-4.6528,-4.6086,-4.5652,-4.5652,-4.571,-4.6028,-4.624,-4.6297,-4.6547,-4.6644,-4.6624,-4.6644,-4.674,-4.7048,-4.799,-4.7913,-4.7932,-4.7846,-4.7605,-4.7317,-4.6759,-4.6663,-4.6547,-4.622,-4.6124,-4.5913,-4.5729,-4.5594,-4.5594,-4.5594,-4.5594,-4.5594,-4.5586,-4.5559,-4.5504,-4.5448,-4.5303,-4.5019,-4.5151,-4.5708,-4.6203,-4.6139,-4.6783,-4.7681,-4.792,-4.7957,-4.8324,-4.8324,-4.8324,-4.8324,-4.8324,-4.8324,-4.8324,-4.8324,-4.8305,-4.8286,-4.8267,-4.819,-4.8131,-4.7913,-4.771,-4.746,-4.7306,-4.6963,-4.6723,-4.6436,-4.6147,-4.5734,-4.5292,-4.5005,-4.4676,-4.4327,-4.3436,-4.2371,-4.161,-4.0865,-4.0612,-4.0544,-4.1897,-4.3166,-4.4045,-4.4598,-4.4598,-4.4412,-4.4155,-4.3726,-4.3047,-4.2332,-4.159,-4.082,-4.0056,-3.9788,-4.5955,-4.5931,-4.5945,-4.5911,-4.5822,-4.5787,-4.5754,-4.5687,-4.5661,-4.5671,-4.5902,-4.7144,-4.7702,-4.7778,-4.7778,-4.7778,-4.7663,-4.7336,-4.7528,-4.7413,-4.6971,-4.6682,-4.6374,-4.6028,-4.5768,-4.5652,-4.5614,-4.6163,-4.6721,-4.6797,-4.7067,-4.7904,-4.8096,-4.8058,-4.8096,-4.8135,-4.8279,-4.8836,-4.9067,-4.9317,-4.9106,-4.8702,-4.824,-4.8105,-4.8038,-4.7721,-4.725,-4.6797,-4.6451,-4.6278,-4.6009,-4.5932,-4.5932,-4.597,-4.5941,-4.597,-4.624,-4.6212,-4.6089,-4.604,-4.5574,-4.5487,-4.6263,-4.6601,-4.6579,-4.7058,-4.7976,-4.8269,-4.8306,-4.8324,-4.8324,-4.8324,-4.8324,-4.8324,-4.8324,-4.8324,-4.8324,-4.8324,-4.8324,-4.8324,-4.8286,-4.8267,-4.8151,-4.7953,-4.7852,-4.7723,-4.7557,-4.7345,-4.7066,-4.6717,-4.6365,-4.5835,-4.5354,-4.5035,-4.4669,-4.3538,-4.2371,-4.1745,-4.1102,-4.0865,-4.0984,-4.2049,-4.3132,-4.4181,-4.4598,-4.4598,-4.4514,-4.4298,-4.3844,-4.3426,-4.274,-4.1997,-4.1111,-4.0393,-3.9935,-4.615,-4.6128,-4.6095,-4.602,-4.5968,-4.5885,-4.5787,-4.5692,-4.5662,-4.5648,-4.5699,-4.5787,-4.6075,-4.6086,-4.6075,-4.621,-4.6479,-4.6364,-4.6152,-4.5941,-4.6297,-4.6067,-4.6056,-4.6278,-4.5748,-4.5768,-4.596,-4.622,-4.7259,-4.724,-4.7375,-4.8221,-4.824,-4.8221,-4.8182,-4.8355,-4.874,-4.9336,-4.9644,-4.974,-5.0067,-4.9567,-4.8759,-4.8432,-4.8077,-4.8009,-4.774,-4.7221,-4.7317,-4.7298,-4.699,-4.6701,-4.6567,-4.6567,-4.6586,-4.6605,-4.6894,-4.7221,-4.7156,-4.7037,-4.6637,-4.6318,-4.6979,-4.7235,-4.7296,-4.7516,-4.8122,-4.8288,-4.8324,-4.8324,-4.8324,-4.8324,-4.8324,-4.8324,-4.8324,-4.8324,-4.8324,-4.8324,-4.8324,-4.8324,-4.8305,-4.8305,-4.8286,-4.817,-4.817,-4.809,-4.807,-4.7852,-4.7645,-4.7335,-4.6968,-4.6389,-4.5784,-4.5249,-4.4807,-4.3474,-4.2388,-4.1796,-4.1322,-4.1068,-4.1238,-4.1948,-4.2997,-4.4225,-4.4581,-4.4598,-4.4485,-4.4429,-4.4184,-4.3756,-4.3125,-4.2396,-4.1478,-4.069,-4.0185]},{"header":{"parameterUnit":"m.s-1","parameterCategory":1,"la1":31.0,"la2":29.5877,"lo1":-88.7671,"lo2":-86.6584,"dy":0.0162,"dx":0.0185,"nx":115,"ny":88,"refTime":"2026-04-21T00:00:00:Z","depth":0,"parameterNumber":3,"parameterNumberName":"V-component_of_WINDS"},"data":[0.0,0.0,0.0,0.0,0.0,0.0,0.0,0.0,0.0,0.0,0.0,0.0,0.0,0.0,0.0,0.0,0.0,0.0,0.0,0.0,0.0,0.0,0.0,0.0,0.0,0.0,0.0,0.0,0.0,0.0,0.0,0.0,0.0,0.0,0.0,0.0,0.0,0.0,0.0,0.0,0.0,0.0,0.0,0.0,0.0,0.0,0.0,0.0,0.0,0.0,0.0,0.0,0.0,0.0,0.0,0.0,0.0,0.0,0.0,0.0,0.0,0.0,0.0,0.0,0.0,0.0,0.0,0.0,0.0,0.0,0.0,0.0,0.0,0.0,0.0,0.0,0.0,0.0,0.0,0.0,0.0,0.0,0.0,0.0,0.0,0.0,0.0,0.0,0.0,0.0,0.0,0.0,0.0,0.0,0.0,0.0,0.0,0.0,0.0,0.0,0.0,0.0,0.0,0.0,0.0,0.0,0.0,0.0,0.0,0.0,0.0,0.0,0.0,0.0,0.0,0.0,0.0,0.0,0.0,0.0,0.0,0.0,0.0,0.0,0.0,0.0,0.0,0.0,0.0,0.0,0.0,0.0,0.0,0.0,0.0,0.0,0.0,0.0,0.0,0.0,0.0,0.0,0.0,0.0,0.0,0.0,0.0,0.0,0.0,0.0,0.0,0.0,0.0,0.0,0.0,0.0,0.0,0.0,0.0,0.0,0.0,0.0,0.0,0.0,0.0,0.0,0.0,0.0,0.0,0.0,0.0,0.0,0.0,0.0,0.0,0.0,0.0,0.0,0.0,0.0,0.0,0.0,0.0,0.0,0.0,0.0,0.0,0.0,0.0,0.0,0.0,0.0,0.0,0.0,0.0,0.0,0.0,0.0,0.0,0.0,0.0,0.0,0.0,0.0,0.0,0.0,0.0,0.0,0.0,0.0,0.0,0.0,0.0,0.0,0.0,0.0,0.0,0.0,0.0,0.0,0.0,0.0,0.0,0.0,0.0,0.0,0.0,0.0,0.0,0.0,0.0,0.0,0.0,0.0,0.0,0.0,0.0,0.0,0.0,0.0,0.0,0.0,0.0,0.0,0.0,0.0,0.0,0.0,0.0,0.0,0.0,0.0,0.0,0.0,0.0,0.0,0.0,0.0,0.0,0.0,0.0,0.0,0.0,0.0,0.0,0.0,0.0,0.0,0.0,0.0,0.0,0.0,0.0,0.0,0.0,0.0,0.0,0.0,0.0,0.0,0.0,0.0,0.0,0.0,0.0,0.0,0.0,0.0,0.0,0.0,0.0,0.0,0.0,0.0,0.0,0.0,0.0,0.0,0.0,0.0,0.0,0.0,0.0,0.0,0.0,0.0,0.0,0.0,0.0,0.0,0.0,0.0,0.0,0.0,0.0,0.0,0.0,0.0,0.0,0.0,0.0,0.0,0.0,0.0,0.0,0.0,0.0,0.0,0.0,0.0,0.0,0.0,0.0,0.0,0.0,0.0,0.0,0.0,0.0,0.0,0.0,0.0,0.0,0.0,0.0,0.0,0.0,0.0,0.0,0.0,0.0,0.0,0.0,0.0,0.0,0.0,0.0,0.0,0.0,0.0,0.0,0.0,0.0,0.0,0.0,0.0,0.0,0.0,0.0,0.0,0.0,0.0,0.0,0.0,0.0,0.0,0.0,0.0,0.0,0.0,0.0,0.0,0.0,0.0,0.0,0.0,0.0,0.0,0.0,0.0,0.0,0.0,0.0,0.0,0.0,0.0,0.0,0.0,0.0,0.0,0.0,0.0,0.0,0.0,0.0,0.0,0.0,0.0,0.0,0.0,0.0,0.0,0.0,0.0,0.0,0.0,0.0,0.0,0.0,0.0,0.0,0.0,0.0,0.0,0.0,0.0,0.0,0.0,0.0,0.0,0.0,0.0,0.0,0.0,0.0,0.0,0.0,0.0,0.0,0.0,0.0,0.0,0.0,0.0,0.0,0.0,0.0,0.0,0.0,0.0,0.0,0.0,0.0,0.0,0.0,0.0,0.0,0.0,0.0,0.0,0.0,0.0,0.0,0.0,0.0,0.0,0.0,0.0,0.0,0.0,0.0,0.0,0.0,0.0,0.0,0.0,0.0,0.0,0.0,0.0,0.0,0.0,0.0,0.0,0.0,0.0,0.0,0.0,0.0,0.0,0.0,0.0,0.0,0.0,0.0,0.0,0.0,0.0,0.0,0.0,0.0,0.0,0.0,0.0,0.0,0.0,0.0,0.0,0.0,0.0,0.0,0.0,0.0,0.0,0.0,0.0,0.0,0.0,0.0,0.0,0.0,0.0,0.0,0.0,0.0,0.0,0.0,0.0,0.0,0.0,0.0,0.0,0.0,0.0,0.0,0.0,0.0,0.0,0.0,0.0,0.0,0.0,0.0,0.0,0.0,0.0,0.0,0.0,0.0,0.0,0.0,0.0,0.0,0.0,0.0,0.0,0.0,0.0,0.0,0.0,0.0,0.0,0.0,0.0,0.0,0.0,0.0,0.0,0.0,0.0,0.0,0.0,0.0,0.0,0.0,0.0,0.0,0.0,0.0,0.0,0.0,0.0,0.0,0.0,0.0,0.0,0.0,0.0,0.0,0.0,0.0,0.0,0.0,0.0,0.0,0.0,0.0,0.0,0.0,0.0,0.0,0.0,0.0,0.0,0.0,0.0,0.0,0.0,0.0,0.0,0.0,0.0,0.0,0.0,0.0,0.0,0.0,0.0,0.0,0.0,0.0,0.0,0.0,0.0,0.0,0.0,0.0,0.0,0.0,0.0,0.0,0.0,0.0,0.0,0.0,0.0,0.0,0.0,0.0,0.0,0.0,0.0,0.0,0.0,0.0,0.0,0.0,0.0,0.0,0.0,0.0,0.0,0.0,0.0,0.0,0.0,0.0,0.0,0.0,0.0,0.0,0.0,0.0,0.0,0.0,0.0,0.0,0.0,0.0,0.0,0.0,0.0,0.0,0.0,0.0,0.0,0.0,0.0,0.0,0.0,0.0,0.0,0.0,0.0,0.0,0.0,0.0,0.0,0.0,0.0,0.0,0.0,0.0,0.0,0.0,0.0,0.0,0.0,0.0,0.0,0.0,0.0,0.0,0.0,0.0,0.0,0.0,0.0,0.0,0.0,0.0,0.0,0.0,0.0,0.0,0.0,0.0,0.0,0.0,0.0,0.0,0.0,0.0,0.0,0.0,0.0,0.0,0.0,0.0,0.0,0.0,0.0,0.0,0.0,0.0,0.0,0.0,0.0,0.0,0.0,0.0,0.0,0.0,0.0,0.0,0.0,0.0,0.0,0.0,0.0,0.0,0.0,0.0,0.0,0.0,0.0,0.0,0.0,0.0,0.0,0.0,0.0,0.0,0.0,0.0,0.0,0.0,0.0,0.0,0.0,0.0,0.0,0.0,0.0,0.0,0.0,0.0,0.0,0.0,0.0,0.0,0.0,0.0,0.0,0.0,0.0,0.0,0.0,0.0,0.0,0.0,0.0,0.0,0.0,0.0,0.0,0.0,0.0,0.0,0.0,0.0,0.0,0.0,0.0,0.0,0.0,0.0,0.0,0.0,0.0,0.0,0.0,0.0,0.0,0.0,0.0,0.0,0.0,0.0,0.0,0.0,0.0,0.0,0.0,0.0,0.0,0.0,0.0,0.0,0.0,0.0,0.0,0.0,0.0,0.0,0.0,0.0,0.0,0.0,0.0,0.0,0.0,0.0,0.0,0.0,0.0,0.0,0.0,0.0,0.0,0.0,0.0,0.0,0.0,0.0,0.0,0.0,0.0,0.0,0.0,0.0,0.0,0.0,0.0,0.0,0.0,0.0,0.0,0.0,0.0,0.0,0.0,0.0,0.0,0.0,0.0,0.0,0.0,0.0,0.0,0.0,0.0,0.0,0.0,0.0,0.0,0.0,0.0,0.0,0.0,0.0,0.0,0.0,0.0,0.0,0.0,0.0,0.0,0.0,0.0,0.0,0.0,0.0,0.0,0.0,0.0,0.0,0.0,0.0,0.0,0.0,0.0,0.0,0.0,0.0,0.0,0.0,0.0,0.0,0.0,0.0,0.0,0.0,0.0,0.0,0.0,0.0,0.0,0.0,0.0,0.0,0.0,0.0,0.0,0.0,0.0,0.0,0.0,0.0,0.0,0.0,0.0,0.0,0.0,0.0,0.0,0.0,0.0,0.0,0.0,0.0,0.0,0.0,0.0,0.0,0.0,0.0,0.0,0.0,0.0,0.0,0.0,0.0,0.0,0.0,0.0,-1.489,0.0,0.0,0.0,0.0,0.0,0.0,0.0,0.0,0.0,0.0,0.0,0.0,0.0,0.0,0.0,0.0,0.0,0.0,0.0,0.0,0.0,0.0,0.0,0.0,0.0,0.0,0.0,0.0,0.0,0.0,0.0,0.0,0.0,0.0,0.0,0.0,0.0,0.0,0.0,0.0,0.0,0.0,0.0,0.0,0.0,0.0,0.0,0.0,0.0,0.0,0.0,0.0,0.0,0.0,0.0,0.0,0.0,0.0,0.0,0.0,0.0,0.0,0.0,0.0,0.0,0.0,0.0,0.0,0.0,0.0,0.0,0.0,0.0,0.0,0.0,0.0,0.0,0.0,0.0,0.0,0.0,0.0,0.0,0.0,0.0,0.0,0.0,0.0,0.0,0.0,0.0,0.0,0.0,0.0,0.0,0.0,0.0,0.0,0.0,0.0,0.0,0.0,0.0,0.0,0.0,0.0,0.0,0.0,0.0,0.0,-1.7039,-1.6718,-1.5853,-1.5389,-1.5304,0.0,0.0,0.0,0.0,0.0,0.0,0.0,0.0,0.0,0.0,0.0,0.0,0.0,0.0,0.0,0.0,0.0,0.0,0.0,0.0,0.0,0.0,0.0,0.0,0.0,0.0,0.0,0.0,0.0,0.0,0.0,0.0,0.0,0.0,0.0,0.0,0.0,0.0,0.0,0.0,0.0,0.0,0.0,0.0,0.0,0.0,0.0,0.0,0.0,0.0,0.0,0.0,0.0,0.0,0.0,0.0,0.0,0.0,0.0,0.0,0.0,0.0,0.0,0.0,0.0,0.0,0.0,0.0,0.0,0.0,0.0,0.0,0.0,0.0,0.0,0.0,0.0,0.0,0.0,0.0,0.0,0.0,0.0,0.0,0.0,0.0,0.0,0.0,0.0,0.0,0.0,0.0,0.0,0.0,0.0,0.0,0.0,0.0,0.0,0.0,0.0,0.0,0.0,0.0,0.0,0.0,0.0,0.0,0.0,0.0,0.0,0.0,-1.5919,-1.5567,-1.5361,0.0,0.0,0.0,0.0,0.0,0.0,0.0,0.0,0.0,0.0,0.0,0.0,0.0,0.0,0.0,0.0,0.0,0.0,0.0,0.0,0.0,0.0,0.0,0.0,0.0,0.0,0.0,0.0,0.0,0.0,0.0,0.0,0.0,0.0,0.0,0.0,0.0,0.0,0.0,0.0,0.0,0.0,0.0,0.0,0.0,0.0,0.0,0.0,0.0,0.0,0.0,0.0,0.0,0.0,0.0,0.0,0.0,0.0,0.0,0.0,0.0,0.0,0.0,0.0,0.0,0.0,0.0,0.0,0.0,0.0,0.0,0.0,0.0,0.0,0.0,0.0,0.0,0.0,0.0,0.0,0.0,0.0,0.0,0.0,0.0,0.0,0.0,0.0,0.0,0.0,0.0,0.0,0.0,0.0,0.0,0.0,0.0,0.0,0.0,0.0,0.0,0.0,0.0,0.0,0.0,0.0,0.0,0.0,0.0,0.0,-1.5985,-1.5789,-1.5718,0.0,-1.4349,0.0,0.0,0.0,0.0,0.0,0.0,0.0,0.0,0.0,0.0,0.0,0.0,0.0,0.0,0.0,0.0,0.0,0.0,0.0,0.0,0.0,0.0,0.0,0.0,0.0,0.0,0.0,0.0,0.0,0.0,0.0,0.0,0.0,0.0,0.0,0.0,0.0,0.0,0.0,0.0,0.0,0.0,0.0,0.0,0.0,0.0,0.0,0.0,0.0,0.0,0.0,0.0,0.0,0.0,0.0,0.0,0.0,0.0,0.0,0.0,0.0,0.0,0.0,0.0,0.0,0.0,0.0,0.0,0.0,0.0,0.0,0.0,0.0,0.0,0.0,0.0,0.0,0.0,0.0,0.0,0.0,0.0,0.0,0.0,0.0,0.0,0.0,0.0,0.0,0.0,0.0,0.0,0.0,0.0,0.0,0.0,0.0,0.0,0.0,0.0,0.0,0.0,0.0,0.0,0.0,0.0,0.0,0.0,0.0,0.0,-1.5969,-1.5726,-1.6007,-1.5819,0.0,0.0,0.0,0.0,0.0,0.0,0.0,0.0,0.0,0.0,0.0,0.0,0.0,0.0,0.0,0.0,0.0,0.0,0.0,0.0,0.0,0.0,0.0,0.0,0.0,0.0,0.0,0.0,0.0,0.0,0.0,0.0,0.0,0.0,0.0,0.0,0.0,0.0,0.0,0.0,0.0,0.0,0.0,0.0,0.0,0.0,0.0,0.0,0.0,0.0,0.0,0.0,0.0,0.0,0.0,0.0,0.0,0.0,0.0,0.0,0.0,0.0,0.0,0.0,0.0,0.0,0.0,0.0,0.0,0.0,0.0,0.0,0.0,0.0,0.0,0.0,0.0,0.0,0.0,0.0,0.0,0.0,0.0,0.0,0.0,0.0,0.0,0.0,0.0,0.0,0.0,0.0,0.0,0.0,0.0,0.0,0.0,0.0,0.0,0.0,0.0,0.0,0.0,0.0,0.0,0.0,0.0,0.0,0.0,0.0,-1.5853,0.0,-1.572,-1.5968,-1.5877,-1.5318,0.0,0.0,0.0,0.0,0.0,0.0,0.0,0.0,0.0,0.0,0.0,0.0,0.0,0.0,0.0,0.0,0.0,0.0,0.0,0.0,0.0,0.0,0.0,0.0,0.0,0.0,0.0,0.0,0.0,0.0,0.0,0.0,0.0,0.0,0.0,0.0,0.0,0.0,0.0,0.0,0.0,0.0,0.0,0.0,0.0,0.0,0.0,0.0,0.0,0.0,0.0,0.0,0.0,0.0,0.0,0.0,0.0,0.0,0.0,0.0,0.0,0.0,0.0,0.0,0.0,0.0,0.0,0.0,0.0,0.0,0.0,0.0,0.0,0.0,0.0,0.0,0.0,0.0,0.0,0.0,0.0,0.0,0.0,0.0,0.0,0.0,0.0,0.0,0.0,0.0,0.0,0.0,0.0,0.0,0.0,0.0,0.0,0.0,0.0,0.0,0.0,0.0,0.0,0.0,0.0,0.0,0.0,0.0,0.0,-1.4786,-1.4959,-1.5728,-1.5374,-1.4876,0.0,0.0,0.0,0.0,0.0,0.0,0.0,0.0,0.0,0.0,0.0,0.0,0.0,0.0,0.0,0.0,0.0,0.0,0.0,0.0,0.0,0.0,0.0,0.0,0.0,0.0,0.0,0.0,0.0,0.0,0.0,0.0,0.0,0.0,0.0,0.0,0.0,0.0,0.0,0.0,0.0,0.0,0.0,0.0,0.0,0.0,0.0,0.0,0.0,0.0,0.0,0.0,0.0,0.0,0.0,0.0,0.0,0.0,0.0,0.0,0.0,0.0,0.0,0.0,0.0,0.0,0.0,0.0,0.0,0.0,0.0,0.0,0.0,0.0,0.0,0.0,0.0,0.0,0.0,0.0,0.0,0.0,0.0,0.0,0.0,0.0,0.0,0.0,0.0,0.0,0.0,0.0,0.0,0.0,0.0,0.0,0.0,0.0,0.0,0.0,0.0,0.0,0.0,0.0,0.0,0.0,0.0,0.0,0.0,-1.4915,-1.4387,-1.4309,-1.4679,-1.455,-1.4074,0.0,0.0,0.0,0.0,0.0,0.0,0.0,0.0,0.0,0.0,0.0,0.0,0.0,0.0,0.0,0.0,0.0,0.0,0.0,0.0,0.0,0.0,0.0,0.0,0.0,0.0,0.0,0.0,0.0,0.0,0.0,0.0,0.0,0.0,0.0,0.0,0.0,0.0,0.0,0.0,0.0,0.0,0.0,0.0,0.0,0.0,0.0,0.0,0.0,0.0,0.0,0.0,0.0,0.0,0.0,0.0,0.0,0.0,0.0,0.0,0.0,0.0,0.0,0.0,0.0,0.0,0.0,0.0,0.0,0.0,0.0,0.0,0.0,0.0,0.0,0.0,0.0,0.0,0.0,0.0,0.0,0.0,0.0,0.0,0.0,0.0,0.0,0.0,0.0,0.0,0.0,0.0,0.0,0.0,0.0,0.0,0.0,0.0,0.0,0.0,0.0,0.0,0.0,0.0,0.0,0.0,0.0,0.0,0.0,-1.4403,0.0,-1.3784,0.0,-1.3773,-1.3306,0.0,0.0,0.0,0.0,0.0,0.0,0.0,0.0,0.0,0.0,0.0,0.0,0.0,0.0,0.0,0.0,0.0,0.0,0.0,0.0,0.0,0.0,0.0,0.0,0.0,0.0,0.0,0.0,0.0,0.0,0.0,0.0,0.0,0.0,0.0,0.0,0.0,0.0,0.0,0.0,0.0,0.0,0.0,0.0,0.0,0.0,0.0,0.0,0.0,0.0,0.0,0.0,0.0,0.0,0.0,0.0,0.0,0.0,0.0,0.0,0.0,0.0,0.0,0.0,0.0,0.0,0.0,0.0,0.0,0.0,0.0,0.0,0.0,0.0,0.0,0.0,0.0,0.0,0.0,0.0,0.0,0.0,0.0,0.0,0.0,0.0,0.0,0.0,0.0,0.0,0.0,0.0,0.0,0.0,0.0,0.0,0.0,0.0,0.0,0.0,0.0,0.0,0.0,0.0,0.0,0.0,0.0,0.0,-1.4341,-1.3641,-1.3373,-1.3473,-1.3935,-1.3105,-1.2659,0.0,0.0,0.0,0.0,0.0,0.0,0.0,0.0,0.0,0.0,0.0,0.0,0.0,0.0,0.0,0.0,0.0,0.0,0.0,0.0,0.0,0.0,0.0,0.0,0.0,0.0,0.0,0.0,0.0,0.0,0.0,0.0,0.0,0.0,0.0,0.0,0.0,0.0,0.0,0.0,0.0,0.0,0.0,0.0,0.0,0.0,0.0,0.0,0.0,0.0,0.0,0.0,0.0,0.0,0.0,0.0,0.0,0.0,0.0,0.0,0.0,0.0,0.0,0.0,0.0,0.0,0.0,0.0,0.0,0.0,0.0,0.0,0.0,0.0,0.0,0.0,0.0,0.0,0.0,0.0,0.0,0.0,0.0,0.0,0.0,0.0,0.0,0.0,0.0,0.0,0.0,0.0,0.0,0.0,0.0,0.0,0.0,0.0,0.0,0.0,0.0,0.0,0.0,0.0,0.0,0.0,0.0,0.0,0.0,-1.3952,-1.3587,-1.336,-1.3224,-1.2939,-1.2622,0.0,0.0,0.0,0.0,0.0,0.0,0.0,0.0,0.0,0.0,0.0,0.0,0.0,0.0,0.0,0.0,0.0,0.0,0.0,0.0,0.0,0.0,0.0,0.0,0.0,0.0,0.0,0.0,0.0,0.0,0.0,0.0,0.0,0.0,0.0,0.0,0.0,0.0,0.0,0.0,0.0,0.0,0.0,0.0,0.0,0.0,0.0,0.0,0.0,0.0,0.0,0.0,0.0,0.0,0.0,0.0,0.0,0.0,0.0,0.0,0.0,0.0,0.0,0.0,0.0,0.0,0.0,0.0,0.0,0.0,0.0,0.0,0.0,0.0,0.0,0.0,0.0,0.0,0.0,0.0,0.0,0.0,0.0,0.0,0.0,0.0,0.0,0.0,0.0,0.0,0.0,0.0,0.0,0.0,0.0,0.0,0.0,0.0,0.0,0.0,0.0,0.0,0.0,0.0,0.0,0.0,0.0,0.0,0.0,-1.4553,-1.4011,-1.3623,-1.3324,-1.3071,-1.2736,-1.2466,0.0,0.0,0.0,0.0,0.0,0.0,0.0,0.0,0.0,0.0,0.0,0.0,0.0,0.0,0.0,0.0,0.0,0.0,0.0,0.0,0.0,0.0,0.0,0.0,0.0,0.0,0.0,0.0,0.0,0.0,0.0,0.0,0.0,0.0,0.0,0.0,0.0,0.0,0.0,0.0,0.0,0.0,0.0,0.0,0.0,0.0,0.0,0.0,0.0,0.0,0.0,0.0,0.0,0.0,0.0,0.0,0.0,0.0,0.0,0.0,0.0,0.0,0.0,0.0,0.0,0.0,0.0,0.0,0.0,0.0,0.0,0.0,0.0,0.0,0.0,0.0,0.0,0.0,0.0,0.0,0.0,0.0,0.0,0.0,0.0,0.0,0.0,0.0,0.0,0.0,0.0,0.0,0.0,0.0,0.0,0.0,0.0,0.0,0.0,0.0,0.0,0.0,0.0,0.0,0.0,0.0,0.0,0.0,-1.5439,-1.4679,-1.427,-1.4172,-1.3398,-1.3061,0.0,0.0,0.0,0.0,0.0,0.0,0.0,0.0,0.0,0.0,0.0,0.0,0.0,0.0,0.0,0.0,0.0,0.0,0.0,0.0,0.0,0.0,0.0,0.0,0.0,0.0,0.0,0.0,0.0,0.0,0.0,0.0,0.0,0.0,0.0,0.0,0.0,0.0,0.0,0.0,0.0,0.0,0.0,0.0,0.0,0.0,0.0,0.0,0.0,0.0,0.0,0.0,0.0,0.0,0.0,0.0,0.0,0.0,0.0,0.0,0.0,0.0,0.0,0.0,0.0,0.0,0.0,0.0,0.0,0.0,0.0,0.0,0.0,0.0,0.0,0.0,0.0,0.0,0.0,0.0,0.0,0.0,0.0,0.0,0.0,0.0,0.0,0.0,0.0,0.0,0.0,0.0,0.0,0.0,0.0,0.0,0.0,0.0,0.0,0.0,0.0,0.0,0.0,0.0,0.0,0.0,0.0,0.0,0.0,-1.5909,-1.6309,-1.6064,-1.5079,-1.4221,-1.3765,0.0,0.0,0.0,0.0,0.0,0.0,0.0,0.0,0.0,0.0,0.0,0.0,0.0,0.0,0.0,0.0,0.0,0.0,0.0,0.0,0.0,0.0,0.0,0.0,0.0,0.0,0.0,0.0,0.0,0.0,0.0,0.0,0.0,0.0,0.0,0.0,0.0,0.0,0.0,0.0,0.0,0.0,0.0,0.0,0.0,0.0,0.0,0.0,0.0,0.0,0.0,0.0,0.0,0.0,0.0,0.0,0.0,0.0,0.0,0.0,0.0,0.0,0.0,0.0,0.0,0.0,0.0,0.0,0.0,0.0,0.0,0.0,0.0,0.0,0.0,0.0,0.0,0.0,0.0,0.0,0.0,0.0,0.0,0.0,0.0,0.0,0.0,0.0,0.0,0.0,0.0,0.0,0.0,0.0,0.0,0.0,0.0,0.0,0.0,0.0,0.0,0.0,0.0,0.0,0.0,0.0,0.0,0.0,-1.6348,-1.7129,-1.7866,-1.7734,-1.6755,-1.5371,-1.4564,0.0,0.0,0.0,0.0,0.0,0.0,0.0,0.0,0.0,0.0,0.0,0.0,0.0,0.0,0.0,0.0,0.0,0.0,0.0,0.0,0.0,0.0,0.0,0.0,0.0,0.0,0.0,0.0,0.0,0.0,0.0,0.0,0.0,0.0,0.0,0.0,0.0,0.0,0.0,0.0,0.0,0.0,0.0,0.0,0.0,0.0,0.0,0.0,0.0,0.0,0.0,0.0,0.0,0.0,0.0,0.0,0.0,0.0,0.0,0.0,0.0,0.0,0.0,0.0,0.0,0.0,0.0,0.0,0.0,0.0,0.0,0.0,0.0,0.0,0.0,0.0,0.0,0.0,0.0,0.0,0.0,0.0,0.0,0.0,0.0,0.0,0.0,0.0,0.0,0.0,0.0,0.0,0.0,0.0,0.0,0.0,0.0,0.0,0.0,0.0,0.0,0.0,0.0,0.0,0.0,0.0,0.0,0.0,-1.7447,-1.8705,-1.9238,-1.9277,-1.8763,-1.666,-1.5341,0.0,0.0,0.0,0.0,0.0,0.0,0.0,0.0,0.0,0.0,0.0,0.0,0.0,0.0,0.0,0.0,0.0,0.0,0.0,0.0,0.0,0.0,0.0,0.0,0.0,0.0,0.0,0.0,0.0,0.0,0.0,0.0,0.0,0.0,0.0,0.0,0.0,0.0,0.0,0.0,0.0,0.0,0.0,0.0,0.0,0.0,0.0,0.0,0.0,0.0,0.0,0.0,0.0,0.0,0.0,0.0,0.0,0.0,0.0,0.0,0.0,0.0,0.0,0.0,0.0,0.0,0.0,0.0,0.0,0.0,0.0,0.0,0.0,0.0,0.0,0.0,0.0,0.0,0.0,0.0,0.0,0.0,0.0,0.0,0.0,0.0,0.0,0.0,0.0,0.0,0.0,0.0,0.0,0.0,0.0,0.0,0.0,0.0,0.0,0.0,0.0,0.0,0.0,0.0,0.0,0.0,0.0,0.0,-1.8359,-1.9582,-2.042,-2.0605,-2.0194,-1.7435,-1.5762,0.0,0.0,0.0,0.0,0.0,0.0,0.0,0.0,0.0,0.0,0.0,0.0,0.0,0.0,0.0,0.0,0.0,0.0,0.0,0.0,0.0,0.0,0.0,0.0,0.0,0.0,0.0,0.0,0.0,0.0,0.0,0.0,0.0,0.0,0.0,0.0,0.0,0.0,0.0,0.0,0.0,0.0,0.0,0.0,0.0,0.0,0.0,0.0,-1.6952,0.0,0.0,0.0,0.0,0.0,0.0,0.0,0.0,0.0,0.0,0.0,0.0,0.0,0.0,0.0,0.0,0.0,0.0,0.0,0.0,0.0,0.0,0.0,0.0,0.0,0.0,0.0,0.0,0.0,0.0,0.0,0.0,0.0,0.0,0.0,0.0,0.0,0.0,0.0,0.0,0.0,0.0,0.0,0.0,0.0,0.0,0.0,0.0,0.0,0.0,0.0,0.0,0.0,0.0,0.0,0.0,0.0,0.0,0.0,-1.9434,-2.0479,-2.1346,-2.1631,-2.1173,-1.9069,-1.7295,0.0,0.0,0.0,0.0,0.0,0.0,0.0,0.0,0.0,0.0,0.0,0.0,0.0,0.0,0.0,0.0,0.0,0.0,0.0,0.0,0.0,0.0,0.0,0.0,0.0,0.0,0.0,0.0,0.0,0.0,0.0,0.0,0.0,0.0,0.0,0.0,0.0,0.0,0.0,0.0,0.0,0.0,0.0,0.0,0.0,0.0,0.0,0.0,0.0,0.0,0.0,0.0,0.0,0.0,0.0,0.0,0.0,0.0,0.0,0.0,0.0,0.0,0.0,0.0,0.0,0.0,0.0,0.0,0.0,0.0,0.0,0.0,0.0,0.0,0.0,0.0,0.0,0.0,0.0,0.0,0.0,0.0,0.0,0.0,0.0,0.0,0.0,0.0,0.0,0.0,0.0,0.0,0.0,0.0,0.0,0.0,0.0,0.0,0.0,0.0,0.0,0.0,0.0,0.0,0.0,0.0,0.0,-1.8994,-2.0478,-2.1375,-2.2207,-2.2373,-2.1885,-2.0674,-1.9053,-1.697,0.0,0.0,0.0,0.0,0.0,0.0,0.0,0.0,0.0,0.0,0.0,0.0,0.0,0.0,0.0,0.0,0.0,0.0,0.0,0.0,0.0,0.0,0.0,0.0,0.0,0.0,0.0,0.0,0.0,0.0,0.0,0.0,0.0,0.0,0.0,0.0,0.0,0.0,-1.7135,-1.7862,0.0,0.0,0.0,0.0,0.0,0.0,0.0,0.0,-1.7013,0.0,0.0,0.0,0.0,0.0,0.0,0.0,0.0,0.0,0.0,0.0,0.0,0.0,0.0,0.0,0.0,0.0,0.0,0.0,0.0,0.0,0.0,0.0,0.0,0.0,0.0,0.0,0.0,0.0,0.0,0.0,0.0,0.0,0.0,0.0,0.0,0.0,0.0,0.0,0.0,0.0,0.0,0.0,0.0,0.0,0.0,0.0,0.0,0.0,0.0,0.0,0.0,0.0,0.0,0.0,0.0,-1.8266,-1.9736,-2.1064,-2.2266,-2.273,-2.2666,-2.1904,-2.0997,-1.9629,-1.7861,0.0,0.0,0.0,0.0,0.0,0.0,0.0,0.0,0.0,0.0,0.0,0.0,0.0,0.0,0.0,0.0,0.0,0.0,0.0,0.0,0.0,0.0,0.0,0.0,0.0,0.0,0.0,0.0,0.0,0.0,0.0,0.0,0.0,0.0,0.0,0.0,0.0,0.0,0.0,-1.7906,-1.8425,0.0,0.0,0.0,0.0,0.0,0.0,0.0,0.0,-1.7108,0.0,0.0,0.0,0.0,0.0,0.0,0.0,0.0,0.0,0.0,0.0,0.0,0.0,0.0,0.0,0.0,0.0,0.0,0.0,0.0,0.0,0.0,0.0,0.0,0.0,0.0,0.0,0.0,0.0,0.0,0.0,0.0,0.0,0.0,0.0,0.0,0.0,0.0,0.0,0.0,0.0,0.0,0.0,0.0,0.0,0.0,0.0,0.0,0.0,0.0,0.0,0.0,0.0,0.0,0.0,-1.8955,-2.0684,-2.1875,-2.25,-2.2877,-2.2691,-2.1894,-2.081,-1.9434,0.0,0.0,0.0,0.0,0.0,0.0,0.0,0.0,0.0,0.0,0.0,0.0,0.0,0.0,0.0,0.0,0.0,0.0,0.0,0.0,0.0,0.0,0.0,0.0,0.0,0.0,0.0,0.0,0.0,0.0,0.0,0.0,0.0,0.0,0.0,0.0,0.0,0.0,0.0,0.0,-1.7835,-1.8197,-1.7182,0.0,0.0,0.0,0.0,0.0,0.0,-1.6551,-1.6483,0.0,0.0,0.0,0.0,0.0,0.0,0.0,0.0,0.0,0.0,0.0,0.0,0.0,0.0,0.0,0.0,0.0,0.0,0.0,0.0,0.0,0.0,0.0,0.0,0.0,0.0,0.0,0.0,0.0,0.0,0.0,0.0,0.0,0.0,0.0,0.0,0.0,0.0,0.0,0.0,0.0,0.0,0.0,0.0,0.0,0.0,0.0,0.0,0.0,0.0,0.0,0.0,0.0,0.0,0.0,-1.9561,-2.1504,-2.2516,-2.2646,-2.2916,-2.2652,-2.1777,-2.0557,-1.9072,0.0,0.0,0.0,0.0,0.0,0.0,0.0,0.0,0.0,0.0,0.0,0.0,0.0,0.0,0.0,0.0,0.0,0.0,0.0,0.0,0.0,0.0,0.0,0.0,0.0,0.0,0.0,0.0,0.0,0.0,0.0,0.0,0.0,0.0,0.0,0.0,0.0,0.0,0.0,0.0,0.0,-1.7992,-1.7175,-1.6874,0.0,0.0,0.0,0.0,-1.617,-1.6299,0.0,0.0,0.0,0.0,0.0,0.0,0.0,0.0,0.0,0.0,0.0,0.0,0.0,0.0,0.0,0.0,0.0,0.0,0.0,0.0,0.0,0.0,0.0,0.0,0.0,0.0,0.0,0.0,0.0,0.0,0.0,0.0,0.0,0.0,0.0,0.0,0.0,0.0,0.0,0.0,0.0,0.0,0.0,0.0,0.0,0.0,0.0,0.0,0.0,0.0,0.0,0.0,0.0,0.0,0.0,0.0,-2.041,-2.1797,-2.2685,-2.3003,-2.3071,-2.2516,-2.1298,-2.0362,-1.8909,0.0,0.0,0.0,0.0,0.0,0.0,0.0,0.0,0.0,0.0,0.0,0.0,0.0,0.0,0.0,0.0,0.0,0.0,0.0,0.0,0.0,0.0,0.0,0.0,0.0,0.0,0.0,0.0,0.0,0.0,0.0,0.0,0.0,0.0,0.0,0.0,0.0,0.0,0.0,0.0,0.0,-1.8153,-1.7967,-1.7594,-1.7307,0.0,0.0,-1.6616,-1.6616,-1.6928,0.0,0.0,0.0,0.0,0.0,0.0,0.0,0.0,0.0,0.0,0.0,0.0,0.0,0.0,0.0,0.0,0.0,0.0,0.0,0.0,0.0,0.0,0.0,0.0,0.0,0.0,0.0,0.0,0.0,0.0,0.0,0.0,0.0,0.0,0.0,0.0,0.0,0.0,0.0,0.0,0.0,0.0,0.0,0.0,0.0,0.0,0.0,0.0,0.0,0.0,0.0,0.0,0.0,0.0,0.0,-1.8717,-2.0576,-2.208,-2.2906,-2.3091,-2.3101,-2.2487,-2.1229,-2.0146,-1.8672,0.0,0.0,0.0,0.0,0.0,0.0,0.0,0.0,0.0,0.0,0.0,0.0,0.0,0.0,0.0,0.0,0.0,0.0,0.0,0.0,0.0,0.0,0.0,0.0,0.0,0.0,0.0,0.0,0.0,0.0,0.0,0.0,0.0,0.0,0.0,0.0,0.0,0.0,0.0,0.0,0.0,0.0,-1.7356,-1.7366,0.0,0.0,0.0,-1.6546,-1.7032,0.0,0.0,0.0,0.0,0.0,0.0,0.0,0.0,0.0,0.0,0.0,0.0,0.0,0.0,0.0,0.0,0.0,0.0,0.0,0.0,0.0,0.0,0.0,0.0,0.0,0.0,0.0,0.0,0.0,0.0,0.0,0.0,0.0,0.0,0.0,0.0,0.0,0.0,0.0,0.0,0.0,0.0,0.0,0.0,0.0,0.0,0.0,0.0,0.0,0.0,0.0,0.0,0.0,0.0,0.0,0.0,0.0,-2.0429,-2.2207,-2.3101,-2.3091,-2.2984,-2.2379,-2.122,-1.9971,0.0,0.0,0.0,0.0,0.0,0.0,0.0,0.0,0.0,0.0,0.0,0.0,0.0,0.0,0.0,0.0,0.0,0.0,0.0,0.0,0.0,0.0,0.0,0.0,0.0,0.0,0.0,-1.0788,0.0,0.0,0.0,0.0,0.0,0.0,0.0,0.0,0.0,0.0,0.0,0.0,0.0,0.0,-1.75,-1.7383,-1.7559,-1.7578,0.0,0.0,-1.6975,-1.7588,-1.8047,-1.8134,0.0,0.0,0.0,0.0,0.0,0.0,0.0,0.0,0.0,0.0,0.0,0.0,0.0,0.0,0.0,0.0,0.0,0.0,0.0,0.0,0.0,0.0,0.0,0.0,0.0,0.0,0.0,0.0,0.0,0.0,0.0,0.0,0.0,0.0,0.0,0.0,0.0,0.0,0.0,0.0,0.0,0.0,0.0,0.0,0.0,0.0,0.0,0.0,0.0,0.0,0.0,0.0,0.0,0.0,0.0,-1.9961,-2.2019,-2.3091,-2.3081,-2.2711,-2.2129,-2.121,-1.9971,-1.8326,0.0,0.0,0.0,0.0,0.0,0.0,0.0,0.0,0.0,0.0,0.0,0.0,0.0,0.0,0.0,0.0,0.0,0.0,0.0,0.0,0.0,0.0,0.0,0.0,0.0,0.0,0.0,0.0,0.0,0.0,0.0,0.0,0.0,0.0,0.0,0.0,0.0,0.0,0.0,0.0,0.0,-1.8252,-1.9014,-1.8799,-1.851,0.0,0.0,-1.8451,-1.851,-1.8916,-1.8876,-1.7905,0.0,0.0,0.0,0.0,0.0,0.0,0.0,0.0,0.0,0.0,0.0,0.0,0.0,0.0,0.0,0.0,0.0,0.0,0.0,0.0,0.0,0.0,0.0,0.0,0.0,0.0,0.0,0.0,0.0,0.0,0.0,0.0,0.0,0.0,0.0,0.0,0.0,0.0,0.0,0.0,0.0,0.0,0.0,0.0,0.0,0.0,0.0,0.0,0.0,0.0,0.0,0.0,0.0,-1.7949,-1.9865,-2.1746,-2.2711,-2.2711,-2.2598,-2.1973,-2.085,-1.9862,-1.8408,0.0,0.0,0.0,0.0,0.0,0.0,0.0,0.0,0.0,0.0,0.0,0.0,0.0,0.0,0.0,0.0,0.0,0.0,0.0,0.0,0.0,0.0,0.0,0.0,0.0,0.0,0.0,0.0,-1.0779,-1.0664,-1.0348,0.0,0.0,0.0,0.0,0.0,0.0,0.0,0.0,0.0,0.0,-1.9307,-1.9629,-1.9766,0.0,0.0,-1.9824,-1.9727,-1.9426,-1.957,-1.9259,-1.8061,-1.7256,0.0,0.0,0.0,0.0,0.0,0.0,0.0,0.0,0.0,0.0,0.0,0.0,0.0,0.0,0.0,0.0,0.0,0.0,0.0,0.0,0.0,0.0,0.0,0.0,0.0,0.0,0.0,0.0,0.0,0.0,0.0,0.0,0.0,0.0,0.0,0.0,0.0,0.0,0.0,0.0,0.0,0.0,0.0,0.0,0.0,0.0,0.0,0.0,0.0,0.0,0.0,0.0,-1.7691,-1.9707,-2.1689,-2.2646,-2.251,-2.2393,-2.1768,-2.0635,-1.9736,-1.8477,0.0,0.0,0.0,0.0,0.0,0.0,0.0,0.0,0.0,0.0,0.0,0.0,0.0,0.0,0.0,0.0,0.0,0.0,0.0,0.0,0.0,0.0,0.0,0.0,0.0,0.0,0.0,0.0,-1.107,-1.0762,-1.04,0.0,0.0,0.0,0.0,0.0,0.0,0.0,0.0,0.0,0.0,-1.9775,-1.9902,-2.04,-2.0713,-2.0625,-2.0713,-2.0566,-2.0,-1.9912,-1.9475,-1.8185,0.0,0.0,0.0,0.0,0.0,0.0,0.0,0.0,0.0,0.0,0.0,0.0,0.0,0.0,0.0,0.0,0.0,0.0,0.0,0.0,0.0,0.0,0.0,0.0,0.0,0.0,0.0,-1.2925,0.0,0.0,-1.2861,0.0,0.0,0.0,0.0,0.0,0.0,0.0,0.0,0.0,0.0,0.0,0.0,0.0,0.0,0.0,0.0,0.0,0.0,0.0,0.0,0.0,0.0,-1.7588,-1.9307,-2.1807,-2.2867,-2.251,-2.2109,-2.1475,-2.0605,-1.9727,-1.8477,-1.6697,0.0,0.0,0.0,0.0,0.0,0.0,0.0,0.0,0.0,0.0,0.0,0.0,0.0,0.0,0.0,0.0,0.0,0.0,0.0,0.0,0.0,0.0,0.0,0.0,0.0,0.0,-1.1532,-1.1154,-1.0743,0.0,0.0,0.0,0.0,0.0,0.0,0.0,0.0,0.0,0.0,-1.8223,-1.9453,-1.9853,-2.0615,-2.1015,-2.0674,-2.0928,-2.0869,-2.0001,-1.9883,-1.9509,0.0,0.0,0.0,0.0,0.0,0.0,0.0,0.0,0.0,0.0,0.0,0.0,0.0,0.0,0.0,0.0,0.0,0.0,0.0,0.0,0.0,0.0,0.0,0.0,0.0,0.0,0.0,-1.4177,-1.4092,0.0,0.0,0.0,0.0,0.0,0.0,0.0,0.0,0.0,0.0,0.0,-1.6934,-1.7217,0.0,0.0,0.0,0.0,0.0,0.0,0.0,0.0,0.0,0.0,0.0,0.0,-1.7681,-1.9678,-2.1416,-2.2236,-2.209,-2.168,-2.1025,-2.0156,-1.9297,-1.7613,-1.5059,0.0,0.0,0.0,0.0,0.0,0.0,0.0,0.0,0.0,0.0,0.0,0.0,0.0,0.0,0.0,0.0,0.0,0.0,0.0,0.0,0.0,0.0,0.0,0.0,0.0,-1.0946,0.0,0.0,0.0,0.0,0.0,0.0,0.0,0.0,0.0,0.0,0.0,-1.6473,-1.709,-1.8144,-1.9004,-1.9434,-2.0459,-2.1084,0.0,0.0,0.0,0.0,0.0,0.0,0.0,0.0,0.0,0.0,0.0,0.0,0.0,0.0,-1.8739,-1.815,-1.7889,-1.7906,-1.8289,0.0,0.0,0.0,0.0,0.0,0.0,0.0,0.0,0.0,0.0,0.0,0.0,0.0,0.0,-1.5605,0.0,-1.4551,0.0,0.0,0.0,0.0,0.0,0.0,0.0,0.0,-1.7656,-1.8369,-1.8896,-1.9053,-1.9131,0.0,-1.9853,-1.9196,0.0,0.0,0.0,0.0,0.0,0.0,0.0,0.0,-1.7681,-1.9658,-2.1143,-2.1816,-2.166,-2.1346,-2.0781,-1.9932,-1.8909,-1.7243,-1.4883,-1.3838,-1.2715,0.0,0.0,0.0,0.0,0.0,0.0,0.0,0.0,0.0,0.0,0.0,0.0,0.0,0.0,0.0,0.0,0.0,0.0,0.0,0.0,0.0,0.0,0.0,-1.1277,0.0,0.0,0.0,0.0,0.0,0.0,0.0,0.0,0.0,-1.5371,-1.6318,-1.707,-1.7344,-1.8105,-1.8754,-1.9228,0.0,0.0,0.0,0.0,0.0,0.0,0.0,-1.8574,-1.8311,-1.8262,-1.8404,-1.8913,-1.9428,-1.9745,-1.9561,0.0,0.0,-1.8953,-1.8911,-1.9086,-1.9294,-1.9385,-1.9486,-1.9571,-2.0175,-2.084,0.0,0.0,0.0,0.0,0.0,0.0,0.0,0.0,-1.7637,-1.7217,0.0,-1.5868,0.0,0.0,0.0,0.0,0.0,-1.5557,0.0,0.0,-1.9803,-2.0625,-2.0664,-2.1016,-2.12,-2.1249,-2.166,-2.1437,-2.0468,-1.8057,0.0,0.0,0.0,0.0,0.0,0.0,-1.7555,-1.9307,-2.0986,-2.166,-2.1229,-2.12,-2.0771,-1.9922,-1.8701,-1.7422,-1.6153,-1.4816,-1.3558,-1.2301,-1.1433,0.0,0.0,0.0,0.0,0.0,0.0,0.0,0.0,0.0,0.0,0.0,0.0,0.0,0.0,0.0,0.0,0.0,0.0,0.0,0.0,-1.1982,0.0,0.0,0.0,0.0,0.0,0.0,0.0,0.0,0.0,0.0,-1.5654,-1.6641,-1.7445,-1.7465,0.0,0.0,0.0,0.0,-2.1074,-2.0664,-2.1339,-2.1406,-2.0137,-1.9922,-1.9922,-1.9904,0.0,0.0,-2.1252,-2.1284,-2.1036,-2.0791,-2.0771,-2.0507,-1.954,-1.9814,-2.003,-1.9579,-2.0105,-2.0653,-2.0767,-2.1384,-2.226,-1.8172,0.0,0.0,0.0,0.0,-1.9323,-1.9754,-1.9805,-1.9375,-1.8955,-1.8506,-1.7637,0.0,0.0,0.0,0.0,0.0,0.0,-1.8393,-1.9414,-2.0489,-2.1201,-2.1544,-2.1641,-2.1699,-2.1719,-2.2119,-2.1885,-2.1016,-1.998,-1.8447,-1.6445,0.0,0.0,0.0,0.0,-1.8037,-1.9687,-2.085,-2.1327,-2.12,-2.12,-2.0771,-1.9894,-1.8939,-1.7818,-1.6592,-1.5547,-1.4453,-1.3203,-1.2617,0.0,0.0,0.0,0.0,0.0,0.0,0.0,0.0,0.0,0.0,0.0,0.0,0.0,0.0,0.0,0.0,0.0,0.0,0.0,-1.195,-1.2432,-1.252,0.0,0.0,0.0,0.0,0.0,0.0,0.0,0.0,0.0,-1.7662,-1.7773,-1.7939,0.0,0.0,-1.9258,-1.9678,-2.0557,-2.1074,-2.0674,-2.1055,0.0,-2.0527,-2.0381,-2.0488,-2.0761,-2.1317,-2.1946,-2.2535,-2.2316,-2.1981,-2.1629,-2.1536,-2.124,-2.0467,-2.0437,-2.0495,-2.0349,-2.0528,-2.0855,-2.1088,-2.1511,-2.2014,-2.0442,-1.9144,-2.0083,-2.048,-2.0654,-2.1484,-2.1943,-2.206,-2.1631,-2.1221,-2.0811,-1.9922,-1.9072,-1.8213,-1.7641,0.0,0.0,0.0,-2.0283,-2.0977,-2.1836,-2.2295,-2.2383,-2.2383,-2.2383,-2.2393,-2.2594,-2.236,-2.1738,-2.1465,-2.042,-1.8648,0.0,0.0,-1.7418,-1.7555,-1.8389,-1.9863,-2.0605,-2.1015,-2.12,-2.12,-2.0781,-1.9941,-1.9212,-1.8256,-1.7009,-1.6143,-1.5156,-1.4062,-1.3316,-1.2377,0.0,0.0,0.0,0.0,0.0,0.0,0.0,0.0,0.0,0.0,0.0,-1.0205,-1.0039,0.0,0.0,0.0,-1.1631,-1.2227,-1.2895,-1.3223,0.0,0.0,0.0,0.0,0.0,0.0,0.0,-1.7369,-1.8208,-1.8857,-1.9075,-1.9228,-1.9221,-1.9124,-1.9521,-1.9951,-2.0342,0.0,-2.1396,-2.1173,-2.1465,-2.1592,-2.1212,-2.1124,-2.124,-2.1629,-2.2262,-2.2779,-2.3023,-2.2877,-2.2559,-2.2053,-2.1988,-2.1751,-2.0787,-2.0712,-2.0627,-2.033,-2.0507,-2.073,-2.0687,-2.1047,-2.1594,-2.1647,-2.1263,-2.1889,-2.2287,-2.2566,-2.3353,-2.3916,-2.4237,-2.3858,-2.3514,-2.3067,-2.2308,-2.1461,-2.0625,-1.9855,0.0,-2.0762,-2.1631,-2.2217,-2.2598,-2.3408,-2.3555,-2.311,-2.3091,-2.3081,-2.3042,-2.3042,-2.2828,-2.2461,-2.2402,-2.1797,-2.0615,-1.8184,-1.7525,-1.8568,-1.8237,-1.8672,-1.9855,-2.0381,-2.085,-2.1288,-2.1229,-2.0791,-1.999,-1.9521,-1.8711,-1.749,-1.6652,-1.5821,-1.4979,-1.375,-1.269,-1.18,0.0,0.0,0.0,0.0,0.0,0.0,0.0,0.0,0.0,0.0,0.0,0.0,0.0,0.0,0.0,-1.2891,0.0,-1.4172,-1.4241,0.0,0.0,0.0,-1.463,-1.5439,-1.707,-1.8237,-1.8656,0.0,0.0,-2.0019,-2.0722,-2.0966,-2.0186,-2.0498,-2.0918,-2.1288,-2.1738,-2.1982,-2.1982,-2.2305,-2.2412,-2.2041,-2.1982,-2.21,-2.2418,-2.2838,-2.3062,-2.3091,-2.3023,-2.2711,-2.2031,-2.2211,-2.21,-2.0871,-2.0714,-2.0553,-1.9933,-2.0207,-2.0416,-2.0091,-2.0676,-2.1499,-2.227,-2.214,-2.2131,-2.2171,-2.2334,-2.2871,-2.3177,-2.3261,-2.3168,-2.2852,-2.2417,-2.2223,-2.1764,-2.1133,-2.1154,-2.1349,-2.1787,-2.2853,-2.3213,-2.2984,-2.3535,-2.3564,-2.3101,-2.3101,-2.2925,-2.2633,-2.2656,-2.2441,-2.2031,-2.1699,-2.1337,-2.0986,-1.9748,-1.915,-1.9111,-1.8666,-1.8919,-1.9912,-2.0684,-2.1405,-2.2116,-2.1531,-2.0937,-2.042,-1.9678,-1.8838,-1.79,-1.7353,-1.6826,-1.6248,-1.5342,-1.4277,-1.3105,-1.2334,0.0,0.0,0.0,0.0,0.0,0.0,0.0,0.0,0.0,-1.1516,-1.2083,0.0,-1.2739,0.0,-1.4102,-1.4658,-1.504,-1.541,0.0,0.0,-1.5625,-1.6297,-1.6865,-1.8144,-1.915,-1.9524,-2.0088,-2.0537,-2.0839,-2.1396,-2.1768,-2.1875,-2.2256,-2.2526,-2.2643,-2.273,-2.2799,-2.2779,-2.2857,-2.2916,-2.2789,-2.2842,-2.2808,-2.2935,-2.3033,-2.3091,-2.3101,-2.2828,-2.249,-2.2002,-2.1936,-2.172,-2.1139,-2.1122,-2.0956,-2.0501,-2.049,-2.052,-2.0533,-2.1419,-2.2405,-2.1856,-2.1824,-2.1536,-2.1409,-2.149,-2.2111,-2.2372,-2.2372,-2.2372,-2.225,-2.1944,-2.2001,-2.1907,-2.1883,-2.2391,-2.2814,-2.3237,-2.4202,-2.4414,-2.4023,-2.4238,-2.4023,-2.3437,-2.3428,-2.3105,-2.251,-2.2129,-2.1775,-2.1572,-2.1152,-2.0937,-2.0928,-2.0644,-2.0293,-1.9891,-1.9424,-1.9541,-2.0195,-2.1074,-2.1846,-2.2461,-2.1855,-2.1211,-2.0615,-1.9736,-1.8887,-1.8037,-1.7607,-1.7178,-1.6697,-1.5859,-1.4834,-1.3584,-1.2808,-1.2014,0.0,0.0,0.0,0.0,0.0,0.0,0.0,0.0,0.0,0.0,0.0,-1.4443,-1.5459,-1.5801,-1.6113,-1.6523,-1.6963,-1.7041,-1.6621,-1.7344,-1.7969,-1.8237,-1.8857,-1.9521,-2.0127,-2.0596,-2.1035,-2.1475,-2.206,-2.2529,-2.2721,-2.2945,-2.3101,-2.3101,-2.3101,-2.3101,-2.3101,-2.3101,-2.3101,-2.3101,-2.3101,-2.3101,-2.3101,-2.3101,-2.3101,-2.3081,-2.274,-2.2383,-2.1982,-2.1777,-2.149,-2.108,-2.1006,-2.102,-2.1035,-2.1254,-2.132,-2.0922,-2.1582,-2.2537,-2.0833,-2.0749,-2.0412,-2.0278,-2.0354,-2.0984,-2.1385,-2.1507,-2.1499,-2.1507,-2.1507,-2.1507,-2.1786,-2.2256,-2.3003,-2.3628,-2.4149,-2.489,-2.5052,-2.474,-2.4826,-2.4436,-2.3676,-2.3769,-2.331,-2.237,-2.1539,-2.1091,-2.0983,-2.0546,-2.0391,-2.0459,-2.0828,-2.0878,-2.0489,-2.0109,-2.0168,-2.0772,-2.1544,-2.2119,-2.2568,-2.2129,-2.1494,-2.0703,-1.9813,-1.8916,-1.8125,-1.7627,-1.7207,-1.6785,-1.5967,-1.4941,-1.375,-1.3146,-1.2359,0.0,-1.1145,0.0,0.0,0.0,0.0,0.0,0.0,0.0,0.0,-1.5429,-1.6145,-1.7352,-1.7473,-1.7648,-1.81,-1.852,-1.8617,-1.8286,-1.8965,-1.949,-1.9453,-1.9404,-1.9678,-2.0507,-2.0957,-2.1356,-2.1836,-2.2607,-2.3091,-2.3071,-2.3081,-2.3101,-2.3101,-2.3101,-2.3101,-2.3101,-2.3101,-2.3101,-2.3101,-2.3101,-2.312,-2.3159,-2.313,-2.3101,-2.3144,-2.2793,-2.2373,-2.1973,-2.1701,-2.1421,-2.0941,-2.0988,-2.1192,-2.1659,-2.2446,-2.2631,-2.1672,-2.2141,-2.2935,-1.9709,-1.9681,-1.9323,-1.92,-1.9222,-1.914,-1.9626,-2.0372,-2.038,-2.0423,-2.0372,-2.0431,-2.0574,-2.0832,-2.1283,-2.1661,-2.1948,-2.2373,-2.2642,-2.2756,-2.3314,-2.3345,-2.3046,-2.3534,-2.3057,-2.1723,-2.1068,-2.0495,-1.9876,-1.9338,-1.931,-1.9794,-2.0027,-2.0106,-2.002,0.0,0.0,0.0,-2.1807,-2.2256,-2.2916,-2.2275,-2.1641,-2.1103,-1.9922,0.0,-1.849,-1.7783,-1.7353,-1.7236,-1.6416,0.0,0.0,0.0,0.0,0.0,0.0,0.0,0.0,0.0,0.0,0.0,-1.556,-1.5894,-1.6307,-1.6751,-1.7202,-1.76,-1.7795,-1.8151,-1.8762,-1.9323,-1.9639,-1.959,-2.0019,-2.0361,-2.0312,-2.001,-2.0,-2.0537,-2.0967,-2.1396,-2.1855,-2.2617,-2.3081,-2.3091,-2.3101,-2.3101,-2.3101,-2.3101,-2.3101,-2.3101,-2.3101,-2.3101,-2.3101,-2.3101,-2.3208,-2.3516,-2.335,-2.312,-2.3125,-2.2793,-2.2383,-2.1982,-2.1853,-2.1787,-2.1667,-2.1948,-2.2351,-2.2966,-2.3805,-2.4111,-2.3099,-2.4277,-2.5638,-1.9424,0.0,-1.9052,-1.8868,0.0,-1.8611,-1.881,-1.9299,-1.9148,-1.8984,-1.8885,-1.8885,-1.8877,-1.9002,-1.9435,-1.9704,-1.9832,-2.0271,-2.072,-2.1209,-2.2295,-2.2798,-2.2843,-2.3939,-2.3561,-2.1916,-2.0862,-1.9948,-1.9142,-1.8254,-1.8127,-1.8745,-1.9334,-1.9614,-1.9439,-1.9204,-1.9808,-2.1191,-2.1201,-2.1599,-2.2366,-2.1627,-2.1002,-2.0526,-1.9431,0.0,0.0,0.0,0.0,0.0,0.0,0.0,0.0,0.0,0.0,-1.2116,-1.1839,-1.181,-1.2058,-1.3004,-1.4172,-1.5678,-1.6368,-1.6839,-1.718,-1.745,-1.7743,-1.8053,-1.843,-1.9027,-1.9797,-2.0477,-2.0889,-2.0908,-2.1269,-2.1377,-2.0937,-2.0498,-2.037,-2.0566,-2.0801,-2.1143,-2.1807,-2.2422,-2.2857,-2.3062,-2.3101,-2.3101,-2.3101,-2.3101,-2.3101,-2.3101,-2.3101,-2.3101,-2.3101,-2.3101,-2.3149,-2.3379,-2.3237,-2.3164,-2.3144,-2.2793,-2.2441,-2.2217,-2.214,-2.2076,-2.2237,-2.2737,-2.3471,-2.4344,-2.5255,-2.5888,-2.564,-2.6271,-2.6986,-1.9424,-1.9403,-1.9105,-1.9005,-1.8985,-1.8744,-1.8617,-1.8544,0.0,0.0,0.0,-1.7589,-1.7565,-1.7442,-1.7826,-1.8009,-1.7982,-1.8337,-1.8922,-1.9782,-2.132,-2.219,-2.2575,-2.4087,-2.3886,-2.2069,-2.0589,-1.9398,-1.8489,-1.7351,-1.7139,-1.776,-1.8687,-1.9037,-1.874,-1.8278,-1.8618,-1.9778,-2.0003,-2.0519,-2.1266,-2.06,-2.0036,-1.9722,-1.8797,-1.8193,-1.8023,-1.726,-1.66,-1.6106,-1.5514,-1.4708,-1.3642,-1.3255,-1.2873,-1.2357,-1.2093,-1.219,-1.2755,-1.3623,-1.4673,-1.5956,-1.6599,-1.7085,-1.7504,-1.7548,-1.7811,-1.828,-1.8996,-1.9736,-2.0685,-2.1518,-2.2002,-2.1992,-2.2305,-2.2187,-2.1445,-2.0869,-2.0595,-2.0615,-2.0625,-2.0899,-2.165,-2.2207,-2.2627,-2.2896,-2.3033,-2.3101,-2.3101,-2.3101,-2.3101,-2.3101,-2.3101,-2.3101,-2.3101,-2.3101,-2.312,-2.3301,-2.3179,-2.3101,-2.3096,-2.2861,-2.2627,-2.249,-2.2456,-2.2649,-2.294,-2.3739,-2.4653,-2.573,-2.6718,-2.7567,-2.811,-2.7972,-2.7951,-1.9424,-1.9424,-1.9383,-1.9305,-1.9357,-1.9259,-1.9098,-1.8818,-1.8229,-1.7876,-1.7589,-1.7589,-1.7416,-1.7136,-1.7047,-1.6849,-1.6573,-1.6519,-1.7072,-1.8208,-1.9715,-2.0781,-2.1507,-2.3001,-2.2708,-2.0888,-1.9874,-1.88,-1.7746,-1.6908,-1.6738,-1.7285,-1.7962,-1.8127,-1.7838,-1.7229,-1.698,-1.7175,-1.8181,-1.9077,-1.9782,-1.9315,-1.9037,-1.8998,-1.8293,-1.7948,-1.8085,-1.709,-1.6247,-1.5624,-1.4858,-1.39,-1.2693,-1.2628,-1.2349,-1.1804,-1.2215,-1.2565,-1.2818,-1.3936,-1.517,-1.6372,-1.6609,-1.6711,-1.6821,-1.6734,-1.6977,-1.7684,-1.8727,-1.9713,-2.0488,-2.1659,-2.2422,-2.2422,-2.248,-2.2314,-2.1836,-2.1094,-2.0654,-2.0644,-2.0615,-2.0732,-2.1309,-2.1951,-2.2428,-2.2594,-2.2886,-2.3101,-2.3101,-2.3101,-2.3101,-2.3101,-2.3101,-2.3101,-2.3101,-2.3101,-2.3218,-2.3643,-2.3305,-2.3101,-2.3154,-2.3076,-2.29,-2.2588,-2.309,-2.3752,-2.4346,-2.5259,-2.6248,-2.733,-2.81,-2.8712,-2.9282,-2.9298,-2.925,-1.9424,-1.9424,-1.9424,-1.9424,-1.9424,-1.9424,-1.9199,-1.8911,-1.8588,-1.8209,-1.7849,-1.7829,-1.7467,-1.6893,-1.6648,-1.6256,-1.5791,-1.5572,-1.6009,-1.6967,-1.8426,-1.9523,-2.0349,-2.1827,-2.181,-2.0444,-1.9461,-1.8466,-1.749,-1.6541,-1.6258,-1.6603,-1.6915,-1.6836,-1.6412,-1.5848,-1.5368,-1.5039,-1.6599,-1.7699,-1.8236,-1.783,-1.77,-1.7873,-1.7218,-1.7166,-1.7732,-1.6482,-1.5678,-1.5512,-1.4453,-1.3509,-1.2735,-1.2525,-1.2442,-1.2427,-1.2544,-1.2879,-1.3501,-1.4642,-1.5575,-1.6029,-1.6176,-1.614,-1.595,-1.5907,-1.6271,-1.7169,-1.8547,-1.9823,-2.0727,-2.1991,-2.2852,-2.2799,-2.2818,-2.2676,-2.2256,-2.1689,-2.1191,-2.0937,-2.0498,-2.0478,-2.1112,-2.1531,-2.2041,-2.2422,-2.2871,-2.3091,-2.3101,-2.3101,-2.3101,-2.3101,-2.3101,-2.3101,-2.3101,-2.3101,-2.3188,-2.3383,-2.3227,-2.311,-2.3144,-2.3188,-2.3284,-2.3299,-2.3935,-2.4744,-2.5453,-2.64,-2.7395,-2.8211,-2.8806,-2.9314,-2.965,-2.9779,-2.9578,-1.9424,-1.9424,-1.9424,-1.9424,-1.9424,-1.9424,-1.9239,-1.9032,-1.9018,-1.8691,-1.8129,-1.8029,-1.7582,-1.682,-1.65,-1.6086,-1.5605,-1.5284,-1.5593,-1.6318,-1.764,-1.86,-1.9341,-2.0718,-2.0881,-1.9945,-1.9018,-1.8108,-1.7223,-1.6259,-1.5872,-1.6046,-1.5995,-1.5681,-1.5152,-1.4695,-1.4156,-1.3662,-1.5088,-1.6154,-1.657,-1.6378,-1.6365,-1.6654,-1.627,-1.638,-1.7113,-1.5954,-1.5243,-1.5222,-1.4163,-1.3294,-1.2799,-1.2517,-1.2565,-1.2965,-1.2907,-1.3284,-1.4311,-1.5225,-1.5746,-1.568,-1.577,-1.5739,-1.545,-1.5449,-1.5867,-1.6894,-1.8496,-1.9898,-2.0944,-2.2262,-2.3101,-2.3101,-2.3101,-2.2891,-2.2432,-2.207,-2.166,-2.1133,-2.0391,-2.0234,-2.082,-2.1084,-2.1484,-2.2344,-2.2838,-2.3081,-2.3101,-2.3101,-2.3101,-2.3101,-2.3101,-2.3101,-2.3101,-2.3101,-2.311,-2.3101,-2.3101,-2.3101,-2.3144,-2.3373,-2.3711,-2.4006,-2.4787,-2.5684,-2.6505,-2.7366,-2.8223,-2.891,-2.9275,-2.9521,-2.9753,-2.9779,-2.9515,-1.9424,-1.9424,-1.9424,-1.9424,-1.9424,-1.9424,-1.9403,-1.9319,-1.9319,-1.8998,-1.8437,-1.8115,-1.7702,-1.7172,-1.68,-1.65,-1.6192,-1.5885,-1.6068,-1.6711,-1.7597,-1.8323,-1.8897,-1.9808,-1.9749,-1.8934,-1.8353,-1.7598,-1.6836,-1.6122,-1.5824,-1.5862,-1.5494,-1.5099,-1.4653,-1.4265,-1.3776,-1.326,-1.3642,-1.4162,-1.471,-1.5018,-1.5289,-1.5514,-1.5624,-1.5928,-1.6512,-1.592,-1.5295,-1.4672,-1.3996,-1.3207,-1.2478,-1.2328,-1.2483,-1.282,-1.3266,-1.4035,-1.5124,-1.5377,-1.555,-1.5759,-1.5806,-1.5812,-1.5718,-1.5758,-1.6047,-1.6989,-1.8498,-1.9906,-2.0943,-2.2246,-2.3091,-2.3101,-2.3101,-2.2832,-2.2158,-2.1914,-2.1572,-2.0752,-2.0166,-2.0098,-2.0469,-2.0674,-2.1212,-2.2353,-2.2779,-2.3081,-2.3159,-2.311,-2.3101,-2.3101,-2.3101,-2.3101,-2.3101,-2.3101,-2.3101,-2.3101,-2.3101,-2.3135,-2.3222,-2.357,-2.395,-2.4734,-2.5537,-2.6547,-2.7504,-2.8359,-2.8882,-2.9378,-2.965,-2.974,-2.9792,-2.9779,-2.9428,-1.9424,-1.9424,-1.9424,-1.9424,-1.9424,-1.9424,-1.9424,-1.9417,-1.9178,-1.8871,-1.8484,-1.8129,-1.7802,-1.7454,-1.7275,-1.7154,-1.7034,-1.6914,-1.6978,-1.7258,-1.7637,-1.7901,-1.8137,-1.8457,-1.8397,-1.8036,-1.7491,-1.7038,-1.667,-1.6059,-1.5758,-1.5588,-1.5229,-1.474,-1.4042,-1.3702,-1.3232,-1.2705,-1.3107,-1.3507,-1.3768,-1.4202,-1.4663,-1.5102,-1.5161,-1.5581,-1.6201,-1.5548,-1.5029,-1.4837,-1.4012,-1.334,-1.2846,-1.2846,-1.3053,-1.3568,-1.4262,-1.4883,-1.5364,-1.5551,-1.5698,-1.5825,-1.5825,-1.5825,-1.5825,-1.5825,-1.6102,-1.7008,-1.8517,-1.9914,-2.0934,-2.2236,-2.3101,-2.3101,-2.3101,-2.2857,-2.2334,-2.1797,-2.124,-2.0644,-1.9736,-1.9336,-1.9822,-2.0302,-2.1134,-2.2197,-2.2652,-2.2949,-2.3379,-2.3266,-2.3101,-2.3101,-2.3101,-2.3101,-2.3101,-2.3101,-2.3101,-2.3135,-2.3222,-2.3353,-2.357,-2.4166,-2.485,-2.5495,-2.6453,-2.7366,-2.8303,-2.8819,-2.9314,-2.9689,-2.9779,-2.9779,-2.9779,-2.9779,-2.9415,-1.9424,-1.9424,-1.9424,-1.9424,-1.9424,-1.9424,-1.9377,-1.9225,-1.9011,-1.8718,-1.8357,-1.8089,-1.7822,-1.7609,-1.7589,-1.7589,-1.7589,-1.7589,-1.7589,-1.7589,-1.7589,-1.7635,-1.7589,-1.7589,-1.7589,-1.7495,-1.7032,-1.662,-1.6446,-1.6017,-1.5685,-1.5398,-1.511,-1.4522,-1.3673,-1.338,-1.3026,-1.2545,-1.3019,-1.3367,-1.352,-1.3941,-1.4449,-1.4934,-1.494,-1.5318,-1.6197,-1.5392,-1.4997,-1.5162,-1.4358,-1.3838,-1.3687,-1.3694,-1.3915,-1.4416,-1.5037,-1.5438,-1.5511,-1.5712,-1.5825,-1.5825,-1.5825,-1.5825,-1.5825,-1.5825,-1.6163,-1.6864,-1.8195,-1.9413,-2.0718,-2.2069,-2.2882,-2.3003,-2.3057,-2.2896,-2.2373,-2.1619,-2.0986,-2.04,-1.9385,-1.8763,-1.9307,-2.0156,-2.1191,-2.209,-2.2549,-2.2842,-2.3418,-2.3286,-2.3101,-2.3101,-2.3101,-2.3101,-2.3101,-2.3101,-2.3101,-2.3178,-2.3363,-2.3701,-2.4046,-2.4882,-2.5893,-2.6607,-2.7516,-2.8263,-2.8922,-2.9365,-2.9521,-2.9702,-2.9779,-2.9779,-2.9779,-2.9867,-2.9767,-1.9424,-1.9424,-1.9424,-1.9424,-1.9424,-1.9424,-1.9205,-1.8965,-1.8925,-1.8548,-1.8069,-1.7989,-1.7869,-1.7589,-1.7589,-1.7589,-1.7589,-1.7589,-1.7589,-1.7589,-1.7589,-1.7589,-1.7589,-1.7589,-1.7589,-1.7535,-1.6987,-1.6433,-1.5932,-1.5804,-1.5678,-1.5404,-1.513,-1.4536,-1.376,-1.3613,-1.3327,-1.2898,-1.3293,-1.37,-1.4021,-1.4322,-1.4636,-1.4988,-1.5001,-1.5256,-1.5732,-1.5544,-1.535,-1.5363,-1.5066,-1.4874,-1.4901,-1.4888,-1.5015,-1.5257,-1.5364,-1.5531,-1.5752,-1.5812,-1.5825,-1.5825,-1.5825,-1.5825,-1.5825,-1.5825,-1.6069,-1.6581,-1.7365,-1.8519,-2.0048,-2.1535,-2.2476,-2.275,-2.2969,-2.274,-2.2021,-2.1504,-2.081,-2.0039,-1.9141,-1.8754,-1.9219,-2.0372,-2.1211,-2.1914,-2.2588,-2.3091,-2.3179,-2.3159,-2.3101,-2.3101,-2.3101,-2.3101,-2.3101,-2.3101,-2.3101,-2.3188,-2.3484,-2.3993,-2.4776,-2.5568,-2.6637,-2.7597,-2.8251,-2.891,-2.9495,-2.974,-2.974,-2.9779,-2.9779,-2.9779,-2.9779,-3.0256,-3.0168,-1.9424,-1.9424,-1.9424,-1.9424,-1.9424,-1.9424,-1.9199,-1.8911,-1.8724,-1.843,-1.8009,-1.7842,-1.7689,-1.7589,-1.7589,-1.7589,-1.7589,-1.7589,-1.7589,-1.7589,-1.7589,-1.7589,-1.7589,-1.7589,-1.7589,-1.7495,-1.6987,-1.6406,-1.5885,-1.5825,-1.5731,-1.5651,-1.5384,-1.4883,-1.4252,-1.4015,-1.3634,-1.3153,-1.3407,-1.3788,-1.4095,-1.4369,-1.4743,-1.5204,-1.5244,-1.5424,-1.5812,-1.5551,-1.5398,-1.5398,-1.5117,-1.5015,-1.5028,-1.5144,-1.5284,-1.5398,-1.5571,-1.5718,-1.5812,-1.5825,-1.5825,-1.5825,-1.5825,-1.5825,-1.5825,-1.5825,-1.5974,-1.6353,-1.6857,-1.7831,-1.9026,-2.0647,-2.1863,-2.2325,-2.2765,-2.2812,-2.1992,-2.125,-2.0469,-1.9609,-1.8779,-1.8418,-1.8939,-1.9728,-2.0722,-2.1728,-2.2383,-2.291,-2.3369,-2.3296,-2.3052,-2.3091,-2.3101,-2.3101,-2.3101,-2.3101,-2.3144,-2.3319,-2.3624,-2.4391,-2.5147,-2.6174,-2.7203,-2.8295,-2.8983,-2.9236,-2.9702,-2.9779,-2.9779,-2.9779,-2.9779,-2.9779,-2.9779,-3.0319,-3.0294,-1.9424,-1.9424,-1.9424,-1.9424,-1.9424,-1.9424,-1.9145,-1.8791,-1.8571,-1.8263,-1.7909,-1.7675,-1.7589,-1.7589,-1.7589,-1.7589,-1.7589,-1.7589,-1.7589,-1.7589,-1.7589,-1.7589,-1.7589,-1.7589,-1.7589,-1.7495,-1.6987,-1.6406,-1.5885,-1.5825,-1.5825,-1.5805,-1.5545,-1.5097,-1.4539,-1.4322,-1.3941,-1.3514,-1.3634,-1.3975,-1.4329,-1.4556,-1.4943,-1.5438,-1.5538,-1.5625,-1.5818,-1.5638,-1.5538,-1.5504,-1.5344,-1.5244,-1.5271,-1.5431,-1.5538,-1.5558,-1.5718,-1.5825,-1.5825,-1.5825,-1.5825,-1.5825,-1.5825,-1.5825,-1.5825,-1.5825,-1.5879,-1.6116,-1.64,-1.699,-1.8095,-1.9679,-2.1033,-2.1872,-2.2643,-2.276,-2.1963,-2.1143,-2.0145,-1.9082,-1.8545,-1.8457,-1.8812,-1.9629,-2.0547,-2.1562,-2.2051,-2.2607,-2.3144,-2.3027,-2.2812,-2.2847,-2.2711,-2.2764,-2.2812,-2.2808,-2.2994,-2.3173,-2.3831,-2.4658,-2.574,-2.6761,-2.7824,-2.887,-2.9411,-2.961,-2.9689,-2.9779,-2.9779,-2.9779,-2.9779,-2.9779,-3.0043,-3.0432,-3.0331,-1.9417,-1.9424,-1.9424,-1.9403,-1.9417,-1.9424,-1.9038,-1.8604,-1.8504,-1.819,-1.7729,-1.7602,-1.7589,-1.7589,-1.7589,-1.7589,-1.7589,-1.7589,-1.7589,-1.7589,-1.7589,-1.7589,-1.7589,-1.7589,-1.7528,-1.7468,-1.6967,-1.64,-1.5804,-1.5825,-1.5825,-1.5724,-1.5571,-1.5184,-1.4556,-1.4556,-1.4219,-1.3833,-1.3988,-1.4425,-1.4928,-1.4995,-1.5224,-1.5732,-1.5798,-1.5798,-1.5825,-1.5764,-1.5792,-1.5798,-1.5792,-1.5812,-1.5752,-1.5785,-1.5812,-1.5792,-1.5825,-1.5825,-1.5825,-1.5825,-1.5825,-1.5825,-1.5825,-1.5825,-1.5825,-1.5825,-1.5825,-1.5832,-1.5927,-1.6298,-1.7365,-1.8734,-2.0187,-2.1507,-2.2511,-2.275,-2.1973,-2.1084,-1.9922,-1.8603,-1.8383,-1.8818,-1.9316,-1.9971,-2.0713,-2.1221,-2.1689,-2.21,-2.25,-2.2314,-2.2168,-2.2285,-2.2295,-2.2275,-2.2393,-2.2539,-2.276,-2.3104,-2.3963,-2.4839,-2.6271,-2.7412,-2.84,-2.9423,-2.9644,-2.979,-2.974,-2.9779,-2.9779,-2.9779,-2.9779,-2.9817,-3.0043,-3.0294,-3.0419,-1.9178,-1.9332,-1.9145,-1.9178,-1.941,-1.9424,-1.9138,-1.8778,-1.8584,-1.827,-1.7909,-1.7675,-1.7589,-1.7589,-1.7589,-1.7589,-1.7589,-1.7589,-1.7589,-1.7589,-1.7589,-1.7589,-1.7589,-1.7589,-1.7368,-1.7014,-1.68,-1.64,-1.5925,-1.5825,-1.5825,-1.5805,-1.5691,-1.5504,-1.5124,-1.511,-1.4836,-1.4312,-1.4543,-1.4841,-1.5022,-1.5164,-1.5444,-1.5772,-1.5825,-1.5825,-1.5825,-1.5825,-1.5825,-1.5825,-1.5825,-1.5825,-1.5825,-1.5825,-1.5825,-1.5825,-1.5825,-1.5825,-1.5825,-1.5825,-1.5825,-1.5825,-1.5825,-1.5825,-1.5825,-1.5825,-1.5825,-1.5825,-1.5825,-1.6163,-1.7099,-1.8249,-1.9604,-2.1069,-2.2315,-2.276,-2.1904,-2.0859,-1.9707,-1.8734,-1.8828,-1.9248,-1.9678,-2.0321,-2.0713,-2.1093,-2.1562,-2.1914,-2.2002,-2.1924,-2.1748,-2.168,-2.1699,-2.1797,-2.1963,-2.2285,-2.2695,-2.3221,-2.4105,-2.5411,-2.6825,-2.7949,-2.8942,-2.9751,-2.9949,-2.9993,-2.9917,-2.9917,-2.9993,-2.9905,-2.9942,-2.9955,-2.9942,-3.0218,-3.0658,-1.8965,-1.9025,-1.8958,-1.9025,-1.9219,-1.9305,-1.9199,-1.8918,-1.8731,-1.843,-1.8009,-1.7796,-1.7682,-1.7602,-1.7589,-1.7589,-1.7589,-1.7589,-1.7589,-1.7589,-1.7589,-1.7589,-1.7589,-1.7589,-1.7275,-1.68,-1.6707,-1.64,-1.5804,-1.5825,-1.5825,-1.5825,-1.5825,-1.5671,-1.5424,-1.5378,-1.5104,-1.4649,-1.4841,-1.5015,-1.5068,-1.5244,-1.5538,-1.5731,-1.5825,-1.5825,-1.5825,-1.5825,-1.5825,-1.5825,-1.5825,-1.5825,-1.5825,-1.5825,-1.5825,-1.5825,-1.5825,-1.5825,-1.5825,-1.5825,-1.5825,-1.5825,-1.5825,-1.5825,-1.5825,-1.5825,-1.5825,-1.5825,-1.5825,-1.6069,-1.6824,-1.7746,-1.8926,-2.0158,-2.1837,-2.2385,-2.1685,-2.0781,-1.9961,-1.9375,-1.9365,-1.9707,-2.0107,-2.0352,-2.0703,-2.0986,-2.1221,-2.1514,-2.1533,-2.1484,-2.1299,-2.1182,-2.123,-2.1377,-2.1553,-2.2012,-2.2568,-2.3365,-2.422,-2.5879,-2.751,-2.8303,-2.9201,-3.0269,-3.0733,-3.0721,-3.0658,-3.0583,-3.0595,-3.0394,-3.0281,-3.0507,-3.0746,-3.1173,-3.1474,-1.8668,-1.8531,-1.8764,-1.8858,-1.8931,-1.9165,-1.9105,-1.8905,-1.8818,-1.8455,-1.8049,-1.7909,-1.7822,-1.7622,-1.7589,-1.7589,-1.7589,-1.7589,-1.7589,-1.7589,-1.7589,-1.7589,-1.7589,-1.7589,-1.7268,-1.678,-1.6707,-1.6393,-1.5852,-1.5825,-1.5825,-1.5825,-1.5818,-1.5712,-1.5498,-1.5418,-1.513,-1.4703,-1.4863,-1.5055,-1.5042,-1.5291,-1.5551,-1.5812,-1.5825,-1.5825,-1.5825,-1.5825,-1.5825,-1.5825,-1.5825,-1.5825,-1.5825,-1.5825,-1.5825,-1.5825,-1.5825,-1.5825,-1.5825,-1.5825,-1.5825,-1.5825,-1.5825,-1.5825,-1.5825,-1.5825,-1.5825,-1.5825,-1.5825,-1.6015,-1.6581,-1.7279,-1.8195,-1.933,-2.1221,-2.1859,-2.1353,-2.0928,-2.0518,-2.0127,-2.0019,-2.0117,-2.0517,-2.0546,-2.0527,-2.0518,-2.0615,-2.0771,-2.0937,-2.0918,-2.083,-2.0791,-2.0762,-2.1182,-2.1405,-2.2217,-2.2822,-2.3713,-2.4605,-2.6157,-2.7977,-2.8872,-2.9612,-3.0651,-3.1323,-3.1348,-3.1273,-3.111,-3.1072,-3.1009,-3.1085,-3.1336,-3.1524,-3.1763,-3.1838,-1.7848,-1.8187,-1.8227,-1.8404,-1.8597,-1.8698,-1.8691,-1.8584,-1.8384,-1.8182,-1.7962,-1.7802,-1.7689,-1.7589,-1.7589,-1.7589,-1.7589,-1.7589,-1.7589,-1.7589,-1.7589,-1.7589,-1.7589,-1.7575,-1.7275,-1.6787,-1.67,-1.6406,-1.5865,-1.5784,-1.5825,-1.5825,-1.5825,-1.5798,-1.5651,-1.5504,-1.5217,-1.4937,-1.5137,-1.5164,-1.5109,-1.5464,-1.5691,-1.5805,-1.5825,-1.5825,-1.5825,-1.5825,-1.5825,-1.5825,-1.5825,-1.5825,-1.5825,-1.5825,-1.5825,-1.5825,-1.5825,-1.5825,-1.5825,-1.5825,-1.5825,-1.5825,-1.5825,-1.5825,-1.5825,-1.5825,-1.5825,-1.5825,-1.5825,-1.5927,-1.6305,-1.6864,-1.8048,-1.9926,-2.1086,-2.1736,-2.1719,-2.1621,-2.1377,-2.0986,-2.0889,-2.0771,-2.0586,-2.0352,-2.0156,-2.0137,-2.0176,-2.0215,-2.0469,-2.0625,-2.0683,-2.0332,-2.0352,-2.0888,-2.1502,-2.2353,-2.3208,-2.4124,-2.5117,-2.6273,-2.8075,-2.961,-3.0326,-3.1183,-3.1567,-3.17,-3.1512,-3.1364,-3.1439,-3.1637,-3.1615,-3.1716,-3.1637,-3.1775,-3.1876,-1.6896,-1.7389,-1.7846,-1.8089,-1.8317,-1.843,-1.8497,-1.8464,-1.831,-1.8095,-1.7975,-1.7816,-1.7702,-1.7589,-1.7589,-1.7589,-1.7589,-1.7589,-1.7589,-1.7589,-1.7589,-1.7589,-1.7589,-1.7575,-1.7335,-1.6921,-1.676,-1.6453,-1.6066,-1.5899,-1.5832,-1.5825,-1.5825,-1.5825,-1.5758,-1.5671,-1.5364,-1.511,-1.5331,-1.5391,-1.5089,-1.5531,-1.5785,-1.5825,-1.5825,-1.5825,-1.5825,-1.5825,-1.5825,-1.5825,-1.5825,-1.5825,-1.5825,-1.5825,-1.5825,-1.5825,-1.5825,-1.5825,-1.5825,-1.5825,-1.5825,-1.5825,-1.5825,-1.5825,-1.5825,-1.5825,-1.5825,-1.5825,-1.5825,-1.5879,-1.6116,-1.6676,-1.8041,-1.9708,-2.0802,-2.1441,-2.2052,-2.2139,-2.2031,-2.1777,-2.1414,-2.1122,-2.085,-2.0449,-2.0146,-2.0039,-2.0166,-2.0215,-2.0312,-2.0468,-2.0586,-2.0381,-2.0557,-2.121,-2.1912,-2.2744,-2.3457,-2.4408,-2.5202,-2.6383,-2.7887,-2.9716,-3.0778,-3.1357,-3.1796,-3.2051,-3.1964,-3.1964,-3.2202,-3.2303,-3.2114,-3.2118,-3.2152,-3.2064,-3.2114,-1.5856,-1.6217,-1.7339,-1.7787,-1.782,-1.8167,-1.822,-1.8322,-1.8317,-1.819,-1.7949,-1.7929,-1.7789,-1.7589,-1.7589,-1.7589,-1.7582,-1.7574,-1.7409,-1.733,-1.7265,-1.7258,-1.7245,-1.7535,-1.7395,-1.7166,-1.6854,-1.658,-1.6266,-1.5999,-1.5872,-1.5845,-1.5825,-1.5825,-1.5798,-1.5765,-1.5471,-1.5137,-1.5364,-1.5378,-1.5162,-1.5458,-1.5738,-1.5825,-1.5825,-1.5825,-1.5825,-1.5825,-1.5825,-1.5825,-1.5825,-1.5825,-1.5825,-1.5825,-1.5825,-1.5825,-1.5825,-1.5825,-1.5825,-1.5825,-1.5825,-1.5825,-1.5825,-1.5825,-1.5825,-1.5825,-1.5825,-1.5825,-1.5825,-1.5825,-1.5967,-1.6669,-1.7824,-1.9252,-2.0288,-2.1271,-2.2155,-2.2506,-2.2559,-2.2471,-2.1726,-2.1346,-2.1064,-2.0781,-2.037,-1.998,-2.0088,-2.0146,-2.0254,-2.042,-2.0644,-2.081,-2.1191,-2.1726,-2.2461,-2.3164,-2.3848,-2.4587,-2.5218,-2.6227,-2.7437,-2.9083,-3.0646,-3.1544,-3.1847,-3.2276,-3.2657,-3.2757,-3.2867,-3.288,-3.2671,-3.2835,-3.3023,-3.2797,-3.2692,-1.4472,-1.503,-1.5946,-1.6458,-1.669,-1.6949,-1.7255,-1.7488,-1.7696,-1.7782,-1.7695,-1.7689,-1.7655,-1.7589,-1.7621,-1.7589,-1.7522,-1.7341,-1.6974,-1.6298,-1.6342,-1.6298,-1.6503,-1.7055,-1.7395,-1.7213,-1.7139,-1.6817,-1.6409,-1.6166,-1.6046,-1.5852,-1.5778,-1.5778,-1.5764,-1.5544,-1.5337,-1.505,-1.5137,-1.5112,-1.5006,-1.5239,-1.5551,-1.5704,-1.573,-1.5778,-1.5778,-1.5825,-1.5825,-1.5825,-1.5778,-1.5683,-1.5778,-1.5825,-1.5825,-1.5825,-1.5825,-1.5825,-1.5825,-1.5825,-1.5825,-1.5825,-1.5825,-1.5825,-1.5825,-1.5825,-1.5825,-1.5825,-1.5825,-1.5825,-1.5872,-1.6548,-1.7584,-1.867,-1.9519,-2.0492,-2.1691,-2.2539,-2.2648,-2.2409,-2.2012,-2.1484,-2.082,-2.042,-2.0117,-1.9971,-2.0,-2.0059,-2.0225,-2.042,-2.0674,-2.0957,-2.1445,-2.1973,-2.2744,-2.3398,-2.3994,-2.4482,-2.5036,-2.5551,-2.6808,-2.8011,-2.9409,-3.0746,-3.1857,-3.2239,-3.2296,-3.2825,-3.2717,-3.2948,-3.3011,-3.2885,-3.281,-3.2923,-3.2998,-1.2852,-1.3452,-1.4309,-1.4905,-1.5334,-1.5861,-1.6352,-1.6842,-1.7378,-1.7589,-1.7589,-1.7589,-1.7589,-1.7569,-1.7501,-1.7427,-1.7256,-1.6818,-1.6145,-1.5569,-1.5449,-1.5398,-1.5563,-1.6202,-1.6716,-1.6877,-1.6831,-1.6583,-1.6319,-1.6139,-1.5959,-1.5804,-1.5683,-1.5547,-1.5452,-1.5201,-1.4867,-1.4542,-1.4608,-1.4569,-1.4384,-1.4691,-1.4933,-1.508,-1.5112,-1.5112,-1.5064,-1.5064,-1.5112,-1.5112,-1.5112,-1.535,-1.573,-1.5825,-1.5778,-1.5825,-1.5825,-1.5825,-1.5825,-1.5825,-1.5825,-1.5825,-1.5825,-1.5825,-1.5825,-1.5825,-1.5825,-1.5825,-1.5825,-1.5825,-1.5832,-1.6353,-1.7242,-1.7865,-1.8588,-1.9471,-2.0607,-2.1697,-2.2343,-2.2136,-2.1797,-2.1269,-2.0713,-2.0303,-2.0117,-2.0068,-2.0273,-2.0332,-2.0352,-2.0586,-2.0732,-2.1045,-2.1543,-2.2148,-2.2959,-2.3594,-2.4092,-2.4394,-2.4614,-2.4934,-2.5554,-2.6781,-2.7983,-2.9238,-3.0452,-3.1086,-3.1302,-3.1875,-3.2328,-3.2202,-3.2152,-3.2252,-3.2307,-3.2206,-3.2315,-1.1273,-1.1873,-1.2679,-1.3383,-1.3917,-1.4781,-1.5488,-1.6086,-1.6995,-1.7213,-1.7318,-1.7371,-1.7134,-1.72,-1.6964,-1.6929,-1.654,-1.5866,-1.5018,-1.436,-1.4215,-1.4209,-1.4433,-1.4976,-1.5663,-1.6355,-1.6513,-1.6373,-1.6239,-1.6039,-1.5952,-1.5804,-1.5547,-1.5207,-1.4921,-1.4573,-1.4028,-1.3526,-1.352,-1.3497,-1.3198,-1.3514,-1.3702,-1.3802,-1.3836,-1.3848,-1.3854,-1.3854,-1.3902,-1.3908,-1.3956,-1.4436,-1.5105,-1.5642,-1.5737,-1.573,-1.5778,-1.5825,-1.5825,-1.5825,-1.5825,-1.5825,-1.5825,-1.5825,-1.5825,-1.5825,-1.5825,-1.5825,-1.5825,-1.5825,-1.5832,-1.6211,-1.6654,-1.7145,-1.7653,-1.8386,-1.9295,-2.0469,-2.1141,-2.1561,-2.1348,-2.0928,-2.0772,-2.0507,-2.0312,-2.0244,-2.0459,-2.0664,-2.0693,-2.0654,-2.0762,-2.0918,-2.1328,-2.1953,-2.2754,-2.3266,-2.3822,-2.4023,-2.415,-2.4297,-2.4424,-2.5047,-2.6157,-2.7612,-2.8714,-2.9503,-3.0374,-3.1092,-3.1329,-3.1257,-3.1486,-3.1763,-3.1662,-3.1424,-3.1675,-1.0578,-1.0962,-1.1618,-1.2209,-1.2792,-1.3609,-1.4261,-1.497,-1.5773,-1.6158,-1.6152,-1.6146,-1.6005,-1.5857,-1.579,-1.5559,-1.5008,-1.4316,-1.3501,-1.2822,-1.262,-1.2625,-1.2877,-1.3586,-1.4388,-1.5392,-1.595,-1.6265,-1.6231,-1.6261,-1.5855,-1.5675,-1.5261,-1.4777,-1.4088,-1.359,-1.2864,-1.221,-1.2131,-1.2005,-1.1863,-1.1857,-1.2047,-1.2247,-1.2362,-1.2382,-1.2339,-1.2339,-1.229,-1.229,-1.229,-1.2678,-1.3457,-1.4484,-1.5166,-1.5499,-1.573,-1.5825,-1.5825,-1.5825,-1.5825,-1.5825,-1.5825,-1.5825,-1.5825,-1.5825,-1.5825,-1.5825,-1.5825,-1.5825,-1.5825,-1.6069,-1.6341,-1.6682,-1.7069,-1.7691,-1.8404,-1.9159,-2.0097,-2.0819,-2.0781,-2.0811,-2.0762,-2.081,-2.085,-2.0791,-2.0859,-2.1025,-2.1103,-2.0879,-2.0693,-2.084,-2.1025,-2.1719,-2.2461,-2.2886,-2.3335,-2.3403,-2.3481,-2.3491,-2.3585,-2.3413,-2.427,-2.593,-2.7326,-2.8405,-2.926,-3.0049,-3.053,-3.0602,-3.0948,-3.1323,-3.1135,-3.0959,-3.1198,-0.9596,-0.9816,-1.0088,-1.0523,-1.1173,-1.1982,-1.2689,-1.3344,-1.4148,-1.4572,-1.4534,-1.4439,-1.4323,-1.4162,-1.3969,-1.3629,-1.3188,-1.2653,-1.1894,-1.1224,-1.1042,-1.0993,-1.1317,-1.2101,-1.3264,-1.425,-1.4984,-1.5475,-1.5625,-1.5502,-1.5294,-1.4917,-1.4388,-1.3752,-1.3119,-1.2441,-1.1706,-1.1072,-1.0904,-1.0768,-1.0538,-1.051,-1.0702,-1.0928,-1.1055,-1.1126,-1.113,-1.113,-1.113,-1.113,-1.113,-1.1526,-1.2257,-1.3275,-1.4388,-1.4975,-1.5547,-1.5825,-1.5825,-1.5825,-1.5825,-1.5825,-1.5825,-1.5825,-1.5825,-1.5825,-1.5825,-1.5825,-1.5825,-1.5825,-1.5825,-1.5927,-1.5967,-1.5982,-1.6344,-1.6877,-1.7523,-1.8083,-1.9173,-2.0362,-2.0849,-2.1035,-2.1045,-2.1152,-2.1348,-2.1377,-2.1328,-2.1406,-2.1533,-2.125,-2.0908,-2.0957,-2.1172,-2.166,-2.2305,-2.2672,-2.3052,-2.3091,-2.3101,-2.3101,-2.3101,-2.3164,-2.3515,-2.453,-2.5827,-2.6975,-2.7725,-2.8371,-2.9129,-2.9915,-3.0204,-3.0453,-3.0493,-3.0583,-3.0783,-0.8937,-0.8937,-0.8937,-0.9213,-0.9812,-1.057,-1.1223,-1.1819,-1.2625,-1.3009,-1.2916,-1.2776,-1.2653,-1.2499,-1.2187,-1.1875,-1.1565,-1.113,-1.0542,-1.0051,-0.9862,-0.9813,-1.0149,-1.093,-1.215,-1.3414,-1.3551,-1.4004,-1.4665,-1.452,-1.4208,-1.3655,-1.3022,-1.2441,-1.1858,-1.113,-1.0551,-1.0064,-0.9908,-0.9732,-0.9489,-0.9418,-0.9535,-0.9836,-0.9895,-0.9867,-0.9867,-0.9867,-0.9867,-0.9867,-0.9965,-1.031,-1.1194,-1.2252,-1.3318,-1.4394,-1.5302,-1.573,-1.5825,-1.5825,-1.5825,-1.5825,-1.5825,-1.5825,-1.5825,-1.5825,-1.5825,-1.5825,-1.5825,-1.5825,-1.5825,-1.5825,-1.5638,-1.5526,-1.572,-1.6202,-1.7009,-1.7847,-1.9075,-2.0077,-2.0904,-2.1337,-2.1445,-2.1475,-2.167,-2.1807,-2.1768,-2.1807,-2.1875,-2.1611,-2.1348,-2.1279,-2.1426,-2.1758,-2.2207,-2.2555,-2.2886,-2.3081,-2.3091,-2.3101,-2.3101,-2.3101,-2.3505,-2.3813,-2.4085,-2.5164,-2.5904,-2.6907,-2.7975,-2.8779,-2.9256,-2.9672,-2.9911,-3.0091,-3.0231,-0.8937,-0.8937,-0.8937,-0.9103,-0.9489,-1.0084,-1.0523,-1.0911,-1.1505,-1.1782,-1.1705,-1.1554,-1.1309,-1.1091,-1.077,-1.0591,-1.0408,-1.0006,-0.9608,-0.9266,-0.9072,-0.9069,-0.9361,-1.0109,-1.1179,-1.2247,-1.2257,-1.298,-1.3457,-1.336,-1.2877,-1.2242,-1.1707,-1.1072,-1.0485,-0.9953,-0.9023,-0.8485,-0.8379,-0.829,-0.8197,-0.8158,-0.8235,-0.8265,-0.841,-0.8485,-0.8584,-0.8584,-0.8535,-0.8485,-0.8386,-0.8832,-0.9867,-1.1272,-1.2484,-1.3703,-1.4813,-1.5825,-1.5778,-1.5825,-1.5825,-1.5825,-1.5825,-1.5825,-1.5825,-1.5825,-1.5825,-1.5825,-1.5825,-1.5798,-1.5785,-1.5798,-1.5531,-1.555,-1.569,-1.6227,-1.6912,-1.8135,-1.9277,-2.0459,-2.1502,-2.1797,-2.1953,-2.1953,-2.2014,-2.2109,-2.2217,-2.2256,-2.2207,-2.1982,-2.165,-2.1543,-2.1533,-2.1846,-2.2178,-2.2549,-2.276,-2.3023,-2.3169,-2.3159,-2.313,-2.314,-2.313,-2.3408,-2.3519,-2.3858,-2.4925,-2.5986,-2.701,-2.7822,-2.8474,-2.9,-2.9468,-2.9598,-2.9854,-0.8937,-0.8937,-0.8937,-0.8995,-0.9158,-0.9379,-0.9541,-0.9706,-0.9926,-1.0091,-1.0034,-0.9796,-0.9547,-0.9361,-0.9118,-0.9031,-0.8977,-0.8874,-0.8676,-0.8581,-0.8432,-0.8428,-0.863,-0.9221,-1.01,-1.0837,-1.0988,-1.0988,-1.1658,-1.195,-1.1668,-1.1086,-1.0542,-1.0096,-0.9509,-0.9019,-0.8531,-0.8159,-0.7963,-0.7926,-0.7864,-0.7868,-0.7855,-0.7933,-0.7958,-0.7982,-0.7988,-0.7988,-0.7988,-0.7988,-0.7988,-0.8435,-0.9422,-1.069,-1.1999,-1.3022,-1.4538,-1.5452,-1.5784,-1.5778,-1.5825,-1.5825,-1.5825,-1.5825,-1.5825,-1.5825,-1.5825,-1.5825,-1.5825,-1.5772,-1.5645,-1.5585,-1.5351,-1.5354,-1.5641,-1.6478,-1.7261,-1.8456,-1.9666,-2.0866,-2.1943,-2.2207,-2.2432,-2.25,-2.251,-2.2588,-2.2676,-2.2715,-2.2637,-2.2451,-2.209,-2.1709,-2.1748,-2.1865,-2.2187,-2.2529,-2.2691,-2.2974,-2.3467,-2.3428,-2.3218,-2.3188,-2.3188,-2.3149,-2.3251,-2.3677,-2.4272,-2.503,-2.5981,-2.688,-2.777,-2.841,-2.9028,-2.9573,-2.9778,-0.8851,-0.8881,-0.8937,-0.8937,-0.8937,-0.8937,-0.8937,-0.8937,-0.8992,-0.8937,-0.8855,-0.8675,-0.8374,-0.8092,-0.8095,-0.8187,-0.8088,-0.7988,-0.7988,-0.7988,-0.7988,-0.8038,-0.8233,-0.8627,-0.9118,-0.9805,-0.9809,-0.9908,-1.0051,-1.0149,-1.0207,-0.9817,-0.9414,-0.9114,-0.8871,-0.8531,-0.8187,-0.8028,-0.7897,-0.7897,-0.7938,-0.788,-0.7901,-0.7948,-0.7988,-0.7988,-0.7988,-0.7988,-0.7988,-0.7988,-0.7988,-0.8336,-0.9175,-1.0199,-1.1317,-1.2436,-1.3848,-1.4921,-1.535,-1.5642,-1.5778,-1.5825,-1.5825,-1.5825,-1.5825,-1.5825,-1.5825,-1.5825,-1.5825,-1.5712,-1.5558,-1.5478,-1.5257,-1.5318,-1.5544,-1.6513,-1.7579,-1.8756,-1.998,-2.1282,-2.2187,-2.2652,-2.2847,-2.2984,-2.3042,-2.3062,-2.3091,-2.311,-2.2994,-2.2861,-2.2549,-2.2139,-2.1904,-2.1934,-2.207,-2.2383,-2.2574,-2.2959,-2.3408,-2.3525,-2.3291,-2.3218,-2.3247,-2.3188,-2.311,-2.3212,-2.3637,-2.429,-2.4932,-2.6043,-2.711,-2.7971,-2.8661,-2.93,-2.9753,-0.8811,-0.8937,-0.8937,-0.8937,-0.8881,-0.8937,-0.8878,-0.8937,-0.8937,-0.8871,-0.8852,-0.8618,-0.8316,-0.8049,-0.7988,-0.7988,-0.7988,-0.7988,-0.8008,-0.8008,-0.7992,-0.8012,-0.8161,-0.8354,-0.8676,-0.9118,-0.9072,-0.9072,-0.9118,-0.8973,-0.868,-0.8184,-0.8432,-0.8233,-0.8184,-0.8187,-0.8088,-0.7985,-0.7948,-0.7948,-0.7982,-0.7961,-0.7971,-0.7975,-0.7988,-0.7988,-0.7988,-0.7988,-0.7988,-0.7988,-0.7988,-0.8233,-0.8924,-0.9756,-1.0783,-1.195,-1.3307,-1.4382,-1.4921,-1.5499,-1.5778,-1.5825,-1.5825,-1.5825,-1.5825,-1.5825,-1.5825,-1.5825,-1.5825,-1.5738,-1.5631,-1.5551,-1.5277,-1.5184,-1.5489,-1.6334,-1.7529,-1.9013,-2.0258,-2.1566,-2.2402,-2.2847,-2.3013,-2.3081,-2.3101,-2.3101,-2.3286,-2.335,-2.3305,-2.3159,-2.2935,-2.2617,-2.2187,-2.2031,-2.1924,-2.2109,-2.2275,-2.2754,-2.3281,-2.332,-2.314,-2.3198,-2.352,-2.3174,-2.3096,-2.3057,-2.314,-2.3981,-2.4805,-2.555,-2.6505,-2.7557,-2.8581,-2.9378,-2.9702,-0.8743,-0.875,-0.8844,-0.8937,-0.8933,-0.8835,-0.8852,-0.8875,-0.8881,-0.8763,-0.8662,-0.8523,-0.8316,-0.8059,-0.7988,-0.7988,-0.8005,-0.8147,-0.816,-0.818,-0.8184,-0.818,-0.8211,-0.8182,-0.8237,-0.8432,-0.8382,-0.8336,-0.8382,-0.8233,-0.8137,-0.8038,-0.7988,-0.7988,-0.7988,-0.7988,-0.7988,-0.7988,-0.7988,-0.7988,-0.7988,-0.7988,-0.7988,-0.7988,-0.7988,-0.7988,-0.7988,-0.7988,-0.7988,-0.7988,-0.7988,-0.8333,-0.8825,-0.9562,-1.0547,-1.1717,-1.3113,-1.4142,-1.4831,-1.5452,-1.5778,-1.5825,-1.5825,-1.5825,-1.5825,-1.5825,-1.5825,-1.5825,-1.5825,-1.5744,-1.5558,-1.5444,-1.5283,-1.5103,-1.5425,-1.6281,-1.7461,-1.8947,-2.0352,-2.1629,-2.2431,-2.3023,-2.3081,-2.3091,-2.3101,-2.311,-2.3369,-2.3555,-2.3549,-2.3588,-2.3413,-2.3232,-2.2822,-2.2559,-2.2461,-2.2246,-2.1992,-2.2539,-2.3164,-2.3262,-2.3296,-2.3793,-2.3958,-2.3524,-2.3252,-2.3403,-2.3628,-2.3994,-2.4591,-2.5326,-2.6318,-2.7435,-2.8422,-2.9555,-2.9838,-0.8632,-0.8713,-0.8774,-0.8801,-0.8861,-0.8825,-0.8784,-0.8868,-0.8937,-0.8801,-0.8554,-0.854,-0.8387,-0.8174,-0.8109,-0.8019,-0.8029,-0.813,-0.8177,-0.818,-0.8174,-0.8201,-0.8163,-0.8109,-0.8038,-0.7988,-0.7988,-0.8038,-0.8088,-0.7988,-0.7988,-0.7988,-0.7988,-0.7988,-0.7988,-0.7988,-0.7988,-0.7988,-0.7988,-0.7988,-0.7988,-0.7988,-0.7988,-0.7988,-0.7988,-0.7988,-0.7988,-0.7988,-0.7988,-0.7988,-0.8038,-0.8283,-0.8874,-0.9612,-1.0645,-1.1863,-1.3076,-1.419,-1.4879,-1.5458,-1.5778,-1.5825,-1.5825,-1.5825,-1.5825,-1.5825,-1.5825,-1.5825,-1.5771,-1.5691,-1.5504,-1.5458,-1.5337,-1.519,-1.5511,-1.6326,-1.7515,-1.8888,-2.0307,-2.164,-2.2419,-2.3256,-2.3452,-2.35,-2.3555,-2.3516,-2.3535,-2.3779,-2.3994,-2.4043,-2.4082,-2.3828,-2.3525,-2.331,-2.3125,-2.2666,-2.2295,-2.2539,-2.3105,-2.3447,-2.3691,-2.415,-2.4346,-2.3958,-2.3793,-2.3867,-2.4055,-2.4293,-2.4611,-2.5011,-2.6428,-2.8175,-2.9407,-3.0515,-3.0468,-0.8455,-0.8679,-0.8567,-0.8682,-0.8868,-0.8878,-0.8871,-0.8881,-0.8878,-0.8842,-0.8689,-0.8682,-0.8523,-0.8296,-0.8228,-0.8157,-0.8015,-0.8022,-0.8096,-0.8116,-0.8133,-0.8032,-0.8022,-0.8012,-0.7988,-0.7988,-0.7988,-0.7988,-0.7988,-0.7988,-0.7988,-0.7988,-0.7988,-0.7988,-0.7988,-0.7988,-0.7988,-0.7988,-0.7988,-0.7988,-0.7988,-0.7988,-0.7988,-0.7988,-0.7988,-0.7988,-0.7988,-0.7988,-0.7988,-0.7988,-0.7988,-0.8283,-0.8775,-0.9562,-1.0542,-1.1614,-1.3017,-1.404,-1.4688,-1.5397,-1.573,-1.5778,-1.5825,-1.5825,-1.5825,-1.5825,-1.5825,-1.5825,-1.5825,-1.5825,-1.5705,-1.5611,-1.5478,-1.5501,-1.5847,-1.6454,-1.7653,-1.8706,-2.0105,-2.1414,-2.2558,-2.3464,-2.378,-2.4014,-2.4033,-2.3975,-2.3828,-2.3984,-2.4326,-2.4551,-2.4648,-2.4414,-2.4131,-2.376,-2.3447,-2.2891,-2.2627,-2.2812,-2.3037,-2.3389,-2.3769,-2.415,-2.4258,-2.4228,-2.4287,-2.4277,-2.4392,-2.448,-2.5346,-2.6383,-2.7783,-2.9361,-3.0552,-3.121,-3.1022,-0.8384,-0.856,-0.8611,-0.875,-0.8854,-0.8828,-0.8842,-0.8875,-0.8927,-0.8852,-0.8733,-0.8713,-0.8547,-0.8347,-0.8272,-0.8211,-0.8042,-0.8174,-0.8194,-0.8194,-0.8191,-0.8194,-0.817,-0.8049,-0.7995,-0.7988,-0.7988,-0.7988,-0.7988,-0.7988,-0.7988,-0.7988,-0.7988,-0.7988,-0.7988,-0.7988,-0.7988,-0.7988,-0.7988,-0.7988,-0.7988,-0.7988,-0.7988,-0.7988,-0.7988,-0.7988,-0.7988,-0.7988,-0.7988,-0.7988,-0.7988,-0.8233,-0.8825,-0.9562,-1.0449,-1.1526,-1.2791,-1.3859,-1.4688,-1.5356,-1.5635,-1.573,-1.5825,-1.5825,-1.5825,-1.5825,-1.5825,-1.5858,-1.5899,-1.5892,-1.5778,-1.5972,-1.5973,-1.5866,-1.6152,-1.6779,-1.7719,-1.8619,-1.9763,-2.1025,-2.2232,-2.3338,-2.3992,-2.4297,-2.4402,-2.4582,-2.4495,-2.456,-2.4834,-2.5127,-2.5245,-2.499,-2.4668,-2.4228,-2.3779,-2.334,-2.2949,-2.2916,-2.3071,-2.333,-2.3721,-2.417,-2.4355,-2.4434,-2.456,-2.4734,-2.4898,-2.5364,-2.6847,-2.8111,-2.9108,-3.0071,-3.1145,-3.1486,-3.1298,-0.8303,-0.8486,-0.8587,-0.8754,-0.8851,-0.8828,-0.8794,-0.8875,-0.8881,-0.8824,-0.8753,-0.8733,-0.8665,-0.8486,-0.8411,-0.834,-0.8214,-0.8286,-0.8395,-0.8343,-0.8395,-0.8306,-0.8241,-0.817,-0.8102,-0.8012,-0.7988,-0.7988,-0.7988,-0.7988,-0.7988,-0.7988,-0.7988,-0.7988,-0.7988,-0.7988,-0.7988,-0.7988,-0.7988,-0.7988,-0.7988,-0.7988,-0.7988,-0.7988,-0.7988,-0.7988,-0.7988,-0.7988,-0.7988,-0.7988,-0.8088,-0.8233,-0.8825,-0.9562,-1.04,-1.1331,-1.2403,-1.3468,-1.4388,-1.5022,-1.5302,-1.5737,-1.5778,-1.5825,-1.5865,-1.5939,-1.5992,-1.6019,-1.6046,-1.6106,-1.6152,-1.638,-1.6382,-1.6276,-1.6539,-1.7139,-1.7661,-1.8595,-1.9497,-2.072,-2.1876,-2.3,-2.4079,-2.4449,-2.4717,-2.4985,-2.5235,-2.5235,-2.5264,-2.5478,-2.5615,-2.542,-2.5137,-2.4746,-2.4316,-2.3906,-2.3525,-2.3149,-2.3208,-2.3398,-2.3818,-2.4277,-2.4453,-2.4687,-2.4951,-2.5223,-2.5541,-2.631,-2.7426,-2.8532,-2.9598,-3.0647,-3.1726,-3.1888,-3.1813,-0.8211,-0.8459,-0.8482,-0.8659,-0.8841,-0.8858,-0.8878,-0.8937,-0.8937,-0.8878,-0.893,-0.8861,-0.8808,-0.8713,-0.8693,-0.8587,-0.8455,-0.8455,-0.8455,-0.8514,-0.8494,-0.8377,-0.8306,-0.8248,-0.815,-0.8025,-0.7988,-0.7988,-0.7988,-0.7988,-0.7988,-0.7988,-0.7988,-0.7988,-0.7988,-0.7988,-0.7988,-0.7988,-0.7988,-0.7988,-0.7988,-0.7988,-0.7988,-0.7988,-0.7988,-0.7988,-0.7988,-0.7988,-0.7988,-0.7988,-0.7988,-0.8333,-0.8821,-0.9558,-1.0145,-1.0925,-1.2004,-1.2877,-1.3698,-1.4238,-1.5022,-1.5506,-1.5783,-1.5804,-1.5892,-1.6032,-1.6146,-1.6266,-1.6353,-1.652,-1.666,-1.6687,-1.6707,-1.6794,-1.6927,-1.7334,-1.774,-1.8545,-1.9375,-2.041,-2.1488,-2.2558,-2.3682,-2.4266,-2.4485,-2.4976,-2.5237,-2.5499,-2.5537,-2.5557,-2.5654,-2.5645,-2.5439,-2.5225,-2.4814,-2.4307,-2.3877,-2.3467,-2.3408,-2.3545,-2.3975,-2.4326,-2.459,-2.4912,-2.5391,-2.5664,-2.5731,-2.6489,-2.7667,-2.878,-2.9906,-3.1137,-3.2194,-3.2599,-3.2696,-0.8153,-0.8336,-0.8438,-0.8598,-0.8777,-0.8838,-0.8937,-0.8937,-0.8937,-0.8937,-0.8937,-0.8937,-0.8859,-0.8716,-0.871,-0.8618,-0.854,-0.8535,-0.8531,-0.8542,-0.8513,-0.8397,-0.8319,-0.8265,-0.8174,-0.8089,-0.7988,-0.7988,-0.7988,-0.7988,-0.7988,-0.7988,-0.7988,-0.7988,-0.7988,-0.7988,-0.7995,-0.7998,-0.8002,-0.7988,-0.7988,-0.7988,-0.7988,-0.7988,-0.7988,-0.7988,-0.7988,-0.7988,-0.7988,-0.7988,-0.7988,-0.8184,-0.8531,-0.9118,-0.9706,-1.0449,-1.1282,-1.1965,-1.2727,-1.3409,-1.4238,-1.5121,-1.5566,-1.5787,-1.5896,-1.6112,-1.6313,-1.6529,-1.666,-1.682,-1.6914,-1.6947,-1.6994,-1.7136,-1.7248,-1.7469,-1.7814,-1.8144,-1.9002,-1.981,-2.0865,-2.1818,-2.2974,-2.3674,-2.3919,-2.463,-2.5137,-2.5382,-2.5684,-2.5635,-2.5684,-2.5684,-2.5606,-2.541,-2.5029,-2.4551,-2.4141,-2.3779,-2.3574,-2.3486,-2.3779,-2.415,-2.4629,-2.5088,-2.5498,-2.5625,-2.5703,-2.661,-2.7683,-2.8969,-3.0157,-3.1444,-3.2525,-3.2896,-3.3124,-0.813,-0.8327,-0.8364,-0.8486,-0.8621,-0.8716,-0.8757,-0.8777,-0.8882,-0.8937,-0.8937,-0.8937,-0.8834,-0.8818,-0.8804,-0.8764,-0.8686,-0.8693,-0.8693,-0.8679,-0.8577,-0.8486,-0.8397,-0.8282,-0.8177,-0.8039,-0.7988,-0.7988,-0.7988,-0.7988,-0.7988,-0.7988,-0.7988,-0.7988,-0.7988,-0.7995,-0.8035,-0.8089,-0.8085,-0.7998,-0.7995,-0.7995,-0.7988,-0.7988,-0.7988,-0.7988,-0.7988,-0.7988,-0.7988,-0.7988,-0.7988,-0.8088,-0.8287,-0.863,-0.8779,-0.9422,-0.9912,-1.0542,-1.1317,-1.2242,-1.3312,-1.4401,-1.5221,-1.5696,-1.6113,-1.6462,-1.6636,-1.6797,-1.6934,-1.7088,-1.7148,-1.7201,-1.7261,-1.7367,-1.7487,-1.7608,-1.7698,-1.7811,-1.8435,-1.9169,-2.0022,-2.0939,-2.1787,-2.2591,-2.3294,-2.3768,-2.4332,-2.4784,-2.5186,-2.5538,-2.5635,-2.5684,-2.5635,-2.5557,-2.5156,-2.4736,-2.4277,-2.375,-2.3174,-2.3193,-2.3525,-2.3984,-2.4473,-2.5019,-2.5508,-2.5615,-2.5684,-2.6572,-2.7636,-2.8923,-3.0204,-3.1436,-3.2394,-3.2939,-3.3124,-0.7969,-0.8095,-0.8214,-0.826,-0.842,-0.845,-0.8503,-0.8513,-0.8767,-0.8896,-0.8879,-0.8834,-0.8807,-0.8794,-0.8794,-0.8808,-0.8754,-0.8754,-0.874,-0.8824,-0.8686,-0.854,-0.8408,-0.833,-0.8187,-0.8035,-0.7988,-0.7988,-0.7988,-0.7988,-0.7988,-0.7988,-0.7988,-0.7988,-0.7988,-0.7988,-0.8046,-0.8194,-0.8147,-0.8046,-0.8032,-0.8019,-0.8002,-0.7988,-0.7988,-0.7988,-0.7988,-0.7988,-0.7988,-0.7988,-0.7988,-0.8038,-0.8038,-0.8088,-0.8137,-0.8287,-0.8825,-0.9414,-1.0248,-1.1175,-1.2436,-1.3585,-1.4637,-1.5539,-1.617,-1.6714,-1.6945,-1.7045,-1.7161,-1.7315,-1.7388,-1.7402,-1.7442,-1.7514,-1.7528,-1.7589,-1.7654,-1.7757,-1.8057,-1.8653,-1.9022,-1.9833,-2.0405,-2.1167,-2.1828,-2.2601,-2.3261,-2.3809,-2.4372,-2.4873,-2.5284,-2.5479,-2.5654,-2.5557,-2.5293,-2.4863,-2.4365,-2.3789,-2.3144,-2.2939,-2.3257,-2.3799,-2.4326,-2.5,-2.5606,-2.5635,-2.5868,-2.6668,-2.7542,-2.8819,-3.0102,-3.1359,-3.222,-3.281,-3.3081,-0.6803,-0.6894,-0.7244,-0.7568,-0.7895,-0.8115,-0.8321,-0.8486,-0.855,-0.8591,-0.8594,-0.8598,-0.8608,-0.8628,-0.8632,-0.8632,-0.8621,-0.8659,-0.8601,-0.8608,-0.8557,-0.8482,-0.835,-0.8272,-0.817,-0.8035,-0.7988,-0.7995,-0.8015,-0.8005,-0.7998,-0.8002,-0.8019,-0.8035,-0.8035,-0.8035,-0.8157,-0.8361,-0.8282,-0.8241,-0.8238,-0.8204,-0.818,-0.8049,-0.8005,-0.8019,-0.8015,-0.7998,-0.7995,-0.7988,-0.7988,-0.7988,-0.7988,-0.7988,-0.7988,-0.8038,-0.8333,-0.8775,-0.9414,-1.035,-1.1663,-1.3117,-1.439,-1.5519,-1.6369,-1.6892,-1.7226,-1.7306,-1.7407,-1.7554,-1.7589,-1.7589,-1.7589,-1.7589,-1.7589,-1.7589,-1.7589,-1.7694,-1.7852,-1.8003,-1.8213,-1.8624,-1.919,-1.9753,-2.0364,-2.1065,-2.176,-2.2416,-2.3044,-2.3651,-2.4578,-2.4932,-2.5586,-2.5557,-2.5352,-2.4951,-2.4434,-2.3975,-2.3398,-2.3179,-2.3101,-2.3867,-2.4609,-2.5215,-2.5674,-2.5684,-2.5868,-2.6438,-2.7458,-2.8588,-2.9658,-3.0767,-3.1825,-3.255,-3.2853,-0.5325,-0.5432,-0.5893,-0.6414,-0.6933,-0.7355,-0.7821,-0.8234,-0.8286,-0.8286,-0.8316,-0.8411,-0.8531,-0.8531,-0.8535,-0.8465,-0.8469,-0.8538,-0.8565,-0.8489,-0.8401,-0.8353,-0.8275,-0.8204,-0.8126,-0.7998,-0.7998,-0.8008,-0.8116,-0.8153,-0.8163,-0.8208,-0.8225,-0.8221,-0.8225,-0.8241,-0.8296,-0.8462,-0.8448,-0.8452,-0.849,-0.8394,-0.8343,-0.8245,-0.8228,-0.8208,-0.815,-0.8133,-0.8096,-0.8012,-0.7988,-0.7988,-0.7988,-0.7988,-0.7988,-0.8038,-0.8187,-0.8382,-0.8886,-0.9785,-1.1016,-1.2522,-1.4029,-1.518,-1.6509,-1.7027,-1.7414,-1.7501,-1.7514,-1.7589,-1.7589,-1.7589,-1.7589,-1.7589,-1.7589,-1.7589,-1.7589,-1.7641,-1.7694,-1.7747,-1.7898,-1.8055,-1.8572,-1.9034,-1.9598,-2.0019,-2.0664,-2.1108,-2.1777,-2.2383,-2.3302,-2.4273,-2.4883,-2.547,-2.5528,-2.5078,-2.4463,-2.4023,-2.3594,-2.3447,-2.3408,-2.4189,-2.4922,-2.543,-2.5684,-2.5684,-2.5965,-2.64,-2.6993,-2.7955,-2.9026,-3.0147,-3.1181,-3.222,-3.2581,-0.3819,-0.3867,-0.4373,-0.5079,-0.5829,-0.6384,-0.7144,-0.7799,-0.7949,-0.8002,-0.8042,-0.8313,-0.8411,-0.8425,-0.8425,-0.8425,-0.8404,-0.8347,-0.8381,-0.836,-0.8282,-0.8231,-0.8177,-0.8116,-0.8019,-0.7998,-0.7992,-0.814,-0.8238,-0.8252,-0.8299,-0.8501,-0.8535,-0.8528,-0.8535,-0.8542,-0.8513,-0.8611,-0.8652,-0.8696,-0.8659,-0.8587,-0.8506,-0.8482,-0.8525,-0.8414,-0.8385,-0.8252,-0.8191,-0.816,-0.8113,-0.8099,-0.8099,-0.8106,-0.8049,-0.8106,-0.8153,-0.82,-0.8438,-0.9315,-1.0626,-1.2029,-1.3539,-1.5029,-1.638,-1.7128,-1.7462,-1.7569,-1.7582,-1.7589,-1.7589,-1.7589,-1.7589,-1.7589,-1.7589,-1.7589,-1.7589,-1.7589,-1.7589,-1.7589,-1.7694,-1.7747,-1.8003,-1.8468,-1.8729,-1.916,-1.9517,-1.9975,-2.0526,-2.1167,-2.1929,-2.3103,-2.4115,-2.4707,-2.5401,-2.5137,-2.4463,-2.4102,-2.373,-2.3594,-2.3662,-2.4277,-2.4902,-2.5508,-2.5684,-2.5684,-2.583,-2.6159,-2.6802,-2.74,-2.8423,-2.9543,-3.0699,-3.1701,-3.2339,-0.2722,-0.2771,-0.3274,-0.3976,-0.473,-0.5482,-0.6384,-0.7288,-0.759,-0.7793,-0.7955,-0.8022,-0.8073,-0.8126,-0.8073,-0.8096,-0.8143,-0.8123,-0.8086,-0.8049,-0.8163,-0.8123,-0.8069,-0.816,-0.8015,-0.8019,-0.8052,-0.815,-0.8333,-0.833,-0.8353,-0.8503,-0.8506,-0.8503,-0.8496,-0.8526,-0.8594,-0.8699,-0.8754,-0.8771,-0.8828,-0.874,-0.8598,-0.854,-0.8531,-0.8465,-0.8418,-0.8326,-0.8343,-0.834,-0.8286,-0.8235,-0.8211,-0.8211,-0.8214,-0.8218,-0.8269,-0.8326,-0.8687,-0.941,-1.0713,-1.2249,-1.3804,-1.5291,-1.6459,-1.7353,-1.7574,-1.7575,-1.7589,-1.7589,-1.7589,-1.7589,-1.7589,-1.7589,-1.7589,-1.7589,-1.7589,-1.7589,-1.7589,-1.7589,-1.7641,-1.7641,-1.7694,-1.795,-1.795,-1.822,-1.8272,-1.8729,-1.925,-1.9849,-2.0605,-2.1878,-2.3203,-2.4313,-2.5157,-2.4974,-2.4473,-2.4131,-2.3857,-2.3711,-2.3809,-2.4219,-2.4824,-2.5469,-2.5674,-2.5684,-2.5878,-2.5975,-2.6352,-2.6945,-2.7872,-2.8934,-3.0135,-3.1223,-3.1965]}]]